[[{"header":{"parameterUnit":"m.s-1","parameterCategory":1,"la1":31.0,"la2":29.5877,"lo1":-88.7671,"lo2":-86.6584,"dy":0.0162,"dx":0.0185,"nx":115,"ny":88,"refTime":"2023-06-04T06:00:00:Z","depth":0,"parameterNumber":2,"parameterNumberName":"U-component_of_WINDS"},"data":[0.0,0.0,0.0,0.0,0.0,0.0,0.0,0.0,0.0,0.0,0.0,0.0,0.0,0.0,0.0,0.0,0.0,0.0,0.0,0.0,0.0,0.0,0.0,0.0,0.0,0.0,0.0,0.0,0.0,0.0,0.0,0.0,0.0,0.0,0.0,0.0,0.0,0.0,0.0,0.0,0.0,0.0,0.0,0.0,0.0,0.0,0.0,0.0,0.0,0.0,0.0,0.0,0.0,0.0,0.0,0.0,0.0,0.0,0.0,0.0,0.0,0.0,0.0,0.0,0.0,0.0,0.0,0.0,0.0,0.0,0.0,0.0,0.0,0.0,0.0,0.0,0.0,0.0,0.0,0.0,0.0,0.0,0.0,0.0,0.0,0.0,0.0,0.0,0.0,0.0,0.0,0.0,0.0,0.0,0.0,0.0,0.0,0.0,0.0,0.0,0.0,0.0,0.0,0.0,0.0,0.0,0.0,0.0,0.0,0.0,0.0,0.0,0.0,0.0,0.0,0.0,0.0,0.0,0.0,0.0,0.0,0.0,0.0,0.0,0.0,0.0,0.0,0.0,0.0,0.0,0.0,0.0,0.0,0.0,0.0,0.0,0.0,0.0,0.0,0.0,0.0,0.0,0.0,0.0,0.0,0.0,0.0,0.0,0.0,0.0,0.0,0.0,0.0,0.0,0.0,0.0,0.0,0.0,0.0,0.0,0.0,0.0,0.0,0.0,0.0,0.0,0.0,0.0,0.0,0.0,0.0,0.0,0.0,0.0,0.0,0.0,0.0,0.0,0.0,0.0,0.0,0.0,0.0,0.0,0.0,0.0,0.0,0.0,0.0,0.0,0.0,0.0,0.0,0.0,0.0,0.0,0.0,0.0,0.0,0.0,0.0,0.0,0.0,0.0,0.0,0.0,0.0,0.0,0.0,0.0,0.0,0.0,0.0,0.0,0.0,0.0,0.0,0.0,0.0,0.0,0.0,0.0,0.0,0.0,0.0,0.0,0.0,0.0,0.0,0.0,0.0,0.0,0.0,0.0,0.0,0.0,0.0,0.0,0.0,0.0,0.0,0.0,0.0,0.0,0.0,0.0,0.0,0.0,0.0,0.0,0.0,0.0,0.0,0.0,0.0,0.0,0.0,0.0,0.0,0.0,0.0,0.0,0.0,0.0,0.0,0.0,0.0,0.0,0.0,0.0,0.0,0.0,0.0,0.0,0.0,0.0,0.0,0.0,0.0,0.0,0.0,0.0,0.0,0.0,0.0,0.0,0.0,0.0,0.0,0.0,0.0,0.0,0.0,0.0,0.0,0.0,0.0,0.0,0.0,0.0,0.0,0.0,0.0,0.0,0.0,0.0,0.0,0.0,0.0,0.0,0.0,0.0,0.0,0.0,0.0,0.0,0.0,0.0,0.0,0.0,0.0,0.0,0.0,0.0,0.0,0.0,0.0,0.0,0.0,0.0,0.0,0.0,0.0,0.0,0.0,0.0,0.0,0.0,0.0,0.0,0.0,0.0,0.0,0.0,0.0,0.0,0.0,0.0,0.0,0.0,0.0,0.0,0.0,0.0,0.0,0.0,0.0,0.0,0.0,0.0,0.0,0.0,0.0,0.0,0.0,0.0,0.0,0.0,0.0,0.0,0.0,0.0,0.0,0.0,0.0,0.0,0.0,0.0,0.0,0.0,0.0,0.0,0.0,0.0,0.0,0.0,0.0,0.0,0.0,0.0,0.0,0.0,0.0,0.0,0.0,0.0,0.0,0.0,0.0,0.0,0.0,0.0,0.0,0.0,0.0,0.0,0.0,0.0,0.0,0.0,0.0,0.0,0.0,0.0,0.0,0.0,0.0,0.0,0.0,0.0,0.0,0.0,0.0,0.0,0.0,0.0,0.0,0.0,0.0,0.0,0.0,0.0,0.0,0.0,0.0,0.0,0.0,0.0,0.0,0.0,0.0,0.0,0.0,0.0,0.0,0.0,0.0,0.0,0.0,0.0,0.0,0.0,0.0,0.0,0.0,0.0,0.0,0.0,0.0,0.0,0.0,0.0,0.0,0.0,0.0,0.0,0.0,0.0,0.0,0.0,0.0,0.0,0.0,0.0,0.0,0.0,0.0,0.0,0.0,0.0,0.0,0.0,0.0,0.0,0.0,0.0,0.0,0.0,0.0,0.0,0.0,0.0,0.0,0.0,0.0,0.0,0.0,0.0,0.0,0.0,0.0,0.0,0.0,0.0,0.0,0.0,0.0,0.0,0.0,0.0,0.0,0.0,0.0,0.0,0.0,0.0,0.0,0.0,0.0,0.0,0.0,0.0,0.0,0.0,0.0,0.0,0.0,0.0,0.0,0.0,0.0,0.0,0.0,0.0,0.0,0.0,0.0,0.0,0.0,0.0,0.0,0.0,0.0,0.0,0.0,0.0,0.0,0.0,0.0,0.0,0.0,0.0,0.0,0.0,0.0,0.0,0.0,0.0,0.0,0.0,0.0,0.0,0.0,0.0,0.0,0.0,0.0,0.0,0.0,0.0,0.0,0.0,0.0,0.0,0.0,0.0,0.0,0.0,0.0,0.0,0.0,0.0,0.0,0.0,0.0,0.0,0.0,0.0,0.0,0.0,0.0,0.0,0.0,0.0,0.0,0.0,0.0,0.0,0.0,0.0,0.0,0.0,0.0,0.0,0.0,0.0,0.0,0.0,0.0,0.0,0.0,0.0,0.0,0.0,0.0,0.0,0.0,0.0,0.0,0.0,0.0,0.0,0.0,0.0,0.0,0.0,0.0,0.0,0.0,0.0,0.0,0.0,0.0,0.0,0.0,0.0,0.0,0.0,0.0,0.0,0.0,0.0,0.0,0.0,0.0,0.0,0.0,0.0,0.0,0.0,0.0,0.0,0.0,0.0,0.0,0.0,0.0,0.0,0.0,0.0,0.0,0.0,0.0,0.0,0.0,0.0,0.0,0.0,0.0,0.0,0.0,0.0,0.0,0.0,0.0,0.0,0.0,0.0,0.0,0.0,0.0,0.0,0.0,0.0,0.0,0.0,0.0,0.0,0.0,0.0,0.0,0.0,0.0,0.0,0.0,0.0,0.0,0.0,0.0,0.0,0.0,0.0,0.0,0.0,0.0,0.0,0.0,0.0,0.0,0.0,0.0,0.0,0.0,0.0,0.0,0.0,0.0,0.0,0.0,0.0,0.0,0.0,0.0,0.0,0.0,0.0,0.0,0.0,0.0,0.0,0.0,0.0,0.0,0.0,0.0,0.0,0.0,0.0,0.0,0.0,0.0,0.0,0.0,0.0,0.0,0.0,0.0,0.0,0.0,0.0,0.0,0.0,0.0,0.0,0.0,0.0,0.0,0.0,0.0,0.0,0.0,0.0,0.0,0.0,0.0,0.0,0.0,0.0,0.0,0.0,0.0,0.0,0.0,0.0,0.0,0.0,0.0,0.0,0.0,0.0,0.0,0.0,0.0,0.0,0.0,0.0,0.0,0.0,0.0,0.0,0.0,0.0,0.0,0.0,0.0,0.0,0.0,0.0,0.0,0.0,0.0,0.0,0.0,0.0,0.0,0.0,0.0,0.0,0.0,0.0,0.0,0.0,0.0,0.0,0.0,0.0,0.0,0.0,0.0,0.0,0.0,0.0,0.0,0.0,0.0,0.0,0.0,0.0,0.0,0.0,0.0,0.0,0.0,0.0,0.0,0.0,0.0,0.0,0.0,0.0,0.0,0.0,0.0,0.0,0.0,0.0,0.0,0.0,0.0,0.0,0.0,0.0,0.0,0.0,0.0,0.0,0.0,0.0,0.0,0.0,0.0,0.0,0.0,0.0,0.0,0.0,0.0,0.0,0.0,0.0,0.0,0.0,0.0,0.0,0.0,0.0,0.0,0.0,0.0,0.0,0.0,0.0,0.0,0.0,0.0,0.0,0.0,0.0,0.0,0.0,0.0,0.0,0.0,0.0,0.0,0.0,0.0,0.0,0.0,0.0,0.0,0.0,0.0,0.0,0.0,0.0,0.0,0.0,0.0,0.0,0.0,0.0,0.0,0.0,0.0,0.0,0.0,0.0,0.0,0.0,0.0,0.0,0.0,0.0,0.0,0.0,0.0,0.0,0.0,0.0,0.0,0.0,0.0,0.0,0.0,0.0,0.0,0.0,0.0,0.0,0.0,0.0,0.0,0.0,0.0,0.0,0.0,0.0,0.0,0.0,0.0,0.0,0.0,0.0,0.0,0.0,0.0,0.0,0.0,0.0,0.0,0.0,-3.8684,0.0,0.0,0.0,-4.0167,0.0,0.0,0.0,0.0,0.0,0.0,0.0,0.0,0.0,0.0,0.0,0.0,0.0,0.0,0.0,0.0,0.0,0.0,0.0,0.0,0.0,0.0,0.0,0.0,0.0,0.0,0.0,0.0,0.0,0.0,0.0,0.0,0.0,0.0,0.0,0.0,0.0,0.0,0.0,0.0,0.0,0.0,0.0,0.0,0.0,0.0,0.0,0.0,0.0,0.0,0.0,0.0,0.0,0.0,0.0,0.0,0.0,0.0,0.0,0.0,0.0,0.0,0.0,0.0,0.0,0.0,0.0,0.0,0.0,0.0,0.0,0.0,0.0,0.0,0.0,0.0,0.0,0.0,0.0,0.0,0.0,0.0,0.0,0.0,0.0,0.0,0.0,0.0,0.0,0.0,0.0,0.0,0.0,0.0,0.0,0.0,0.0,0.0,0.0,0.0,0.0,0.0,0.0,0.0,0.0,0.0,0.0,0.0,0.0,0.0,-3.8907,-3.9138,-4.0635,-4.1182,-4.0612,0.0,0.0,0.0,0.0,0.0,0.0,0.0,0.0,0.0,0.0,0.0,0.0,0.0,0.0,0.0,0.0,0.0,0.0,0.0,0.0,0.0,0.0,0.0,0.0,0.0,0.0,0.0,0.0,0.0,0.0,0.0,0.0,0.0,0.0,0.0,0.0,0.0,0.0,0.0,0.0,0.0,0.0,0.0,0.0,0.0,0.0,0.0,0.0,0.0,0.0,0.0,0.0,0.0,0.0,0.0,0.0,0.0,0.0,0.0,0.0,0.0,0.0,0.0,0.0,0.0,0.0,0.0,0.0,0.0,0.0,0.0,0.0,0.0,0.0,0.0,0.0,0.0,0.0,0.0,0.0,0.0,0.0,0.0,0.0,0.0,0.0,0.0,0.0,0.0,0.0,0.0,0.0,0.0,0.0,0.0,0.0,0.0,0.0,0.0,0.0,0.0,0.0,0.0,0.0,0.0,0.0,0.0,0.0,0.0,0.0,0.0,0.0,-4.1286,-4.1912,-4.0939,0.0,0.0,0.0,0.0,0.0,0.0,0.0,0.0,0.0,0.0,0.0,0.0,0.0,0.0,0.0,0.0,0.0,0.0,0.0,0.0,0.0,0.0,0.0,0.0,0.0,0.0,0.0,0.0,0.0,0.0,0.0,0.0,0.0,0.0,0.0,0.0,0.0,0.0,0.0,0.0,0.0,0.0,0.0,0.0,0.0,0.0,0.0,0.0,0.0,0.0,0.0,0.0,0.0,0.0,0.0,0.0,0.0,0.0,0.0,0.0,0.0,0.0,0.0,0.0,0.0,0.0,0.0,0.0,0.0,0.0,0.0,0.0,0.0,0.0,0.0,0.0,0.0,0.0,0.0,0.0,0.0,0.0,0.0,0.0,0.0,0.0,0.0,0.0,0.0,0.0,0.0,0.0,0.0,0.0,0.0,0.0,0.0,0.0,0.0,0.0,0.0,0.0,0.0,0.0,0.0,0.0,0.0,0.0,0.0,0.0,-3.9562,-4.0091,-4.154,0.0,-4.0686,0.0,0.0,0.0,0.0,0.0,0.0,0.0,0.0,0.0,0.0,0.0,0.0,0.0,0.0,0.0,0.0,0.0,0.0,0.0,0.0,0.0,0.0,0.0,0.0,0.0,0.0,0.0,0.0,0.0,0.0,0.0,0.0,0.0,0.0,0.0,0.0,0.0,0.0,0.0,0.0,0.0,0.0,0.0,0.0,0.0,0.0,0.0,0.0,0.0,0.0,0.0,0.0,0.0,0.0,0.0,0.0,0.0,0.0,0.0,0.0,0.0,0.0,0.0,0.0,0.0,0.0,0.0,0.0,0.0,0.0,0.0,0.0,0.0,0.0,0.0,0.0,0.0,0.0,0.0,0.0,0.0,0.0,0.0,0.0,0.0,0.0,0.0,0.0,0.0,0.0,0.0,0.0,0.0,0.0,0.0,0.0,0.0,0.0,0.0,0.0,0.0,0.0,0.0,0.0,0.0,0.0,0.0,0.0,0.0,0.0,-4.0279,-4.0834,-4.202,-4.2128,0.0,0.0,0.0,0.0,0.0,0.0,0.0,0.0,0.0,0.0,0.0,0.0,0.0,0.0,0.0,0.0,0.0,0.0,0.0,0.0,0.0,0.0,0.0,0.0,0.0,0.0,0.0,0.0,0.0,0.0,0.0,0.0,0.0,0.0,0.0,0.0,0.0,0.0,0.0,0.0,0.0,0.0,0.0,0.0,0.0,0.0,0.0,0.0,0.0,0.0,0.0,0.0,0.0,0.0,0.0,0.0,0.0,0.0,0.0,0.0,0.0,0.0,0.0,0.0,0.0,0.0,0.0,0.0,0.0,0.0,0.0,0.0,0.0,0.0,0.0,0.0,0.0,0.0,0.0,0.0,0.0,0.0,0.0,0.0,0.0,0.0,0.0,0.0,0.0,0.0,0.0,0.0,0.0,0.0,0.0,0.0,0.0,0.0,0.0,0.0,0.0,0.0,0.0,0.0,0.0,0.0,0.0,0.0,0.0,0.0,-3.9222,-4.0619,-4.1518,-4.2224,-4.2099,-4.1043,0.0,0.0,0.0,0.0,0.0,0.0,0.0,0.0,0.0,0.0,0.0,0.0,0.0,0.0,0.0,0.0,0.0,0.0,0.0,0.0,0.0,0.0,0.0,0.0,0.0,0.0,0.0,0.0,0.0,0.0,0.0,0.0,0.0,0.0,0.0,0.0,0.0,0.0,0.0,0.0,0.0,0.0,0.0,0.0,0.0,0.0,0.0,0.0,0.0,0.0,0.0,0.0,0.0,0.0,0.0,0.0,0.0,0.0,0.0,0.0,0.0,0.0,0.0,0.0,0.0,0.0,0.0,0.0,0.0,0.0,0.0,0.0,0.0,0.0,0.0,0.0,0.0,0.0,0.0,0.0,0.0,0.0,0.0,0.0,0.0,0.0,0.0,0.0,0.0,0.0,0.0,0.0,0.0,0.0,0.0,0.0,0.0,0.0,0.0,0.0,0.0,0.0,0.0,0.0,0.0,0.0,0.0,0.0,-3.8209,-3.9032,-4.0274,-4.2075,-4.1959,-4.1348,0.0,0.0,0.0,0.0,0.0,0.0,0.0,0.0,0.0,0.0,0.0,0.0,0.0,0.0,0.0,0.0,0.0,0.0,0.0,0.0,0.0,0.0,0.0,0.0,0.0,0.0,0.0,0.0,0.0,0.0,0.0,0.0,0.0,0.0,0.0,0.0,0.0,0.0,0.0,0.0,0.0,0.0,0.0,0.0,0.0,0.0,0.0,0.0,0.0,0.0,0.0,0.0,0.0,0.0,0.0,0.0,0.0,0.0,0.0,0.0,0.0,0.0,0.0,0.0,0.0,0.0,0.0,0.0,0.0,0.0,0.0,0.0,0.0,0.0,0.0,0.0,0.0,0.0,0.0,0.0,0.0,0.0,0.0,0.0,0.0,0.0,0.0,0.0,0.0,0.0,0.0,0.0,0.0,0.0,0.0,0.0,0.0,0.0,0.0,0.0,0.0,0.0,0.0,0.0,0.0,0.0,0.0,0.0,0.0,-3.8277,-3.9914,-4.1179,-4.2143,-4.194,-4.1278,0.0,0.0,0.0,0.0,0.0,0.0,0.0,0.0,0.0,0.0,0.0,0.0,0.0,0.0,0.0,0.0,0.0,0.0,0.0,0.0,0.0,0.0,0.0,0.0,0.0,0.0,0.0,0.0,0.0,0.0,0.0,0.0,0.0,0.0,0.0,0.0,0.0,0.0,0.0,0.0,0.0,0.0,0.0,0.0,0.0,0.0,0.0,0.0,0.0,0.0,0.0,0.0,0.0,0.0,0.0,0.0,0.0,0.0,0.0,0.0,0.0,0.0,0.0,0.0,0.0,0.0,0.0,0.0,0.0,0.0,0.0,0.0,0.0,0.0,0.0,0.0,0.0,0.0,0.0,0.0,0.0,0.0,0.0,0.0,0.0,0.0,0.0,0.0,0.0,0.0,0.0,0.0,0.0,0.0,0.0,0.0,0.0,0.0,0.0,0.0,0.0,0.0,0.0,0.0,0.0,0.0,0.0,0.0,0.0,-3.9062,0.0,-4.1944,-4.1859,-4.1895,-4.1147,0.0,0.0,0.0,0.0,0.0,0.0,0.0,0.0,0.0,0.0,0.0,0.0,0.0,0.0,0.0,0.0,0.0,0.0,0.0,0.0,0.0,0.0,0.0,0.0,0.0,0.0,0.0,0.0,0.0,0.0,0.0,0.0,0.0,0.0,0.0,0.0,0.0,0.0,0.0,0.0,0.0,0.0,0.0,0.0,0.0,0.0,0.0,0.0,0.0,0.0,0.0,0.0,0.0,0.0,0.0,0.0,0.0,0.0,0.0,0.0,0.0,0.0,0.0,0.0,0.0,0.0,0.0,0.0,0.0,0.0,0.0,0.0,0.0,0.0,0.0,0.0,0.0,0.0,0.0,0.0,0.0,0.0,0.0,0.0,0.0,0.0,0.0,0.0,0.0,0.0,0.0,0.0,0.0,0.0,0.0,0.0,0.0,0.0,0.0,0.0,0.0,0.0,0.0,0.0,0.0,0.0,0.0,0.0,-3.7551,-4.0592,-4.2112,-4.2363,-4.1301,-4.1791,-4.0841,0.0,0.0,0.0,0.0,0.0,0.0,0.0,0.0,0.0,0.0,0.0,0.0,0.0,0.0,0.0,0.0,0.0,0.0,0.0,0.0,0.0,0.0,0.0,0.0,0.0,0.0,0.0,0.0,0.0,0.0,0.0,0.0,0.0,0.0,0.0,0.0,0.0,0.0,0.0,0.0,0.0,0.0,0.0,0.0,0.0,0.0,0.0,0.0,0.0,0.0,0.0,0.0,0.0,0.0,0.0,0.0,0.0,0.0,0.0,0.0,0.0,0.0,0.0,0.0,0.0,0.0,0.0,0.0,0.0,0.0,0.0,0.0,0.0,0.0,0.0,0.0,0.0,0.0,0.0,0.0,0.0,0.0,0.0,0.0,0.0,0.0,0.0,0.0,0.0,0.0,0.0,0.0,0.0,0.0,0.0,0.0,0.0,0.0,0.0,0.0,0.0,0.0,0.0,0.0,0.0,0.0,0.0,0.0,0.0,-4.0811,-4.2239,-4.2721,-4.2247,-4.1685,-4.0707,0.0,0.0,0.0,0.0,0.0,0.0,0.0,0.0,0.0,0.0,0.0,0.0,0.0,0.0,0.0,0.0,0.0,0.0,0.0,0.0,0.0,0.0,0.0,0.0,0.0,0.0,0.0,0.0,0.0,0.0,0.0,0.0,0.0,0.0,0.0,0.0,0.0,0.0,0.0,0.0,0.0,0.0,0.0,0.0,0.0,0.0,0.0,0.0,0.0,0.0,0.0,0.0,0.0,0.0,0.0,0.0,0.0,0.0,0.0,0.0,0.0,0.0,0.0,0.0,0.0,0.0,0.0,0.0,0.0,0.0,0.0,0.0,0.0,0.0,0.0,0.0,0.0,0.0,0.0,0.0,0.0,0.0,0.0,0.0,0.0,0.0,0.0,0.0,0.0,0.0,0.0,0.0,0.0,0.0,0.0,0.0,0.0,0.0,0.0,0.0,0.0,0.0,0.0,0.0,0.0,0.0,0.0,0.0,0.0,-4.3268,-4.3743,-4.3893,-4.3675,-4.2675,-4.1223,-3.9305,0.0,0.0,0.0,0.0,0.0,0.0,0.0,0.0,0.0,0.0,0.0,0.0,0.0,0.0,0.0,0.0,0.0,0.0,0.0,0.0,0.0,0.0,0.0,0.0,0.0,0.0,0.0,0.0,0.0,0.0,0.0,0.0,0.0,0.0,0.0,0.0,0.0,0.0,0.0,0.0,0.0,0.0,0.0,0.0,0.0,0.0,0.0,0.0,0.0,0.0,0.0,0.0,0.0,0.0,0.0,0.0,0.0,0.0,0.0,0.0,0.0,0.0,0.0,0.0,0.0,0.0,0.0,0.0,0.0,0.0,0.0,0.0,0.0,0.0,0.0,0.0,0.0,0.0,0.0,0.0,0.0,0.0,0.0,0.0,0.0,0.0,0.0,0.0,0.0,0.0,0.0,0.0,0.0,0.0,0.0,0.0,0.0,0.0,0.0,0.0,0.0,0.0,0.0,0.0,0.0,0.0,0.0,0.0,-4.7417,-4.6539,-4.5929,-4.5543,-4.4578,-4.2368,0.0,0.0,0.0,0.0,0.0,0.0,0.0,0.0,0.0,0.0,0.0,0.0,0.0,0.0,0.0,0.0,0.0,0.0,0.0,0.0,0.0,0.0,0.0,0.0,0.0,0.0,0.0,0.0,0.0,0.0,0.0,0.0,0.0,0.0,0.0,0.0,0.0,0.0,0.0,0.0,0.0,0.0,0.0,0.0,0.0,0.0,0.0,0.0,0.0,0.0,0.0,0.0,0.0,0.0,0.0,0.0,0.0,0.0,0.0,0.0,0.0,0.0,0.0,0.0,0.0,0.0,0.0,0.0,0.0,0.0,0.0,0.0,0.0,0.0,0.0,0.0,0.0,0.0,0.0,0.0,0.0,0.0,0.0,0.0,0.0,0.0,0.0,0.0,0.0,0.0,0.0,0.0,0.0,0.0,0.0,0.0,0.0,0.0,0.0,0.0,0.0,0.0,0.0,0.0,0.0,0.0,0.0,0.0,0.0,-4.9129,-5.0157,-4.9888,-4.8289,-4.6722,-4.4244,0.0,0.0,0.0,0.0,0.0,0.0,0.0,0.0,0.0,0.0,0.0,0.0,0.0,0.0,0.0,0.0,0.0,0.0,0.0,0.0,0.0,0.0,0.0,0.0,0.0,0.0,0.0,0.0,0.0,0.0,0.0,0.0,0.0,0.0,0.0,0.0,0.0,0.0,0.0,0.0,0.0,0.0,0.0,0.0,0.0,0.0,0.0,0.0,0.0,0.0,0.0,0.0,0.0,0.0,0.0,0.0,0.0,0.0,0.0,0.0,0.0,0.0,0.0,0.0,0.0,0.0,0.0,0.0,0.0,0.0,0.0,0.0,0.0,0.0,0.0,0.0,0.0,0.0,0.0,0.0,0.0,0.0,0.0,0.0,0.0,0.0,0.0,0.0,0.0,0.0,0.0,0.0,0.0,0.0,0.0,0.0,0.0,0.0,0.0,0.0,0.0,0.0,0.0,0.0,0.0,0.0,0.0,0.0,-4.8493,-5.0948,-5.2619,-5.2722,-5.1097,-4.8576,-4.5592,0.0,0.0,0.0,0.0,0.0,0.0,0.0,0.0,0.0,0.0,0.0,0.0,0.0,0.0,0.0,0.0,0.0,0.0,0.0,0.0,0.0,0.0,0.0,0.0,0.0,0.0,0.0,0.0,0.0,0.0,0.0,0.0,0.0,0.0,0.0,0.0,0.0,0.0,0.0,0.0,0.0,0.0,0.0,0.0,0.0,0.0,0.0,0.0,0.0,0.0,0.0,0.0,0.0,0.0,0.0,0.0,0.0,0.0,0.0,0.0,0.0,0.0,0.0,0.0,0.0,0.0,0.0,0.0,0.0,0.0,0.0,0.0,0.0,0.0,0.0,0.0,0.0,0.0,0.0,0.0,0.0,0.0,0.0,0.0,0.0,0.0,0.0,0.0,0.0,0.0,0.0,0.0,0.0,0.0,0.0,0.0,0.0,0.0,0.0,0.0,0.0,0.0,0.0,0.0,0.0,0.0,0.0,0.0,-5.0093,-5.2464,-5.4233,-5.4608,-5.3487,-5.0179,-4.6692,0.0,0.0,0.0,0.0,0.0,0.0,0.0,0.0,0.0,0.0,0.0,0.0,0.0,0.0,0.0,0.0,0.0,0.0,0.0,0.0,0.0,0.0,0.0,0.0,0.0,0.0,0.0,0.0,0.0,0.0,0.0,0.0,0.0,0.0,0.0,0.0,0.0,0.0,0.0,0.0,0.0,0.0,0.0,0.0,0.0,0.0,0.0,0.0,0.0,0.0,0.0,0.0,0.0,0.0,0.0,0.0,0.0,0.0,0.0,0.0,0.0,0.0,0.0,0.0,0.0,0.0,0.0,0.0,0.0,0.0,0.0,0.0,0.0,0.0,0.0,0.0,0.0,0.0,0.0,0.0,0.0,0.0,0.0,0.0,0.0,0.0,0.0,0.0,0.0,0.0,0.0,0.0,0.0,0.0,0.0,0.0,0.0,0.0,0.0,0.0,0.0,0.0,0.0,0.0,0.0,0.0,0.0,0.0,-5.0715,-5.2561,-5.4879,-5.5333,-5.3683,-5.1471,-4.8343,0.0,0.0,0.0,0.0,0.0,0.0,0.0,0.0,0.0,0.0,0.0,0.0,0.0,0.0,0.0,0.0,0.0,0.0,0.0,0.0,0.0,0.0,0.0,0.0,0.0,0.0,0.0,0.0,0.0,0.0,0.0,0.0,0.0,0.0,0.0,0.0,0.0,0.0,0.0,0.0,0.0,0.0,0.0,0.0,0.0,0.0,0.0,0.0,-3.7622,0.0,0.0,0.0,0.0,0.0,0.0,0.0,0.0,0.0,0.0,0.0,0.0,0.0,0.0,0.0,0.0,0.0,0.0,0.0,0.0,0.0,0.0,0.0,0.0,0.0,0.0,0.0,0.0,0.0,0.0,0.0,0.0,0.0,0.0,0.0,0.0,0.0,0.0,0.0,0.0,0.0,0.0,0.0,0.0,0.0,0.0,0.0,0.0,0.0,0.0,0.0,0.0,0.0,0.0,0.0,0.0,0.0,0.0,0.0,-5.0713,-5.2013,-5.45,-5.4967,-5.3172,-5.1761,-4.9171,0.0,0.0,0.0,0.0,0.0,0.0,0.0,0.0,0.0,0.0,0.0,0.0,0.0,0.0,0.0,0.0,0.0,0.0,0.0,0.0,0.0,0.0,0.0,0.0,0.0,0.0,0.0,0.0,0.0,0.0,0.0,0.0,0.0,0.0,0.0,0.0,0.0,0.0,0.0,0.0,0.0,0.0,0.0,0.0,0.0,0.0,0.0,0.0,0.0,0.0,0.0,0.0,0.0,0.0,0.0,0.0,0.0,0.0,0.0,0.0,0.0,0.0,0.0,0.0,0.0,0.0,0.0,0.0,0.0,0.0,0.0,0.0,0.0,0.0,0.0,0.0,0.0,0.0,0.0,0.0,0.0,0.0,0.0,0.0,0.0,0.0,0.0,0.0,0.0,0.0,0.0,0.0,0.0,0.0,0.0,0.0,0.0,0.0,0.0,0.0,0.0,0.0,0.0,0.0,0.0,0.0,0.0,-4.831,-5.0488,-5.1359,-5.3718,-5.4216,-5.2553,-5.1525,-4.9373,-4.5951,0.0,0.0,0.0,0.0,0.0,0.0,0.0,0.0,0.0,0.0,0.0,0.0,0.0,0.0,0.0,0.0,0.0,0.0,0.0,0.0,0.0,0.0,0.0,0.0,0.0,0.0,0.0,0.0,0.0,0.0,0.0,0.0,0.0,0.0,0.0,0.0,0.0,0.0,-3.867,-4.1072,0.0,0.0,0.0,0.0,0.0,0.0,0.0,0.0,-4.1535,0.0,0.0,0.0,0.0,0.0,0.0,0.0,0.0,0.0,0.0,0.0,0.0,0.0,0.0,0.0,0.0,0.0,0.0,0.0,0.0,0.0,0.0,0.0,0.0,0.0,0.0,0.0,0.0,0.0,0.0,0.0,0.0,0.0,0.0,0.0,0.0,0.0,0.0,0.0,0.0,0.0,0.0,0.0,0.0,0.0,0.0,0.0,0.0,0.0,0.0,0.0,0.0,0.0,0.0,0.0,0.0,-4.4796,-4.8252,-5.0439,-5.1385,-5.3178,-5.3627,-5.2586,-5.0986,-4.8823,-4.61,0.0,0.0,0.0,0.0,0.0,0.0,0.0,0.0,0.0,0.0,0.0,0.0,0.0,0.0,0.0,0.0,0.0,0.0,0.0,0.0,0.0,0.0,0.0,0.0,0.0,0.0,0.0,0.0,0.0,0.0,0.0,0.0,0.0,0.0,0.0,0.0,0.0,0.0,0.0,-4.3261,-4.4451,0.0,0.0,0.0,0.0,0.0,0.0,0.0,0.0,-4.1756,0.0,0.0,0.0,0.0,0.0,0.0,0.0,0.0,0.0,0.0,0.0,0.0,0.0,0.0,0.0,0.0,0.0,0.0,0.0,0.0,0.0,0.0,0.0,0.0,0.0,0.0,0.0,0.0,0.0,0.0,0.0,0.0,0.0,0.0,0.0,0.0,0.0,0.0,0.0,0.0,0.0,0.0,0.0,0.0,0.0,0.0,0.0,0.0,0.0,0.0,0.0,0.0,0.0,0.0,0.0,-4.4156,-4.715,-4.8917,-4.9391,-5.105,-5.1517,-5.0664,-4.9767,-4.8133,0.0,0.0,0.0,0.0,0.0,0.0,0.0,0.0,0.0,0.0,0.0,0.0,0.0,0.0,0.0,0.0,0.0,0.0,0.0,0.0,0.0,0.0,0.0,0.0,0.0,0.0,0.0,0.0,0.0,0.0,0.0,0.0,0.0,0.0,0.0,0.0,0.0,0.0,0.0,0.0,-4.5108,-4.6185,-4.6159,0.0,0.0,0.0,0.0,0.0,0.0,-4.4388,-4.3897,0.0,0.0,0.0,0.0,0.0,0.0,0.0,0.0,0.0,0.0,0.0,0.0,0.0,0.0,0.0,0.0,0.0,0.0,0.0,0.0,0.0,0.0,0.0,0.0,0.0,0.0,0.0,0.0,0.0,0.0,0.0,0.0,0.0,0.0,0.0,0.0,0.0,0.0,0.0,0.0,0.0,0.0,0.0,0.0,0.0,0.0,0.0,0.0,0.0,0.0,0.0,0.0,0.0,0.0,0.0,-4.3493,-4.6125,-4.7482,-4.7556,-4.9022,-4.9507,-4.8825,-4.8472,-4.7212,0.0,0.0,0.0,0.0,0.0,0.0,0.0,0.0,0.0,0.0,0.0,0.0,0.0,0.0,0.0,0.0,0.0,0.0,0.0,0.0,0.0,0.0,0.0,0.0,0.0,0.0,0.0,0.0,0.0,0.0,0.0,0.0,0.0,0.0,0.0,0.0,0.0,0.0,0.0,0.0,0.0,-4.7795,-4.8116,-4.7359,0.0,0.0,0.0,0.0,-4.603,-4.624,0.0,0.0,0.0,0.0,0.0,0.0,0.0,0.0,0.0,0.0,0.0,0.0,0.0,0.0,0.0,0.0,0.0,0.0,0.0,0.0,0.0,0.0,0.0,0.0,0.0,0.0,0.0,0.0,0.0,0.0,0.0,0.0,0.0,0.0,0.0,0.0,0.0,0.0,0.0,0.0,0.0,0.0,0.0,0.0,0.0,0.0,0.0,0.0,0.0,0.0,0.0,0.0,0.0,0.0,0.0,0.0,-4.3432,-4.606,-4.7458,-4.7543,-4.8436,-4.8904,-4.8785,-4.7305,-4.6041,0.0,0.0,0.0,0.0,0.0,0.0,0.0,0.0,0.0,0.0,0.0,0.0,0.0,0.0,0.0,0.0,0.0,0.0,0.0,0.0,0.0,0.0,0.0,0.0,0.0,0.0,0.0,0.0,0.0,0.0,0.0,0.0,0.0,0.0,0.0,0.0,0.0,0.0,0.0,0.0,0.0,-4.9077,-5.0552,-4.9959,-4.9298,0.0,0.0,-4.7151,-4.7782,-4.7213,0.0,0.0,0.0,0.0,0.0,0.0,0.0,0.0,0.0,0.0,0.0,0.0,0.0,0.0,0.0,0.0,0.0,0.0,0.0,0.0,0.0,0.0,0.0,0.0,0.0,0.0,0.0,0.0,0.0,0.0,0.0,0.0,0.0,0.0,0.0,0.0,0.0,0.0,0.0,0.0,0.0,0.0,0.0,0.0,0.0,0.0,0.0,0.0,0.0,0.0,0.0,0.0,0.0,0.0,0.0,-4.1042,-4.3307,-4.5041,-4.618,-4.6679,-4.7108,-4.732,-4.7319,-4.6133,-4.49,0.0,0.0,0.0,0.0,0.0,0.0,0.0,0.0,0.0,0.0,0.0,0.0,0.0,0.0,0.0,0.0,0.0,0.0,0.0,0.0,0.0,0.0,0.0,0.0,0.0,0.0,0.0,0.0,0.0,0.0,0.0,0.0,0.0,0.0,0.0,0.0,0.0,0.0,0.0,0.0,0.0,0.0,-5.1511,-5.0684,0.0,0.0,0.0,-4.8623,-4.8885,0.0,0.0,0.0,0.0,0.0,0.0,0.0,0.0,0.0,0.0,0.0,0.0,0.0,0.0,0.0,0.0,0.0,0.0,0.0,0.0,0.0,0.0,0.0,0.0,0.0,0.0,0.0,0.0,0.0,0.0,0.0,0.0,0.0,0.0,0.0,0.0,0.0,0.0,0.0,0.0,0.0,0.0,0.0,0.0,0.0,0.0,0.0,0.0,0.0,0.0,0.0,0.0,0.0,0.0,0.0,0.0,0.0,-4.3228,-4.4264,-4.5187,-4.6041,-4.6126,-4.6059,-4.5835,-4.5052,0.0,0.0,0.0,0.0,0.0,0.0,0.0,0.0,0.0,0.0,0.0,0.0,0.0,0.0,0.0,0.0,0.0,0.0,0.0,0.0,0.0,0.0,0.0,0.0,0.0,0.0,0.0,-3.5834,0.0,0.0,0.0,0.0,0.0,0.0,0.0,0.0,0.0,0.0,0.0,0.0,0.0,0.0,-4.8529,-5.1643,-5.1133,-5.062,0.0,0.0,-4.9818,-4.9556,-4.8707,-4.7404,0.0,0.0,0.0,0.0,0.0,0.0,0.0,0.0,0.0,0.0,0.0,0.0,0.0,0.0,0.0,0.0,0.0,0.0,0.0,0.0,0.0,0.0,0.0,0.0,0.0,0.0,0.0,0.0,0.0,0.0,0.0,0.0,0.0,0.0,0.0,0.0,0.0,0.0,0.0,0.0,0.0,0.0,0.0,0.0,0.0,0.0,0.0,0.0,0.0,0.0,0.0,0.0,0.0,0.0,-4.0511,-4.3129,-4.4137,-4.5051,-4.5963,-4.6018,-4.5659,-4.4917,-4.4055,-4.2851,0.0,0.0,0.0,0.0,0.0,0.0,0.0,0.0,0.0,0.0,0.0,0.0,0.0,0.0,0.0,0.0,0.0,0.0,0.0,0.0,0.0,0.0,0.0,0.0,0.0,0.0,0.0,0.0,0.0,0.0,0.0,0.0,0.0,0.0,0.0,0.0,0.0,0.0,0.0,0.0,0.0,-4.8314,-5.0831,-5.1722,-5.2128,0.0,-5.137,-5.0534,-4.9702,-4.8844,-4.7422,-4.4892,0.0,0.0,0.0,0.0,0.0,0.0,0.0,0.0,0.0,0.0,0.0,0.0,0.0,0.0,0.0,0.0,0.0,0.0,0.0,0.0,0.0,0.0,0.0,0.0,0.0,0.0,0.0,0.0,0.0,0.0,0.0,0.0,0.0,0.0,0.0,0.0,0.0,0.0,0.0,0.0,0.0,0.0,0.0,0.0,0.0,0.0,0.0,0.0,0.0,0.0,0.0,0.0,0.0,-3.92,-4.2267,-4.3276,-4.4163,-4.4995,-4.5608,-4.5506,-4.4626,-4.3845,-4.2408,0.0,0.0,0.0,0.0,0.0,0.0,0.0,0.0,0.0,0.0,0.0,0.0,0.0,0.0,0.0,0.0,0.0,0.0,0.0,0.0,0.0,0.0,0.0,0.0,0.0,0.0,0.0,0.0,-3.5929,-3.5942,-3.5995,0.0,0.0,0.0,0.0,0.0,0.0,0.0,0.0,0.0,0.0,-4.8306,-5.0738,-5.0875,0.0,0.0,-5.0596,-4.9421,-4.9575,-4.8446,-4.6847,-4.4739,-4.3725,0.0,0.0,0.0,0.0,0.0,0.0,0.0,0.0,0.0,0.0,0.0,0.0,0.0,0.0,0.0,0.0,0.0,0.0,0.0,0.0,0.0,0.0,0.0,0.0,0.0,0.0,0.0,0.0,0.0,0.0,0.0,0.0,0.0,0.0,0.0,0.0,0.0,0.0,0.0,0.0,0.0,0.0,0.0,0.0,0.0,0.0,0.0,0.0,0.0,0.0,0.0,0.0,-3.8466,-4.1349,-4.2291,-4.3293,-4.4338,-4.4834,-4.4742,-4.4098,-4.333,-4.1851,0.0,0.0,0.0,0.0,0.0,0.0,0.0,0.0,0.0,0.0,0.0,0.0,0.0,0.0,0.0,0.0,0.0,0.0,0.0,0.0,0.0,0.0,0.0,0.0,0.0,0.0,0.0,0.0,-3.5914,-3.596,-3.599,0.0,0.0,0.0,0.0,0.0,0.0,0.0,0.0,0.0,0.0,-4.7713,-4.9671,-4.9582,-4.9713,-5.0875,-4.9552,-4.8519,-4.8798,-4.7851,-4.6406,-4.4399,0.0,0.0,0.0,0.0,0.0,0.0,0.0,0.0,0.0,0.0,0.0,0.0,0.0,0.0,0.0,0.0,0.0,0.0,0.0,0.0,0.0,0.0,0.0,0.0,0.0,0.0,0.0,-3.4026,0.0,0.0,-3.2916,0.0,0.0,0.0,0.0,0.0,0.0,0.0,0.0,0.0,0.0,0.0,0.0,0.0,0.0,0.0,0.0,0.0,0.0,0.0,0.0,0.0,0.0,-3.8629,-4.0424,-4.1338,-4.2571,-4.4182,-4.3564,-4.3184,-4.3119,-4.2291,-4.107,-3.945,0.0,0.0,0.0,0.0,0.0,0.0,0.0,0.0,0.0,0.0,0.0,0.0,0.0,0.0,0.0,0.0,0.0,0.0,0.0,0.0,0.0,0.0,0.0,0.0,0.0,0.0,-3.5885,-3.5958,-3.5988,0.0,0.0,0.0,0.0,0.0,0.0,0.0,0.0,0.0,0.0,-4.5053,-4.6435,-4.727,-4.7947,-4.8396,-4.8515,-4.8411,-4.8082,-4.7308,-4.7115,-4.6245,0.0,0.0,0.0,0.0,0.0,0.0,0.0,0.0,0.0,0.0,0.0,0.0,0.0,0.0,0.0,0.0,0.0,0.0,0.0,0.0,0.0,0.0,0.0,0.0,0.0,0.0,0.0,-3.4641,-3.4673,0.0,0.0,0.0,0.0,0.0,0.0,0.0,0.0,0.0,0.0,0.0,-3.6651,-3.6225,0.0,0.0,0.0,0.0,0.0,0.0,0.0,0.0,0.0,0.0,0.0,0.0,-3.8034,-4.0184,-4.1222,-4.1967,-4.2486,-4.2809,-4.2684,-4.212,-4.1863,-4.0974,-3.9378,0.0,0.0,0.0,0.0,0.0,0.0,0.0,0.0,0.0,0.0,0.0,0.0,0.0,0.0,0.0,0.0,0.0,0.0,0.0,0.0,0.0,0.0,0.0,0.0,0.0,-3.5864,0.0,0.0,0.0,0.0,0.0,0.0,0.0,0.0,0.0,0.0,0.0,-4.1512,-4.2645,-4.425,-4.539,-4.5604,-4.5817,-4.6319,0.0,0.0,0.0,0.0,0.0,0.0,0.0,0.0,0.0,0.0,0.0,0.0,0.0,0.0,-4.0119,-3.9142,-3.7966,-3.71,-3.7045,0.0,0.0,0.0,0.0,0.0,0.0,0.0,0.0,0.0,0.0,0.0,0.0,0.0,0.0,-3.5168,0.0,-3.4553,0.0,0.0,0.0,0.0,0.0,0.0,0.0,0.0,-3.6463,-3.7033,-3.7571,-3.7454,-3.7604,0.0,-3.7305,-3.65,0.0,0.0,0.0,0.0,0.0,0.0,0.0,0.0,-3.7641,-3.9242,-4.052,-4.1265,-4.1533,-4.1819,-4.1838,-4.1561,-4.1337,-4.0581,-3.9273,-3.8211,-3.7398,0.0,0.0,0.0,0.0,0.0,0.0,0.0,0.0,0.0,0.0,0.0,0.0,0.0,0.0,0.0,0.0,0.0,0.0,0.0,0.0,0.0,0.0,0.0,-3.5834,0.0,0.0,0.0,0.0,0.0,0.0,0.0,0.0,0.0,-3.9882,-4.0878,-4.1747,-4.2341,-4.357,-4.4416,-4.4392,0.0,0.0,0.0,0.0,0.0,0.0,0.0,-4.404,-4.3743,-4.3227,-4.2737,-4.2362,-4.2635,-4.2794,-4.2345,0.0,0.0,-4.0302,-3.8917,-3.7896,-3.7841,-3.7697,-3.7588,-3.7588,-3.7567,-3.7541,0.0,0.0,0.0,0.0,0.0,0.0,0.0,0.0,-3.5879,-3.5762,0.0,-3.5146,0.0,0.0,0.0,0.0,0.0,-3.5989,0.0,0.0,-3.8115,-3.8903,-3.9029,-3.9895,-3.9968,-3.9247,-3.8604,-3.7965,-3.732,-3.6224,0.0,0.0,0.0,0.0,0.0,0.0,-3.7517,-3.7679,-3.9277,-4.0517,-4.1292,-4.0606,-4.0597,-4.1371,-4.0691,-3.9924,-3.9174,-3.9122,-3.8457,-3.6954,-3.6826,0.0,0.0,0.0,0.0,0.0,0.0,0.0,0.0,0.0,0.0,0.0,0.0,0.0,0.0,0.0,0.0,0.0,0.0,0.0,0.0,-3.577,0.0,0.0,0.0,0.0,0.0,0.0,0.0,0.0,0.0,0.0,-3.9979,-4.1327,-4.2354,-4.2329,0.0,0.0,0.0,0.0,-4.3397,-4.3402,-4.3363,-4.3354,-4.3362,-4.3292,-4.2995,-4.2222,0.0,0.0,-4.088,-4.1981,-4.2687,-4.1656,-4.1354,-4.1157,-4.1024,-4.0059,-3.9356,-3.9311,-3.9117,-3.9078,-3.9064,-3.8915,-3.8971,-4.0742,0.0,0.0,0.0,0.0,-3.7486,-3.7452,-3.729,-3.7325,-3.7192,-3.688,-3.6238,0.0,0.0,0.0,0.0,0.0,0.0,-3.6969,-3.8112,-3.8612,-3.9399,-4.0435,-4.0171,-4.0282,-4.0646,-3.941,-3.8757,-3.8692,-3.7961,-3.7072,-3.6031,0.0,0.0,0.0,0.0,-3.7832,-3.9017,-3.9654,-4.0087,-4.0317,-4.0108,-4.0119,-4.0349,-4.0131,-3.9913,-3.9658,-3.9166,-3.8716,-3.831,-3.7241,0.0,0.0,0.0,0.0,0.0,0.0,0.0,0.0,0.0,0.0,0.0,0.0,0.0,0.0,0.0,0.0,0.0,0.0,0.0,-3.5566,-3.5683,-3.5737,0.0,0.0,0.0,0.0,0.0,0.0,0.0,0.0,0.0,-4.076,-4.1172,-4.1481,0.0,0.0,-4.1804,-4.1818,-4.1772,-4.1909,-4.2464,0.0,0.0,0.0,-4.2853,-4.255,-4.286,-4.2891,-4.2767,-4.2507,-4.2792,-4.2972,-4.2582,-4.1925,-4.1357,-4.113,-4.0224,-3.947,-3.9296,-3.9197,-3.9137,-3.9115,-3.9101,-3.9101,-4.1703,-4.0337,-3.9681,-3.8858,-3.7989,-3.8093,-3.7845,-3.7376,-3.7597,-3.7608,-3.745,-3.6794,-3.6448,-3.6296,-3.5877,0.0,0.0,0.0,-3.7787,-3.8826,-3.945,-4.0217,-4.1056,-4.0913,-4.0971,-4.1155,-3.9997,-3.9337,-3.9139,-3.8534,-3.7906,-3.7187,0.0,0.0,-3.751,-3.7424,-3.7945,-3.9031,-3.9484,-3.9743,-3.977,-3.9804,-3.9826,-3.9815,-3.9834,-3.9845,-3.9848,-3.944,-3.9095,-3.8822,-3.7649,-3.6859,0.0,0.0,0.0,0.0,0.0,0.0,0.0,0.0,0.0,0.0,0.0,-3.5469,-3.5509,0.0,0.0,0.0,-3.4738,-3.495,-3.5538,-3.5637,0.0,0.0,0.0,0.0,0.0,0.0,0.0,-3.986,-4.0593,-4.1105,-4.1108,-4.1112,-4.1113,-4.1112,-4.1107,-4.1099,-4.1106,0.0,-4.1203,-4.1675,-4.1723,-4.1883,-4.2322,-4.1947,-4.175,-4.2228,-4.2279,-4.224,-4.2219,-4.2177,-4.2117,-4.2,-4.1506,-4.1007,-4.0842,-4.0184,-3.9599,-3.9324,-3.9237,-3.917,-3.9115,-3.9101,-3.9101,-4.2481,-4.1675,-4.1281,-4.0287,-3.8979,-3.9002,-3.8294,-3.707,-3.7251,-3.7453,-3.7575,-3.7047,-3.7018,-3.7335,-3.7161,0.0,-3.7382,-3.824,-3.8781,-3.9021,-4.043,-4.1125,-4.1234,-4.1968,-4.1915,-4.1181,-4.0438,-3.9726,-3.8993,-3.8329,-3.8018,-3.8066,-3.7729,-3.7245,-3.6717,-3.7404,-3.7902,-3.815,-3.8956,-3.9414,-3.9539,-3.9611,-3.9647,-3.9628,-3.9628,-3.967,-3.9747,-3.9758,-3.9444,-3.8765,-3.7983,-3.7234,-3.6452,0.0,0.0,0.0,0.0,0.0,0.0,0.0,0.0,0.0,0.0,0.0,0.0,0.0,0.0,-3.5404,-3.5406,0.0,-3.5585,-3.5591,0.0,0.0,0.0,-3.7453,-3.8393,-3.9328,-3.9875,-3.9802,0.0,0.0,-4.0901,-4.0889,-4.0915,-4.0995,-4.1071,-4.1107,-4.1101,-4.1114,-4.1081,-4.1067,-4.1039,-4.0999,-4.1087,-4.0937,-4.0905,-4.0958,-4.0797,-4.0881,-4.0829,-4.0797,-4.0731,-4.0726,-4.0516,-4.04,-4.0251,-4.0128,-3.9854,-3.9401,-3.9255,-3.9197,-3.911,-3.9115,-3.9064,-4.3213,-4.2375,-4.2275,-4.1397,-4.0079,-3.9703,-3.9336,-3.8988,-3.8581,-3.8183,-3.7829,-3.7792,-3.7442,-3.691,-3.7535,-3.7789,-3.774,-3.8676,-3.9623,-4.0471,-4.0864,-4.1385,-4.2002,-4.2198,-4.2218,-4.1933,-4.0594,-3.99,-3.9744,-3.8438,-3.781,-3.7933,-3.7905,-3.7936,-3.7998,-3.768,-3.786,-3.8629,-3.89,-3.9031,-3.9078,-3.9106,-3.9129,-3.9165,-3.9165,-3.9192,-3.9277,-3.9363,-3.9346,-3.9127,-3.7928,-3.7149,-3.6933,-3.5388,0.0,0.0,0.0,0.0,0.0,0.0,0.0,0.0,0.0,-3.5346,-3.5398,0.0,-3.4507,0.0,-3.4501,-3.4796,-3.5469,-3.5522,0.0,0.0,-3.7506,-3.8302,-3.9291,-4.0182,-4.0487,-3.9861,-3.9977,-3.9854,-3.9208,-3.912,-3.9382,-4.0095,-4.0722,-4.1113,-4.111,-4.1102,-4.1112,-4.108,-4.102,-4.0983,-4.0952,-4.0877,-4.0769,-4.0797,-4.0777,-4.079,-4.0765,-4.0765,-4.0765,-4.068,-4.06,-4.0508,-4.0323,-4.0251,-3.9785,-3.9042,-3.9081,-3.9311,-3.921,-3.9124,-3.8915,-4.3069,-4.2602,-4.2602,-4.2133,-4.1403,-4.0797,-4.0206,-3.9588,-3.9267,-3.8792,-3.8199,-3.8068,-3.7618,-3.6978,-3.7642,-3.8009,-3.8187,-3.9215,-4.013,-4.094,-4.1298,-4.1774,-4.2308,-4.2308,-4.2109,-4.1716,-4.0503,-3.9791,-3.9473,-3.8276,-3.7721,-3.781,-3.7916,-3.807,-3.8267,-3.7961,-3.8086,-3.8667,-3.8725,-3.8773,-3.8807,-3.8788,-3.8803,-3.8848,-3.8844,-3.8888,-3.9003,-3.8734,-3.8611,-3.8628,-3.7218,-3.6391,-3.6372,-3.5229,-3.439,0.0,0.0,0.0,0.0,0.0,0.0,0.0,0.0,0.0,0.0,0.0,-3.4716,-3.473,-3.4736,-3.4948,-3.5462,-3.5482,-3.5868,-3.6774,-3.7268,-3.7962,-3.8913,-3.9489,-3.9625,-3.9227,-3.9169,-3.9015,-3.8575,-3.8514,-3.8684,-3.9205,-3.9699,-4.027,-4.0957,-4.1112,-4.1106,-4.1095,-4.1068,-4.0866,-4.0509,-4.0345,-4.0106,-3.9737,-3.9629,-3.9648,-3.9655,-3.9649,-3.9624,-3.958,-3.9554,-3.9488,-3.9376,-3.9268,-3.8932,-3.8471,-3.8358,-3.8399,-3.8239,-3.8117,-3.7915,-4.2683,-4.2602,-4.2602,-4.2602,-4.2538,-4.1873,-4.085,-3.9635,-3.9538,-3.9158,-3.8556,-3.815,-3.7699,-3.7277,-3.7759,-3.8177,-3.8574,-3.974,-4.0464,-4.0916,-4.1676,-4.2103,-4.2246,-4.2157,-4.1747,-4.1034,-4.016,-3.9413,-3.8771,-3.8043,-3.7685,-3.7685,-3.781,-3.7898,-3.7966,-3.8156,-3.8322,-3.8462,-3.8525,-3.8556,-3.8645,-3.8575,-3.859,-3.8643,-3.8499,-3.8484,-3.8652,-3.7903,-3.7567,-3.7622,-3.6272,-3.5454,-3.5454,-3.4752,-3.4374,0.0,-3.445,0.0,0.0,0.0,0.0,0.0,0.0,0.0,0.0,-3.5254,-3.5315,-3.5391,-3.5391,-3.5412,-3.5486,-3.5493,-3.5821,-3.6684,-3.6807,-3.7172,-3.8073,-3.8246,-3.8253,-3.8225,-3.8214,-3.8221,-3.8104,-3.8151,-3.8174,-3.831,-3.8438,-3.9032,-4.0367,-4.0683,-4.0663,-4.0771,-4.0776,-4.0306,-3.9707,-3.9483,-3.9195,-3.8445,-3.8346,-3.8219,-3.8301,-3.8295,-3.8257,-3.827,-3.833,-3.826,-3.8125,-3.8068,-3.7867,-3.7613,-3.7319,-3.71,-3.7078,-3.7019,-3.677,-4.3136,-4.2619,-4.2602,-4.2602,-4.2554,-4.1873,-4.1126,-4.027,-3.9748,-3.91,-3.8464,-3.833,-3.7986,-3.7556,-3.849,-3.8848,-3.8751,-4.0024,-4.0857,-4.1292,-4.1578,-4.1801,-4.2016,-4.1378,-4.0988,-4.0795,-3.9489,-3.8764,-3.8604,-3.7951,-3.7613,-3.7631,-3.7703,-3.7757,-3.7757,0.0,0.0,0.0,-3.8274,-3.8272,-3.829,-3.829,-3.8307,-3.8354,-3.7733,0.0,-3.7491,-3.6798,-3.6413,-3.6405,-3.5671,0.0,0.0,0.0,0.0,0.0,0.0,0.0,0.0,0.0,0.0,0.0,-3.4658,-3.4879,-3.5101,-3.5229,-3.53,-3.5308,-3.532,-3.5338,-3.5393,-3.5412,-3.5794,-3.6677,-3.6806,-3.7173,-3.8078,-3.8187,-3.799,-3.7346,-3.7259,-3.7007,-3.6413,-3.6362,-3.6665,-3.723,-3.75,-3.7943,-3.879,-3.9038,-3.9101,-3.9062,-3.9166,-3.8996,-3.8759,-3.8675,-3.8529,-3.8311,-3.8297,-3.8228,-3.8128,-3.8131,-3.8158,-3.8102,-3.8206,-3.8117,-3.8086,-3.8119,-3.7613,-3.6972,-3.6168,-3.5902,-3.6844,-3.6936,-3.6665,-4.2926,0.0,-4.2602,-4.2602,0.0,-4.1873,-4.1191,-4.0448,-3.9813,-3.9072,-3.8408,-3.8391,-3.8281,-3.8067,-3.8723,-3.905,-3.9091,-3.9868,-4.0524,-4.0972,-4.0763,-4.0849,-4.1133,-4.0324,-3.9802,-3.9435,-3.872,-3.8176,-3.7845,-3.7531,-3.7392,-3.7448,-3.7485,-3.7522,-3.7559,-3.7703,-3.7898,-3.8105,-3.8157,-3.8209,-3.8209,-3.8209,-3.8207,-3.8223,0.0,0.0,0.0,0.0,0.0,0.0,0.0,0.0,0.0,0.0,0.0,-3.3934,-3.3947,-3.3998,-3.4099,-3.4136,-3.4216,-3.4311,-3.4484,-3.471,-3.4983,-3.511,-3.517,-3.5215,-3.5234,-3.527,-3.5346,-3.5364,-3.5573,-3.6045,-3.6143,-3.6369,-3.6768,-3.6877,-3.6554,-3.5839,-3.5713,-3.5427,-3.4614,-3.4565,-3.4778,-3.519,-3.5351,-3.5562,-3.6077,-3.7524,-3.859,-3.8593,-3.853,-3.8336,-3.7948,-3.7842,-3.7589,-3.7263,-3.7094,-3.7038,-3.7027,-3.7007,-3.689,-3.6471,-3.6325,-3.6218,-3.5759,-3.5647,-3.545,-3.4937,-3.4393,-3.4159,-3.4785,-3.4706,-3.4532,-4.2508,-4.2492,-4.2508,-4.2523,-4.2506,-4.1713,-4.0901,-4.0075,0.0,0.0,0.0,-3.8391,-3.8464,-3.856,-3.8711,-3.8903,-3.9103,-3.9391,-3.9699,-4.0031,-3.9581,-3.956,-3.9878,-3.9133,-3.85,-3.7968,-3.7869,-3.7544,-3.7009,-3.7031,-3.7108,-3.722,-3.7239,-3.726,-3.7337,-3.7522,-3.7703,-3.788,-3.8037,-3.814,-3.8157,-3.8157,-3.8192,-3.8209,-3.7285,-3.681,-3.684,-3.5333,-3.4487,-3.4543,-3.3923,-3.3591,-3.3577,-3.3591,-3.3661,-3.3753,-3.3766,-3.382,-3.3921,-3.3947,-3.3949,-3.3969,-3.4123,-3.4392,-3.4831,-3.4936,-3.4983,-3.5048,-3.5126,-3.5127,-3.5062,-3.5101,-3.5096,-3.4969,-3.5004,-3.5026,-3.5046,-3.5053,-3.4815,-3.4193,-3.4168,-3.3925,-3.3356,-3.3328,-3.329,-3.3342,-3.3565,-3.3392,-3.3733,-3.5773,-3.7334,-3.7341,-3.7148,-3.7181,-3.6729,-3.642,-3.6222,-3.5578,-3.5413,-3.536,-3.536,-3.5348,-3.5047,-3.4463,-3.4197,-3.3979,-3.333,-3.3343,-3.3079,-3.3031,-3.2775,-3.2549,-3.2409,-3.2039,-3.2067,-4.2174,-4.2174,-4.2174,-4.227,-4.2348,-4.1028,-3.9812,-3.8715,-3.8602,-3.8489,-3.8408,-3.8391,-3.8391,-3.842,-3.856,-3.8368,-3.7978,-3.8268,-3.8245,0.0,-3.8055,-3.8233,-3.8379,-3.7841,-3.7499,-3.7383,-3.6949,-3.6689,-3.6606,-3.6753,-3.6856,-3.6893,-3.6989,-3.7046,-3.7085,-3.7259,-3.7372,-3.741,-3.7739,-3.7951,-3.8036,-3.8018,-3.8088,-3.8119,-3.6761,-3.5983,-3.5944,-3.444,-3.3589,-3.3586,-3.355,-3.3506,-3.3524,-3.3563,-3.3601,-3.3615,-3.3633,-3.3647,-3.3643,-3.3766,-3.3613,-3.3142,-3.311,-3.3582,-3.4622,-3.4798,-3.483,-3.486,-3.4917,-3.4732,-3.4148,-3.4143,-3.3938,-3.335,-3.3254,-3.3275,-3.3358,-3.3359,-3.332,-3.3203,-3.3199,-3.32,-3.3016,-3.3067,-3.3071,-3.3211,-3.3035,-3.3243,-3.3295,-3.3776,-3.4105,-3.4132,-3.4119,-3.4043,-3.4238,-3.3961,-3.4068,-3.3788,-3.3846,-3.3916,-3.3882,-3.3858,-3.3727,-3.3413,-3.3361,-3.3252,-3.303,-3.3117,-3.2956,-3.2847,-3.2347,-3.1821,-3.167,-3.1009,-3.0767,-4.2477,-4.2093,-4.2077,-4.1917,-4.1595,-4.0259,-3.9172,-3.831,-3.8363,-3.8391,-3.8391,-3.8391,-3.8391,-3.8391,-3.8464,-3.8154,-3.76,-3.7734,-3.7593,-3.7178,-3.6886,-3.6872,-3.6996,-3.6399,-3.6175,-3.6237,-3.6019,-3.598,-3.611,-3.622,-3.6326,-3.643,-3.6533,-3.665,-3.6748,-3.6834,-3.6952,-3.7046,-3.7503,-3.7757,-3.7792,-3.781,-3.7862,-3.7933,-3.6436,-3.564,-3.5622,-3.4107,-3.3241,-3.3226,-3.3271,-3.3268,-3.3268,-3.3393,-3.3433,-3.3477,-3.312,-3.2907,-3.2963,-3.2619,-3.2333,-3.2109,-3.2121,-3.2407,-3.303,-3.4011,-3.4435,-3.4086,-3.413,-3.3857,-3.3143,-3.316,-3.3088,-3.2749,-3.2793,-3.2842,-3.283,-3.2838,-3.2699,-3.2333,-3.2268,-3.2135,-3.1737,-3.1715,-3.1757,-3.1829,-3.1868,-3.191,-3.1957,-3.198,-3.2335,-3.3179,-3.3386,-3.3391,-3.3374,-3.3379,-3.3378,-3.3397,-3.3388,-3.3391,-3.3351,-3.3332,-3.3106,-3.2668,-3.2559,-3.231,-3.1919,-3.1733,-3.1748,-3.17,-3.1437,-3.1039,-3.0836,-3.0378,-3.0499,-4.2666,-4.198,-4.198,-4.1518,-4.0734,-3.9606,-3.8763,-3.8168,-3.8278,-3.8335,-3.8335,-3.8363,-3.8391,-3.8391,-3.8391,-3.7961,-3.7308,-3.7227,-3.6855,-3.6253,-3.5695,-3.5572,-3.571,-3.5243,-3.5095,-3.5218,-3.5264,-3.5402,-3.5583,-3.5644,-3.5761,-3.5941,-3.6049,-3.6174,-3.6356,-3.6426,-3.653,-3.667,-3.7106,-3.7373,-3.7485,-3.7541,-3.7506,-3.731,-3.6109,-3.5353,-3.5137,-3.3809,-3.3055,-3.3073,-3.3073,-3.3055,-3.3055,-3.3152,-3.3157,-3.3012,-3.2509,-3.2159,-3.2051,-3.1402,-3.1009,-3.109,-3.1121,-3.1207,-3.1448,-3.2792,-3.3538,-3.3139,-3.3112,-3.2863,-3.2222,-3.2177,-3.2167,-3.2031,-3.2115,-3.2087,-3.217,-3.2206,-3.1999,-3.1399,-3.1328,-3.1109,-3.0629,-3.0449,-3.0563,-3.0665,-3.0613,-3.0661,-3.0688,-3.0678,-3.1337,-3.2268,-3.2801,-3.2714,-3.2817,-3.2768,-3.2732,-3.285,-3.2773,-3.269,-3.2681,-3.2748,-3.2571,-3.187,-3.174,-3.1511,-3.0816,-3.0679,-3.0711,-3.0762,-3.067,-3.0543,-3.0436,-3.023,-3.0457,-4.2335,-4.1702,-4.1654,-4.0959,-3.991,-3.928,-3.8587,-3.8011,-3.8135,-3.8221,-3.8237,-3.8335,-3.8391,-3.8391,-3.8391,-3.7679,-3.6491,-3.6427,-3.5724,-3.4542,-3.4405,-3.4447,-3.4554,-3.4651,-3.4739,-3.4787,-3.4883,-3.4954,-3.5001,-3.5111,-3.5258,-3.543,-3.5492,-3.5622,-3.5844,-3.5975,-3.6105,-3.6251,-3.6343,-3.6655,-3.7127,-3.7166,-3.6925,-3.6434,-3.5581,-3.4849,-3.4273,-3.338,-3.2916,-3.2916,-3.2898,-3.2916,-3.2898,-3.2932,-3.2624,-3.2002,-3.1856,-3.1654,-3.1129,-3.0443,-3.0041,-3.0117,-3.0129,-3.0179,-3.0302,-3.1109,-3.1812,-3.1924,-3.208,-3.1809,-3.1128,-3.1101,-3.0918,-3.0431,-3.0413,-3.0346,-3.046,-3.0405,-3.0423,-3.0355,-3.0438,-3.0311,-3.0343,-3.0334,-3.0389,-3.0485,-3.0521,-3.0548,-3.061,-3.0622,-3.0649,-3.0978,-3.1047,-3.1133,-3.1204,-3.1118,-3.1339,-3.13,-3.1188,-3.1308,-3.1406,-3.1305,-3.1005,-3.1274,-3.1014,-3.092,-3.0814,-3.0665,-3.0621,-3.0591,-3.053,-3.0465,-3.0359,-3.0234,-3.0704,-4.2616,-4.1604,-4.1588,-4.0815,-3.9596,-3.8637,-3.8059,-3.7788,-3.7963,-3.802,-3.802,-3.8078,-3.8193,-3.8391,-3.8391,-3.7647,-3.6335,-3.6276,-3.5509,-3.4182,-3.4151,-3.4159,-3.4201,-3.43,-3.4399,-3.4472,-3.4521,-3.4578,-3.4667,-3.4787,-3.4906,-3.4984,-3.5142,-3.5304,-3.5481,-3.56,-3.5513,-3.5219,-3.5228,-3.5155,-3.5042,-3.5707,-3.5992,-3.5685,-3.469,-3.3988,-3.3653,-3.2963,-3.2538,-3.2556,-3.2538,-3.2344,-3.1918,-3.1998,-3.1738,-3.0968,-3.0624,-3.0134,-2.944,-2.9165,-2.9081,-2.9165,-2.9159,-2.9228,-2.9308,-2.9673,-2.9935,-3.0155,-3.0724,-3.0807,-3.0116,-3.0047,-2.9992,-2.9748,-2.9789,-2.9883,-2.9918,-2.9975,-3.0046,-3.0121,-3.0142,-3.0159,-3.0221,-3.0279,-3.0322,-3.0389,-3.0414,-3.0462,-3.0521,-3.0554,-3.0576,-3.0626,-3.0659,-3.0703,-3.0767,-3.081,-3.0838,-3.0861,-3.0868,-3.0894,-3.0858,-3.0859,-3.0859,-3.0792,-3.0795,-3.0788,-3.0786,-3.0717,-3.0668,-3.0606,-3.0544,-3.0476,-3.0442,-3.0336,-3.0762,-4.2732,-4.1503,-4.1111,-4.0402,-3.9345,-3.8169,-3.7612,-3.7596,-3.7759,-3.7801,-3.7756,-3.786,-3.8049,-3.825,-3.8307,-3.77,-3.6675,-3.6578,-3.5914,-3.4781,-3.47,-3.4603,-3.4408,-3.4392,-3.4329,-3.4258,-3.425,-3.43,-3.4399,-3.4497,-3.4546,-3.4618,-3.4787,-3.497,-3.5095,-3.5044,-3.4779,-3.4386,-3.4211,-3.3866,-3.3508,-3.4066,-3.4482,-3.4495,-3.3644,-3.3061,-3.2891,-3.2387,-3.2126,-3.2144,-3.1987,-3.162,-3.1113,-3.1034,-3.0672,-2.994,-2.9343,-2.8798,-2.8254,-2.8273,-2.8367,-2.8471,-2.851,-2.8562,-2.865,-2.87,-2.8749,-2.8907,-2.9542,-2.9758,-2.94,-2.9372,-2.9423,-2.9453,-2.9551,-2.9636,-2.9728,-2.9773,-2.9859,-2.9983,-2.9999,-3.0053,-3.0138,-3.0202,-3.0267,-3.0267,-3.0342,-3.0389,-3.0422,-3.0444,-3.0462,-3.0558,-3.0574,-3.0637,-3.075,-3.0806,-3.0799,-3.081,-3.0839,-3.0848,-3.0833,-3.0875,-3.0877,-3.0839,-3.0814,-3.08,-3.0771,-3.0752,-3.0707,-3.0626,-3.0563,-3.0511,-3.049,-3.0411,-3.0572,-4.2318,-4.1026,-3.9893,-3.9408,-3.922,-3.8004,-3.7405,-3.7254,-3.7537,-3.7612,-3.7476,-3.7727,-3.7905,-3.7934,-3.8078,-3.7846,-3.7279,-3.7198,-3.6778,-3.6108,-3.6108,-3.5801,-3.5179,-3.5146,-3.479,-3.4255,-3.4239,-3.4239,-3.4248,-3.4216,-3.4201,-3.439,-3.4505,-3.4562,-3.4707,-3.4313,-3.3948,-3.3968,-3.3444,-3.3091,-3.2995,-3.2458,-3.2343,-3.2556,-3.246,-3.22,-3.1806,-3.167,-3.1691,-3.1818,-3.1163,-3.0749,-3.0645,-3.0092,-2.9462,-2.8872,-2.827,-2.7949,-2.8,-2.8053,-2.8154,-2.8201,-2.8286,-2.8327,-2.8353,-2.8458,-2.8531,-2.863,-2.8772,-2.8943,-2.9141,-2.9171,-2.9235,-2.9291,-2.9363,-2.9443,-2.9512,-2.9569,-2.9683,-2.9782,-2.9834,-2.9893,-3.0007,-3.0128,-3.0192,-3.0213,-3.026,-3.0318,-3.031,-3.0303,-3.0369,-3.0469,-3.052,-3.0563,-3.0659,-3.0747,-3.0793,-3.0792,-3.0804,-3.0819,-3.0864,-3.0889,-3.0874,-3.0877,-3.084,-3.0816,-3.0801,-3.0767,-3.0722,-3.0664,-3.061,-3.0582,-3.0535,-3.05,-3.0576,-4.1928,-4.0992,-3.9669,-3.9123,-3.8967,-3.7715,-3.7151,-3.7075,-3.7181,-3.7195,-3.7165,-3.7255,-3.7375,-3.7462,-3.761,-3.7489,-3.7189,-3.7157,-3.6885,-3.6325,-3.6276,-3.6157,-3.5898,-3.5428,-3.5098,-3.4871,-3.4822,-3.5056,-3.5477,-3.5509,-3.5535,-3.5571,-3.5649,-3.5694,-3.5617,-3.4767,-3.4058,-3.3545,-3.2624,-3.1845,-3.1468,-3.1162,-3.1095,-3.1165,-3.1369,-3.1407,-3.1249,-3.1291,-3.1385,-3.1423,-3.0708,-3.0078,-2.9516,-2.8545,-2.7939,-2.7771,-2.7635,-2.7602,-2.7659,-2.7754,-2.7821,-2.7933,-2.8053,-2.8122,-2.8178,-2.8242,-2.8353,-2.8406,-2.8432,-2.8543,-2.8731,-2.8899,-2.9003,-2.9048,-2.9138,-2.9243,-2.9299,-2.9372,-2.9454,-2.9598,-2.97,-2.9825,-2.9885,-2.9999,-3.0083,-3.014,-3.0185,-3.0214,-3.0228,-3.0273,-3.0311,-3.0359,-3.0369,-3.0419,-3.0544,-3.0671,-3.0731,-3.0745,-3.0747,-3.0785,-3.0816,-3.0842,-3.0828,-3.0871,-3.0838,-3.082,-3.0814,-3.0785,-3.0733,-3.0698,-3.0653,-3.0614,-3.0577,-3.0554,-3.051,-4.1163,-4.0576,-3.9294,-3.8738,-3.8583,-3.7375,-3.6785,-3.6693,-3.6785,-3.6785,-3.6724,-3.6785,-3.6892,-3.6983,-3.7134,-3.7121,-3.7087,-3.7242,-3.717,-3.6835,-3.6803,-3.669,-3.6443,-3.5975,-3.5604,-3.5427,-3.5394,-3.5669,-3.6088,-3.6126,-3.6126,-3.6136,-3.6158,-3.6238,-3.6064,-3.5008,-3.4113,-3.3475,-3.2206,-3.1194,-3.0733,-3.0495,-3.0422,-3.0485,-3.0692,-3.0968,-3.123,-3.1345,-3.1406,-3.1311,-3.0319,-2.9207,-2.8195,-2.7335,-2.6925,-2.7038,-2.7135,-2.7231,-2.7326,-2.7388,-2.7481,-2.7597,-2.7748,-2.7853,-2.7929,-2.7993,-2.8091,-2.8178,-2.8205,-2.8259,-2.8388,-2.8569,-2.8706,-2.8803,-2.8899,-2.8991,-2.9071,-2.9141,-2.9278,-2.9431,-2.9579,-2.9692,-2.9728,-2.9859,-2.9951,-3.0014,-3.0091,-3.0142,-3.0178,-3.0213,-3.0253,-3.0273,-3.0267,-3.0316,-3.0409,-3.0525,-3.0656,-3.0688,-3.0718,-3.0765,-3.0783,-3.0791,-3.0798,-3.0844,-3.0851,-3.0838,-3.0819,-3.0799,-3.0765,-3.0739,-3.0704,-3.0658,-3.0634,-3.0604,-3.0564,-4.0011,-3.9813,-3.8693,-3.8165,-3.7981,-3.6887,-3.6258,-3.6053,-3.6304,-3.6226,-3.6037,-3.6304,-3.6429,-3.6476,-3.6616,-3.6753,-3.6918,-3.7411,-3.7658,-3.7697,-3.7729,-3.7409,-3.6894,-3.6734,-3.635,-3.581,-3.5794,-3.581,-3.597,-3.6018,-3.6002,-3.589,-3.6014,-3.6133,-3.605,-3.4926,-3.4198,-3.3827,-3.2343,-3.1313,-3.1204,-3.0615,-3.0335,-3.0392,-3.045,-3.0882,-3.1686,-3.1741,-3.1804,-3.1742,-2.9953,-2.8131,-2.7009,-2.664,-2.664,-2.6691,-2.6708,-2.6825,-2.6975,-2.7007,-2.7088,-2.7214,-2.7386,-2.7496,-2.7526,-2.763,-2.7792,-2.794,-2.7982,-2.8039,-2.8146,-2.8214,-2.8331,-2.8632,-2.8694,-2.8755,-2.8851,-2.8952,-2.9074,-2.9262,-2.9421,-2.9482,-2.9541,-2.9654,-2.978,-2.9887,-2.9951,-3.0003,-3.0068,-3.0106,-3.0142,-3.0178,-3.0194,-3.0228,-3.0292,-3.035,-3.0511,-3.0614,-3.0668,-3.0714,-3.0759,-3.0773,-3.0785,-3.0812,-3.0844,-3.0834,-3.0801,-3.0793,-3.0799,-3.0773,-3.0728,-3.0712,-3.0669,-3.0645,-3.064,-3.9177,-3.9013,-3.7774,-3.7222,-3.7093,-3.5935,-3.5317,-3.5252,-3.535,-3.5302,-3.5285,-3.5494,-3.5606,-3.5703,-3.6037,-3.6258,-3.6336,-3.6754,-3.715,-3.7492,-3.7551,-3.744,-3.7171,-3.6787,-3.6454,-3.6235,-3.6204,-3.6457,-3.679,-3.6869,-3.6914,-3.6885,-3.6869,-3.6914,-3.6784,-3.5286,-3.4404,-3.4216,-3.2555,-3.1366,-3.0943,-3.0745,-3.0516,-3.0217,-3.0604,-3.1084,-3.1424,-3.1593,-3.1933,-3.2397,-3.0381,-2.8341,-2.6833,-2.6399,-2.6452,-2.6538,-2.6555,-2.6606,-2.6708,-2.6725,-2.6759,-2.6875,-2.7038,-2.7153,-2.7169,-2.7277,-2.7463,-2.7632,-2.7662,-2.7704,-2.7818,-2.7922,-2.8045,-2.8304,-2.8445,-2.851,-2.8587,-2.8737,-2.8905,-2.9074,-2.9229,-2.9286,-2.931,-2.9443,-2.956,-2.9692,-2.9754,-2.9832,-2.9934,-2.9991,-3.0019,-3.0068,-3.0094,-3.0145,-3.0195,-3.026,-3.0381,-3.0506,-3.0583,-3.0662,-3.0717,-3.0765,-3.078,-3.0799,-3.0833,-3.0847,-3.0798,-3.0801,-3.0797,-3.0786,-3.0768,-3.0739,-3.0717,-3.0698,-3.068,-3.8575,-3.8443,-3.7417,-3.6816,-3.6509,-3.5483,-3.4878,-3.4668,-3.4673,-3.4673,-3.4673,-3.4806,-3.492,-3.4971,-3.5379,-3.5589,-3.5606,-3.5926,-3.629,-3.6662,-3.6997,-3.7058,-3.7027,-3.6682,-3.6418,-3.6418,-3.6358,-3.6561,-3.7042,-3.6997,-3.6982,-3.7028,-3.7074,-3.7072,-3.6961,-3.5464,-3.4573,-3.4442,-3.2825,-3.1645,-3.1246,-3.0822,-3.0456,-3.0261,-3.0393,-3.0709,-3.1071,-3.1292,-3.1622,-3.1836,-3.0385,-2.8558,-2.6874,-2.6692,-2.6594,-2.6413,-2.6397,-2.6415,-2.6486,-2.6503,-2.6538,-2.664,-2.6775,-2.6859,-2.6876,-2.6957,-2.7103,-2.7279,-2.731,-2.7373,-2.7491,-2.7597,-2.7733,-2.7861,-2.815,-2.8318,-2.8398,-2.8536,-2.8669,-2.8834,-2.8975,-2.9033,-2.9089,-2.92,-2.932,-2.9433,-2.9513,-2.9617,-2.9755,-2.9815,-2.9857,-2.9916,-2.998,-3.0042,-3.0113,-3.0199,-3.026,-3.0375,-3.0492,-3.0567,-3.0651,-3.0713,-3.0742,-3.0774,-3.0813,-3.0813,-3.0789,-3.0794,-3.08,-3.08,-3.0793,-3.0777,-3.0751,-3.075,-3.0733,-3.8127,-3.804,-3.7409,-3.6744,-3.6136,-3.5435,-3.473,-3.4151,-3.4244,-3.4196,-3.4128,-3.4264,-3.438,-3.4414,-3.4735,-3.4902,-3.492,-3.5187,-3.5382,-3.5576,-3.5975,-3.6305,-3.6368,-3.6306,-3.6276,-3.6306,-3.6182,-3.6243,-3.6399,-3.6258,-3.6242,-3.6414,-3.6445,-3.6507,-3.6368,-3.527,-3.4778,-3.4604,-3.3058,-3.2196,-3.2006,-3.0928,-3.0259,-3.0385,-2.992,-2.9971,-3.0545,-3.0716,-3.0945,-3.1188,-3.0141,-2.8844,-2.7644,-2.733,-2.703,-2.6533,-2.6367,-2.647,-2.6442,-2.6626,-2.6645,-2.6767,-2.6754,-2.6639,-2.674,-2.6759,-2.6792,-2.6957,-2.6991,-2.704,-2.7166,-2.7293,-2.7371,-2.7432,-2.781,-2.8126,-2.8331,-2.8353,-2.8432,-2.8543,-2.8687,-2.8792,-2.8785,-2.8952,-2.9082,-2.9174,-2.9259,-2.9373,-2.9502,-2.9598,-2.9654,-2.9735,-2.9813,-2.9907,-2.9964,-3.0049,-3.0145,-3.0247,-3.0358,-3.0467,-3.057,-3.0649,-3.0717,-3.0756,-3.0767,-3.0773,-3.0789,-3.0798,-3.0808,-3.0837,-3.082,-3.0797,-3.0784,-3.0776,-3.0765,-3.7327,-3.7256,-3.6675,-3.6051,-3.5427,-3.4795,-3.4136,-3.3564,-3.3591,-3.3591,-3.3556,-3.3709,-3.3848,-3.3868,-3.4176,-3.4298,-3.4385,-3.4553,-3.4668,-3.4702,-3.482,-3.5267,-3.5608,-3.5705,-3.5672,-3.5672,-3.564,-3.564,-3.5672,-3.5625,-3.564,-3.5705,-3.5847,-3.5926,-3.5808,-3.5309,-3.4818,-3.4398,-3.3589,-3.2516,-3.1707,-3.1305,-3.0674,-2.9915,-2.9728,-2.9604,-2.9616,-2.9651,-2.9939,-3.0337,-3.0194,-2.9321,-2.7991,-2.781,-2.7679,-2.7482,-2.7465,-2.7498,-2.7501,-2.7487,-2.7556,-2.7558,-2.7195,-2.7038,-2.704,-2.6735,-2.6639,-2.6674,-2.6708,-2.6776,-2.6859,-2.7006,-2.7153,-2.7277,-2.7542,-2.7824,-2.8025,-2.8095,-2.815,-2.8282,-2.8432,-2.8484,-2.8549,-2.8687,-2.8815,-2.8892,-2.8996,-2.9064,-2.9127,-2.9361,-2.9405,-2.9523,-2.9636,-2.9726,-2.9832,-2.9905,-3.0011,-3.0113,-3.0221,-3.0355,-3.0471,-3.0576,-3.0638,-3.0688,-3.0716,-3.0728,-3.0776,-3.0792,-3.0831,-3.0844,-3.0816,-3.0801,-3.0798,-3.0785,-3.0786,-3.6978,-3.6989,-3.6638,-3.6131,-3.5527,-3.4885,-3.4231,-3.3683,-3.3389,-3.3276,-3.3326,-3.3396,-3.3466,-3.3515,-3.3764,-3.3902,-3.3902,-3.4122,-3.4191,-3.4191,-3.4225,-3.4501,-3.4887,-3.4971,-3.4971,-3.4971,-3.489,-3.489,-3.4971,-3.499,-3.5004,-3.5151,-3.5267,-3.5379,-3.5335,-3.4911,-3.4557,-3.4151,-3.3622,-3.2831,-3.2003,-3.1637,-3.1144,-3.0299,-2.9877,-2.9279,-2.8896,-2.8912,-2.9354,-3.0022,-3.006,-2.9436,-2.8457,-2.8274,-2.818,-2.7948,-2.7883,-2.7867,-2.7883,-2.7867,-2.7867,-2.7818,-2.7542,-2.7473,-2.7416,-2.7168,-2.7081,-2.7294,-2.7049,-2.6919,-2.6958,-2.6928,-2.6893,-2.6989,-2.7182,-2.745,-2.7751,-2.7763,-2.7864,-2.8007,-2.8132,-2.8246,-2.8259,-2.8432,-2.8549,-2.8637,-2.8743,-2.8656,-2.8562,-2.8865,-2.901,-2.8932,-2.9182,-2.9344,-2.9495,-2.9613,-2.9792,-2.991,-3.0083,-3.0206,-3.0336,-3.0476,-3.0544,-3.0606,-3.063,-3.0672,-3.0722,-3.0755,-3.0784,-3.0785,-3.0783,-3.0794,-3.08,-3.0799,-3.0791,-3.6993,-3.6978,-3.6978,-3.6666,-3.6047,-3.5513,-3.4829,-3.4147,-3.3655,-3.3375,-3.3304,-3.329,-3.3312,-3.334,-3.3521,-3.357,-3.357,-3.3758,-3.3813,-3.3813,-3.3848,-3.402,-3.423,-3.4366,-3.4399,-3.4366,-3.4176,-3.4244,-3.4366,-3.4366,-3.4448,-3.4616,-3.4735,-3.482,-3.4828,-3.4389,-3.4159,-3.4099,-3.3687,-3.3169,-3.2571,-3.2059,-3.1496,-3.0949,-2.9855,-2.9078,-2.8652,-2.8559,-2.9036,-3.0288,-2.982,-2.9261,-2.8742,-2.871,-2.8501,-2.8093,-2.8023,-2.7996,-2.7904,-2.8012,-2.7916,-2.7964,-2.7872,-2.7809,-2.7794,-2.7713,-2.7666,-2.7859,-2.7558,-2.7394,-2.7424,-2.7087,-2.7026,-2.713,-2.7114,-2.716,-2.7398,-2.7487,-2.7524,-2.7716,-2.7882,-2.7968,-2.8053,-2.8164,-2.8264,-2.7905,-2.8028,-2.7925,-2.7753,-2.7791,-2.7871,-2.7854,-2.827,-2.8899,-2.9087,-2.9289,-2.9513,-2.9696,-2.9888,-3.0049,-3.0194,-3.031,-3.0417,-3.0491,-3.053,-3.0586,-3.0633,-3.0678,-3.072,-3.0769,-3.0774,-3.0794,-3.0788,-3.0799,-3.08,-3.685,-3.6978,-3.6978,-3.6666,-3.6145,-3.5949,-3.525,-3.4217,-3.4062,-3.3697,-3.3361,-3.3276,-3.3276,-3.3276,-3.3361,-3.3347,-3.3396,-3.3431,-3.3431,-3.3431,-3.3431,-3.3466,-3.3626,-3.3833,-3.3985,-3.3985,-3.3951,-3.3965,-3.3985,-3.402,-3.402,-3.4088,-3.4278,-3.4366,-3.4457,-3.4474,-3.4332,-3.4097,-3.3878,-3.3495,-3.2936,-3.2345,-3.1738,-3.1153,-3.0041,-2.9177,-2.8632,-2.8503,-2.8475,-2.8544,-2.8818,-2.895,-2.8837,-2.8874,-2.8824,-2.8729,-2.8697,-2.8745,-2.8776,-2.8681,-2.8776,-2.8634,-2.8287,-2.8142,-2.8217,-2.7869,-2.7715,-2.7778,-2.772,-2.7761,-2.7874,-2.7957,-2.7854,-2.7781,-2.759,-2.7448,-2.7555,-2.7364,-2.7296,-2.7432,-2.7537,-2.7615,-2.7669,-2.7766,-2.7684,-2.7317,-2.7147,-2.7051,-2.6928,-2.6801,-2.6832,-2.6849,-2.7236,-2.7819,-2.8233,-2.857,-2.9081,-2.9411,-2.9681,-2.9849,-2.9992,-3.0126,-3.0221,-3.0322,-3.0447,-3.0496,-3.0539,-3.0603,-3.0635,-3.0697,-3.075,-3.078,-3.0785,-3.0787,-3.0797,-3.6668,-3.685,-3.6836,-3.6732,-3.6487,-3.623,-3.5545,-3.4731,-3.4301,-3.3852,-3.3375,-3.3276,-3.3276,-3.3276,-3.3276,-3.3276,-3.3276,-3.3276,-3.3326,-3.3312,-3.3312,-3.3312,-3.3312,-3.3466,-3.3605,-3.3619,-3.3605,-3.3605,-3.364,-3.3709,-3.3758,-3.3779,-3.3917,-3.404,-3.4142,-3.4293,-3.4187,-3.4022,-3.3972,-3.3685,-3.3174,-3.2869,-3.2056,-3.1176,-3.0242,-2.9468,-2.8872,-2.8797,-2.8467,-2.8203,-2.8374,-2.8602,-2.8565,-2.8629,-2.8716,-2.8763,-2.8763,-2.8763,-2.8763,-2.8763,-2.8716,-2.8779,-2.8459,-2.8465,-2.8469,-2.8211,-2.8196,-2.8259,-2.8185,-2.8068,-2.7968,-2.7983,-2.8063,-2.8096,-2.7949,-2.7796,-2.7781,-2.7315,-2.6957,-2.705,-2.6902,-2.684,-2.6907,-2.7067,-2.6662,-2.6106,-2.6304,-2.6211,-2.5868,-2.5781,-2.5894,-2.6003,-2.6281,-2.6684,-2.7192,-2.7791,-2.8555,-2.901,-2.9445,-2.9589,-2.9754,-2.988,-2.9988,-3.014,-3.0286,-3.0365,-3.0419,-3.0482,-3.057,-3.0642,-3.0688,-3.0731,-3.0769,-3.078,-3.0774,-3.6484,-3.6642,-3.6642,-3.6772,-3.683,-3.6308,-3.5714,-3.5133,-3.4506,-3.3866,-3.3375,-3.3276,-3.3276,-3.3276,-3.3276,-3.3276,-3.3276,-3.3276,-3.3276,-3.3276,-3.3276,-3.3276,-3.3312,-3.3312,-3.3347,-3.3276,-3.3347,-3.3347,-3.3396,-3.3466,-3.355,-3.357,-3.3709,-3.3813,-3.3813,-3.3862,-3.3888,-3.3885,-3.3905,-3.3801,-3.3469,-3.327,-3.2414,-3.1185,-3.0646,-2.9913,-2.9326,-2.909,-2.8868,-2.828,-2.8314,-2.8286,-2.8168,-2.8128,-2.8162,-2.8259,-2.8259,-2.8259,-2.8259,-2.8259,-2.8275,-2.829,-2.8259,-2.835,-2.8456,-2.8474,-2.8545,-2.8645,-2.8566,-2.8327,-2.7986,-2.8172,-2.8165,-2.8155,-2.8176,-2.8167,-2.8076,-2.7404,-2.7123,-2.7216,-2.6891,-2.6561,-2.6203,-2.6076,-2.5461,-2.5039,-2.5253,-2.5282,-2.4931,-2.4764,-2.4855,-2.4907,-2.5077,-2.5914,-2.6508,-2.7379,-2.811,-2.8732,-2.9198,-2.9343,-2.9482,-2.9598,-2.9724,-2.9969,-3.0123,-3.0195,-3.0299,-3.0369,-3.0456,-3.0549,-3.0606,-3.0637,-3.0688,-3.0755,-3.0774,-3.6286,-3.6431,-3.6431,-3.6549,-3.6663,-3.6105,-3.5591,-3.511,-3.4469,-3.3866,-3.3333,-3.3276,-3.3276,-3.3276,-3.3276,-3.3276,-3.3276,-3.3276,-3.3276,-3.3276,-3.3276,-3.3276,-3.3276,-3.3276,-3.3276,-3.3276,-3.3276,-3.3276,-3.3276,-3.3326,-3.3396,-3.3361,-3.3431,-3.3501,-3.3605,-3.364,-3.3724,-3.3779,-3.3813,-3.3754,-3.365,-3.3149,-3.2377,-3.1171,-3.0935,-3.0375,-2.9609,-2.9421,-2.9217,-2.8678,-2.8633,-2.8391,-2.8089,-2.7867,-2.7765,-2.7765,-2.7775,-2.7775,-2.7775,-2.775,-2.775,-2.7725,-2.775,-2.786,-2.8033,-2.8146,-2.8268,-2.847,-2.8631,-2.8653,-2.8874,-2.8831,-2.9099,-2.9074,-2.8775,-2.8563,-2.8463,-2.8115,-2.7797,-2.8115,-2.7326,-2.6302,-2.5873,-2.5263,-2.4548,-2.4181,-2.4201,-2.4108,-2.3762,-2.3691,-2.3744,-2.3762,-2.3789,-2.4859,-2.5911,-2.6933,-2.7825,-2.8504,-2.8957,-2.9064,-2.9195,-2.9301,-2.9474,-2.9689,-2.9916,-3.0042,-3.0145,-3.0241,-3.0323,-3.04,-3.0462,-3.0539,-3.0599,-3.0655,-3.071,-3.6032,-3.6246,-3.6246,-3.6365,-3.6413,-3.5898,-3.5363,-3.4827,-3.4214,-3.3587,-3.3105,-3.2966,-3.3016,-3.298,-3.2966,-3.3051,-3.3157,-3.3276,-3.3276,-3.3276,-3.3276,-3.3276,-3.3276,-3.3276,-3.3276,-3.3276,-3.3276,-3.3276,-3.3276,-3.3276,-3.3276,-3.3276,-3.3276,-3.3347,-3.3431,-3.3431,-3.3501,-3.357,-3.357,-3.357,-3.3514,-3.2948,-3.2065,-3.1466,-3.1027,-3.0494,-2.9913,-2.976,-2.9607,-2.9204,-2.9074,-2.8754,-2.8369,-2.792,-2.7587,-2.748,-2.7412,-2.7397,-2.7397,-2.7397,-2.7397,-2.7397,-2.7397,-2.7473,-2.7625,-2.7715,-2.7865,-2.8097,-2.8244,-2.8462,-2.8669,-2.8928,-2.9013,-2.9058,-2.8894,-2.8869,-2.8884,-2.8709,-2.879,-2.8764,-2.7311,-2.619,-2.5564,-2.4801,-2.3795,-2.3363,-2.3258,-2.303,-2.2773,-2.2906,-2.3089,-2.3399,-2.3684,-2.4836,-2.5882,-2.6729,-2.7615,-2.8304,-2.8651,-2.8767,-2.8812,-2.8853,-2.9111,-2.9402,-2.9617,-2.9664,-2.9975,-3.0064,-3.0152,-3.0234,-3.0322,-3.0395,-3.0482,-3.0543,-3.0591,-3.5764,-3.6018,-3.5909,-3.5974,-3.6008,-3.5358,-3.4803,-3.4347,-3.3749,-3.3196,-3.2745,-3.269,-3.2725,-3.269,-3.2739,-3.281,-3.2952,-3.3086,-3.3122,-3.3136,-3.3122,-3.3157,-3.3171,-3.3241,-3.3192,-3.3206,-3.3192,-3.3276,-3.3276,-3.3276,-3.3276,-3.3276,-3.3276,-3.3276,-3.3241,-3.3227,-3.3241,-3.3171,-3.3136,-3.3086,-3.2912,-3.2514,-3.1887,-3.1299,-3.0891,-3.0411,-2.9696,-2.9797,-2.975,-2.9528,-2.9387,-2.926,-2.8742,-2.8279,-2.781,-2.7442,-2.7239,-2.7133,-2.713,-2.7104,-2.713,-2.7104,-2.713,-2.7207,-2.7325,-2.7427,-2.7499,-2.7785,-2.79,-2.7974,-2.821,-2.8381,-2.8486,-2.8566,-2.8693,-2.8858,-2.8957,-2.8962,-2.9005,-2.841,-2.7005,-2.629,-2.5881,-2.4231,-2.3193,-2.3005,-2.2892,-2.2712,-2.2525,-2.2685,-2.2924,-2.3371,-2.3984,-2.512,-2.6029,-2.664,-2.7455,-2.8156,-2.836,-2.8422,-2.8378,-2.8349,-2.8574,-2.8691,-2.8872,-2.8979,-2.9437,-2.9857,-2.9937,-3.0026,-3.0148,-3.0248,-3.0333,-3.0419,-3.0477,-3.5562,-3.5709,-3.5153,-3.5108,-3.5153,-3.4111,-3.3702,-3.3712,-3.3109,-3.2786,-3.2682,-3.269,-3.2654,-3.2654,-3.2654,-3.2704,-3.2739,-3.2775,-3.281,-3.286,-3.281,-3.281,-3.281,-3.2952,-3.2966,-3.2966,-3.2988,-3.3143,-3.3171,-3.3206,-3.3276,-3.3241,-3.3206,-3.3206,-3.3002,-3.2966,-3.2952,-3.2775,-3.2596,-3.2417,-3.2259,-3.2114,-3.1488,-3.0829,-3.0581,-3.0242,-2.9347,-2.9415,-2.9535,-2.9538,-2.9636,-2.9428,-2.8976,-2.8938,-2.8597,-2.8024,-2.7384,-2.6846,-2.6905,-2.6861,-2.6832,-2.6832,-2.6832,-2.691,-2.6989,-2.7119,-2.7233,-2.7412,-2.7463,-2.7564,-2.774,-2.7925,-2.8048,-2.8171,-2.8293,-2.8429,-2.8573,-2.8724,-2.8803,-2.8559,-2.7342,-2.6924,-2.6536,-2.4468,-2.2684,-2.2622,-2.2519,-2.2401,-2.2338,-2.2538,-2.3144,-2.3694,-2.4122,-2.5156,-2.6276,-2.6866,-2.7281,-2.7996,-2.7919,-2.7924,-2.7774,-2.765,-2.755,-2.7684,-2.7901,-2.8371,-2.8938,-2.9336,-2.9604,-2.9809,-2.9931,-3.0078,-3.0189,-3.0279,-3.034,-3.4741,-3.4995,-3.4857,-3.4677,-3.4374,-3.3554,-3.3237,-3.3225,-3.2718,-3.2408,-3.2408,-3.2408,-3.2408,-3.2444,-3.2467,-3.2525,-3.2561,-3.2632,-3.2704,-3.2654,-3.2654,-3.2632,-3.2596,-3.2704,-3.2739,-3.2525,-3.2596,-3.2561,-3.2717,-3.2824,-3.2966,-3.2931,-3.286,-3.2753,-3.2632,-3.2561,-3.2381,-3.2164,-3.1896,-3.1676,-3.1616,-3.1439,-3.0937,-2.9842,-3.0089,-2.9571,-2.8872,-2.883,-2.9085,-2.9135,-2.9216,-2.9181,-2.8937,-2.8705,-2.833,-2.815,-2.7396,-2.7046,-2.7062,-2.6745,-2.6587,-2.6541,-2.6515,-2.6527,-2.6621,-2.6738,-2.6881,-2.7041,-2.7159,-2.7248,-2.7361,-2.7564,-2.764,-2.774,-2.7865,-2.8039,-2.8137,-2.8195,-2.8264,-2.8006,-2.7744,-2.7224,-2.6581,-2.4958,-2.3425,-2.3096,-2.2912,-2.2656,-2.2504,-2.2471,-2.3264,-2.4236,-2.462,-2.5123,-2.6274,-2.7158,-2.7198,-2.7578,-2.7141,-2.7112,-2.701,-2.6874,-2.6661,-2.6622,-2.6776,-2.7405,-2.8296,-2.8922,-2.9288,-2.9532,-2.9725,-2.9861,-2.9988,-3.0073,-3.0023,-3.3927,-3.3925,-3.4199,-3.402,-3.3612,-3.3091,-3.287,-3.2803,-3.2409,-3.2205,-3.2205,-3.2205,-3.2205,-3.2205,-3.23,-3.2359,-3.2359,-3.2489,-3.2561,-3.2561,-3.2489,-3.2345,-3.2237,-3.2309,-3.2187,-3.1859,-3.1969,-3.2005,-3.1969,-3.2042,-3.2187,-3.2453,-3.2345,-3.22,-3.2042,-3.1873,-3.1653,-3.127,-3.1134,-3.0972,-3.091,-3.0898,-3.017,-2.9578,-2.9236,-2.9011,-2.8087,-2.8118,-2.8365,-2.8417,-2.8514,-2.8583,-2.8566,-2.8325,-2.8152,-2.7947,-2.7431,-2.7129,-2.6999,-2.6764,-2.641,-2.6336,-2.6234,-2.6218,-2.6233,-2.6312,-2.6418,-2.6606,-2.6674,-2.6817,-2.7011,-2.7155,-2.7273,-2.7335,-2.7463,-2.7625,-2.7775,-2.78,-2.782,-2.7692,-2.7409,-2.704,-2.6275,-2.5201,-2.4277,-2.3745,-2.3354,-2.2965,-2.278,-2.263,-2.3276,-2.4265,-2.4579,-2.4995,-2.6033,-2.6899,-2.7099,-2.7022,-2.6576,-2.6135,-2.5895,-2.5716,-2.5483,-2.5538,-2.5679,-2.6555,-2.7492,-2.8265,-2.8979,-2.9272,-2.9513,-2.9645,-2.976,-2.981,-2.9315,-3.3265,-3.23,-3.2785,-3.2923,-3.2853,-3.2444,-3.2264,-3.2281,-3.2209,-3.2132,-3.2146,-3.2169,-3.2146,-3.2169,-3.2169,-3.2205,-3.2218,-3.2218,-3.2277,-3.2205,-3.2023,-3.1863,-3.174,-3.1616,-3.1529,-3.1257,-3.1257,-3.1257,-3.1182,-3.0921,-3.1294,-3.1726,-3.1579,-3.1492,-3.127,-3.0972,-3.0633,-3.0343,-3.0266,-3.0279,-3.0241,-3.0203,-2.9792,-2.8995,-2.8779,-2.8481,-2.7426,-2.749,-2.7577,-2.7597,-2.7729,-2.7796,-2.7835,-2.7808,-2.7748,-2.7628,-2.7277,-2.7013,-2.6894,-2.6599,-2.6452,-2.6329,-2.612,-2.5866,-2.5839,-2.5921,-2.6029,-2.6125,-2.6206,-2.6326,-2.6539,-2.6724,-2.6858,-2.6963,-2.7052,-2.7141,-2.7269,-2.7346,-2.7367,-2.7329,-2.7131,-2.6819,-2.6503,-2.5551,-2.4859,-2.4295,-2.3586,-2.3196,-2.311,-2.3046,-2.3404,-2.3995,-2.4274,-2.4852,-2.5713,-2.6235,-2.6422,-2.6172,-2.573,-2.5123,-2.4603,-2.4436,-2.4322,-2.4476,-2.4709,-2.5713,-2.6596,-2.7175,-2.7881,-2.8802,-2.9259,-2.9319,-2.913,-2.8969,-2.8127,-3.2896,-3.2463,-3.2071,-3.1953,-3.2078,-3.1924,-3.1817,-3.1817,-3.183,-3.1817,-3.1853,-3.183,-3.1817,-3.1853,-3.1963,-3.2,-3.2036,-3.2159,-3.2109,-3.1986,-3.1803,-3.1458,-3.1235,-3.091,-3.0758,-3.0431,-3.0355,-3.0292,-3.005,-2.9935,-2.9819,-3.0101,-3.0482,-3.0482,-3.0241,-2.9935,-2.9535,-2.9419,-2.938,-2.938,-2.9392,-2.942,-2.9074,-2.8125,-2.8133,-2.765,-2.6835,-2.6794,-2.6803,-2.6871,-2.6926,-2.696,-2.6994,-2.7061,-2.7095,-2.7095,-2.6778,-2.6714,-2.6582,-2.6166,-2.5734,-2.5458,-2.5368,-2.5342,-2.5356,-2.5425,-2.5481,-2.5591,-2.5729,-2.5852,-2.6111,-2.6272,-2.6406,-2.6527,-2.6633,-2.6712,-2.675,-2.6829,-2.6867,-2.6846,-2.6858,-2.676,-2.6416,-2.6018,-2.5417,-2.4817,-2.4092,-2.3501,-2.3444,-2.3363,-2.3632,-2.3949,-2.4248,-2.4564,-2.5379,-2.5612,-2.5745,-2.533,-2.4859,-2.4279,-2.3708,-2.3329,-2.3284,-2.3419,-2.3711,-2.4501,-2.5255,-2.5922,-2.6916,-2.8207,-2.8757,-2.8909,-2.8599,-2.8174,-2.7215,-3.2594,-3.2319,-3.153,-3.1323,-3.1522,-3.1572,-3.1609,-3.1609,-3.1609,-3.1609,-3.1609,-3.1609,-3.1609,-3.1633,-3.1743,-3.183,-3.1817,-3.1927,-3.1853,-3.1693,-3.1384,-3.0973,-3.0545,-3.0152,-2.9858,-2.9484,-2.9406,-2.938,-2.9236,-2.9067,-2.8988,-2.8988,-2.9079,-2.9263,-2.9302,-2.891,-2.8605,-2.8578,-2.8605,-2.8461,-2.8491,-2.859,-2.8255,-2.7385,-2.7359,-2.7035,-2.6412,-2.6267,-2.6289,-2.6289,-2.6289,-2.6255,-2.6255,-2.6255,-2.6255,-2.6255,-2.6255,-2.6255,-2.6105,-2.5666,-2.5126,-2.4925,-2.4658,-2.4677,-2.4736,-2.4835,-2.485,-2.4935,-2.516,-2.5384,-2.5591,-2.5729,-2.5921,-2.6056,-2.6125,-2.6192,-2.6218,-2.6285,-2.6312,-2.6336,-2.6381,-2.6466,-2.6308,-2.5979,-2.5529,-2.4938,-2.4251,-2.383,-2.3831,-2.375,-2.3658,-2.4001,-2.434,-2.4616,-2.494,-2.5127,-2.518,-2.4577,-2.41,-2.3545,-2.3022,-2.2637,-2.2555,-2.288,-2.3167,-2.3393,-2.416,-2.5208,-2.6525,-2.7894,-2.8294,-2.8634,-2.7708,-2.7212,-2.6543,-3.2359,-3.1758,-3.1235,-3.1123,-3.131,-3.1535,-3.1572,-3.1535,-3.1522,-3.1535,-3.1535,-3.1535,-3.1522,-3.1559,-3.1559,-3.1609,-3.1572,-3.1609,-3.1522,-3.1235,-3.0848,-3.0355,-2.9819,-2.938,-2.9028,-2.8657,-2.8618,-2.8657,-2.851,-2.8367,-2.8247,-2.8139,-2.8179,-2.8299,-2.8471,-2.8299,-2.8099,-2.795,-2.8139,-2.7917,-2.7687,-2.7876,-2.745,-2.6785,-2.6615,-2.6346,-2.5929,-2.5828,-2.5863,-2.5851,-2.5886,-2.5886,-2.5898,-2.5898,-2.5898,-2.591,-2.5898,-2.5898,-2.5881,-2.5322,-2.4893,-2.4537,-2.4248,-2.4103,-2.4099,-2.4131,-2.416,-2.4234,-2.4363,-2.4593,-2.485,-2.5146,-2.5356,-2.5522,-2.5578,-2.5578,-2.5605,-2.5688,-2.5715,-2.5797,-2.5961,-2.6081,-2.603,-2.5839,-2.5482,-2.4977,-2.4375,-2.412,-2.4081,-2.4033,-2.3842,-2.4049,-2.4366,-2.4379,-2.458,-2.471,-2.4571,-2.3934,-2.3372,-2.2883,-2.2534,-2.2252,-2.2276,-2.2443,-2.262,-2.2869,-2.3704,-2.4665,-2.5804,-2.6869,-2.8038,-2.8233,-2.7229,-2.6319,-2.5724,-3.198,-3.1758,-3.1222,-3.1061,-3.1099,-3.1187,-3.1211,-3.1211,-3.1211,-3.1224,-3.1224,-3.1211,-3.1211,-3.1224,-3.1286,-3.1299,-3.1211,-3.136,-3.1235,-3.0659,-3.0228,-2.969,-2.9145,-2.8724,-2.8351,-2.8163,-2.8082,-2.7978,-2.7846,-2.7765,-2.7655,-2.7545,-2.7545,-2.7574,-2.7696,-2.7655,-2.7464,-2.7464,-2.7568,-2.749,-2.7073,-2.7218,-2.6921,-2.5933,-2.5983,-2.5744,-2.5289,-2.5383,-2.5407,-2.5442,-2.5477,-2.55,-2.5512,-2.55,-2.55,-2.55,-2.55,-2.55,-2.539,-2.4988,-2.4485,-2.4141,-2.3932,-2.372,-2.3513,-2.3437,-2.3454,-2.3531,-2.3675,-2.3897,-2.4134,-2.435,-2.458,-2.4808,-2.4865,-2.4865,-2.4893,-2.502,-2.5118,-2.5202,-2.5342,-2.5619,-2.5685,-2.5609,-2.5325,-2.5058,-2.4526,-2.4125,-2.3997,-2.4028,-2.3958,-2.4162,-2.4362,-2.4244,-2.4246,-2.4319,-2.4001,-2.3365,-2.285,-2.2393,-2.2092,-2.1915,-2.1945,-2.2104,-2.2206,-2.2372,-2.324,-2.4067,-2.4732,-2.5697,-2.6751,-2.727,-2.6435,-2.5669,-2.51,-3.1797,-3.1732,-3.1146,-3.0836,-3.0798,-3.0874,-3.0874,-3.0785,-3.0785,-3.0785,-3.0798,-3.0785,-3.0785,-3.0823,-3.0823,-3.0861,-3.0672,-3.0583,-3.047,-2.9934,-2.9484,-2.8988,-2.8526,-2.8139,-2.7869,-2.7719,-2.7638,-2.7545,-2.7452,-2.7412,-2.7342,-2.7272,-2.719,-2.7301,-2.7383,-2.7301,-2.7231,-2.726,-2.7377,-2.7209,-2.6832,-2.664,-2.6323,-2.5693,-2.5354,-2.518,-2.4944,-2.4921,-2.5028,-2.5016,-2.5087,-2.5123,-2.5159,-2.5159,-2.5159,-2.5159,-2.5218,-2.5253,-2.5192,-2.5106,-2.4645,-2.4161,-2.3855,-2.3449,-2.3076,-2.3012,-2.3,-2.3047,-2.309,-2.3258,-2.3501,-2.3691,-2.3855,-2.4089,-2.416,-2.416,-2.4189,-2.4319,-2.4405,-2.4492,-2.4736,-2.502,-2.5286,-2.5286,-2.5152,-2.4935,-2.469,-2.4291,-2.3911,-2.3886,-2.3902,-2.4049,-2.4219,-2.4112,-2.3962,-2.3869,-2.3459,-2.28,-2.2444,-2.2146,-2.1843,-2.1711,-2.1735,-2.1736,-2.1842,-2.2105,-2.273,-2.3451,-2.4076,-2.4625,-2.5261,-2.5531,-2.5399,-2.5022,-2.4514,-3.1771,-3.1654,-3.0994,-3.0571,-3.0406,-3.0495,-3.0495,-3.0368,-3.0368,-3.0368,-3.0355,-3.0355,-3.0355,-3.033,-3.019,-3.0075,-2.9985,-2.9651,-2.938,-2.9091,-2.8776,-2.8311,-2.7978,-2.7655,-2.7505,-2.7313,-2.7272,-2.7353,-2.7231,-2.726,-2.7231,-2.7201,-2.719,-2.7231,-2.7231,-2.7231,-2.719,-2.7231,-2.7196,-2.6944,-2.65,-2.6174,-2.5741,-2.5247,-2.4913,-2.481,-2.4718,-2.4742,-2.479,-2.4825,-2.4825,-2.4825,-2.4837,-2.4837,-2.4801,-2.4861,-2.5028,-2.5123,-2.5206,-2.511,-2.4822,-2.423,-2.3736,-2.3194,-2.2898,-2.285,-2.2782,-2.2727,-2.2739,-2.28,-2.2909,-2.3047,-2.3185,-2.3318,-2.342,-2.345,-2.345,-2.3539,-2.3628,-2.3793,-2.4102,-2.4408,-2.4692,-2.4759,-2.4805,-2.4695,-2.4479,-2.4301,-2.3908,-2.3588,-2.3636,-2.371,-2.3839,-2.3934,-2.3813,-2.3687,-2.3416,-2.2923,-2.2522,-2.2224,-2.1892,-2.1661,-2.1601,-2.1616,-2.1562,-2.1826,-2.2265,-2.2807,-2.3408,-2.3855,-2.397,-2.4386,-2.4445,-2.4401,-2.4005,-3.1159,-3.0994,-3.0636,-3.0241,-2.9871,-2.9509,-2.9535,-2.9871,-2.9909,-2.9909,-2.9909,-2.9909,-2.9806,-2.969,-2.9625,-2.9431,-2.9236,-2.9,-2.8764,-2.8459,-2.8191,-2.7909,-2.7626,-2.7412,-2.726,-2.7231,-2.719,-2.719,-2.719,-2.719,-2.719,-2.719,-2.719,-2.719,-2.719,-2.719,-2.719,-2.719,-2.719,-2.676,-2.6232,-2.5908,-2.5358,-2.483,-2.4532,-2.4429,-2.4454,-2.4526,-2.4574,-2.4574,-2.4718,-2.4801,-2.4801,-2.4801,-2.4801,-2.4801,-2.4861,-2.4897,-2.4957,-2.4957,-2.4708,-2.4318,-2.389,-2.3496,-2.3119,-2.2897,-2.2776,-2.2625,-2.2523,-2.2616,-2.2592,-2.2665,-2.2775,-2.2848,-2.2921,-2.2951,-2.2982,-2.303,-2.3108,-2.3288,-2.3573,-2.3809,-2.4057,-2.4279,-2.4323,-2.4289,-2.4243,-2.4122,-2.3979,-2.3652,-2.338,-2.3449,-2.3531,-2.3659,-2.3708,-2.3588,-2.3379,-2.3102,-2.2874,-2.262,-2.2381,-2.2123,-2.1684,-2.1431,-2.1343,-2.1423,-2.1627,-2.2123,-2.2539,-2.2383,-2.2515,-2.3065,-2.3478,-2.3462,-2.3492,-3.0634,-3.0419,-3.0139,-2.96,-2.8924,-2.8383,-2.841,-2.8715,-2.9094,-2.9211,-2.9211,-2.9223,-2.9145,-2.904,-2.8961,-2.8803,-2.8566,-2.8327,-2.8127,-2.7978,-2.7719,-2.7545,-2.733,-2.726,-2.7231,-2.719,-2.719,-2.719,-2.719,-2.719,-2.719,-2.719,-2.719,-2.719,-2.719,-2.719,-2.719,-2.719,-2.7075,-2.6703,-2.6244,-2.5784,-2.5176,-2.4602,-2.4326,-2.42,-2.4152,-2.4273,-2.4236,-2.4236,-2.4393,-2.4309,-2.4273,-2.4236,-2.4345,-2.4309,-2.4309,-2.4418,-2.449,-2.4562,-2.4376,-2.4165,-2.4026,-2.3792,-2.3501,-2.3263,-2.2922,-2.2639,-2.2582,-2.2525,-2.2399,-2.234,-2.2402,-2.2494,-2.2494,-2.2494,-2.2586,-2.2635,-2.2726,-2.2848,-2.306,-2.3241,-2.3467,-2.3721,-2.3884,-2.3868,-2.3922,-2.3966,-2.3879,-2.3753,-2.3396,-2.324,-2.333,-2.3389,-2.3455,-2.3628,-2.3718,-2.3724,-2.3771,-2.3492,-2.3077,-2.2546,-2.2082,-2.1546,-2.1088,-2.1177,-2.1293,-2.1231,-2.1422,-2.142,-2.161,-2.2049,-2.2524,-2.2671,-2.2712,-3.0203,-2.996,-2.9457,-2.8648,-2.7782,-2.7336,-2.7226,-2.7226,-2.8007,-2.8339,-2.8379,-2.8419,-2.8379,-2.8259,-2.8139,-2.8059,-2.7846,-2.7603,-2.7482,-2.7452,-2.726,-2.7138,-2.7138,-2.7138,-2.7026,-2.7097,-2.7097,-2.7026,-2.7108,-2.7067,-2.7056,-2.7149,-2.7097,-2.7056,-2.7015,-2.7108,-2.7108,-2.7097,-2.7018,-2.6737,-2.629,-2.5865,-2.5367,-2.4794,-2.4416,-2.4127,-2.4043,-2.397,-2.3872,-2.3787,-2.3714,-2.3604,-2.3494,-2.3457,-2.3567,-2.3604,-2.3629,-2.374,-2.3934,-2.4007,-2.4043,-2.3998,-2.4057,-2.382,-2.3502,-2.3474,-2.3195,-2.2879,-2.2801,-2.2595,-2.2448,-2.2348,-2.2332,-2.225,-2.2185,-2.2216,-2.2278,-2.2359,-2.2494,-2.2616,-2.2726,-2.2909,-2.2957,-2.3185,-2.3348,-2.3378,-2.3471,-2.3601,-2.3665,-2.3634,-2.3496,-2.316,-2.322,-2.3342,-2.3459,-2.3708,-2.4177,-2.4338,-2.4361,-2.4338,-2.3881,-2.3187,-2.2445,-2.1963,-2.1486,-2.1064,-2.0973,-2.1145,-2.1329,-2.1383,-2.1484,-2.136,-2.1564,-2.1947,-2.2104,-2.9509,-2.9248,-2.8355,-2.7592,-2.7126,-2.6839,-2.6757,-2.6757,-2.6962,-2.7237,-2.747,-2.751,-2.7441,-2.7371,-2.7342,-2.726,-2.7044,-2.7044,-2.6839,-2.688,-2.6809,-2.6862,-2.6768,-2.6809,-2.6768,-2.6727,-2.6727,-2.6768,-2.6809,-2.6809,-2.6757,-2.6768,-2.6768,-2.6809,-2.6809,-2.6891,-2.6962,-2.6883,-2.664,-2.6325,-2.5833,-2.5344,-2.4829,-2.4337,-2.3945,-2.3751,-2.3641,-2.3482,-2.3335,-2.3224,-2.3187,-2.3075,-2.2927,-2.2852,-2.2889,-2.2975,-2.2927,-2.3038,-2.3187,-2.3298,-2.3298,-2.3298,-2.3287,-2.3353,-2.3374,-2.357,-2.3524,-2.3216,-2.2987,-2.276,-2.2524,-2.2394,-2.2229,-2.208,-2.1941,-2.1972,-2.1992,-2.2123,-2.2259,-2.234,-2.2463,-2.2512,-2.2574,-2.2665,-2.2769,-2.2891,-2.3,-2.3125,-2.328,-2.3325,-2.3552,-2.3339,-2.3264,-2.3372,-2.3472,-2.368,-2.4089,-2.4387,-2.4447,-2.4484,-2.4573,-2.383,-2.2988,-2.2469,-2.1973,-2.1523,-2.1334,-2.1659,-2.1759,-2.1595,-2.1519,-2.1459,-2.1426,-2.1697,-2.1725,-2.8712,-2.8395,-2.7458,-2.6869,-2.6603,-2.6396,-2.626,-2.6271,-2.6271,-2.6426,-2.6663,-2.6787,-2.6869,-2.6768,-2.6779,-2.6738,-2.6603,-2.6603,-2.6644,-2.6644,-2.6561,-2.6644,-2.6603,-2.6561,-2.6644,-2.6603,-2.6603,-2.6644,-2.6561,-2.6603,-2.6644,-2.6603,-2.6603,-2.6603,-2.6592,-2.6704,-2.6632,-2.6418,-2.6075,-2.5576,-2.5145,-2.4774,-2.4362,-2.3897,-2.3494,-2.3309,-2.3075,-2.2879,-2.2703,-2.259,-2.2515,-2.2402,-2.2289,-2.2187,-2.2214,-2.2252,-2.2252,-2.2252,-2.2402,-2.2467,-2.2467,-2.2478,-2.2478,-2.251,-2.2697,-2.2852,-2.3155,-2.2934,-2.3213,-2.3039,-2.2689,-2.2492,-2.2236,-2.2036,-2.197,-2.1995,-2.1946,-2.1968,-2.203,-2.2092,-2.2216,-2.234,-2.2371,-2.2371,-2.2494,-2.2525,-2.2616,-2.2665,-2.2775,-2.2896,-2.3196,-2.336,-2.3222,-2.3285,-2.3407,-2.3635,-2.3931,-2.4211,-2.445,-2.4617,-2.4631,-2.4149,-2.3545,-2.3034,-2.2461,-2.1905,-2.1872,-2.2062,-2.1869,-2.1579,-2.1576,-2.162,-2.1571,-2.1581,-2.1741,-2.7886,-2.7487,-2.6775,-2.6343,-2.6146,-2.599,-2.5937,-2.5948,-2.5895,-2.5937,-2.6021,-2.6343,-2.6479,-2.652,-2.652,-2.652,-2.6479,-2.6396,-2.6437,-2.6479,-2.6437,-2.6396,-2.6396,-2.6437,-2.6437,-2.6437,-2.6437,-2.6437,-2.6396,-2.6437,-2.6437,-2.652,-2.6509,-2.6509,-2.6498,-2.6386,-2.6207,-2.5764,-2.5284,-2.4659,-2.4424,-2.4265,-2.3791,-2.3334,-2.2953,-2.274,-2.2429,-2.2203,-2.1949,-2.1835,-2.17,-2.1514,-2.1448,-2.1344,-2.1352,-2.1341,-2.1375,-2.1433,-2.1606,-2.1634,-2.1645,-2.1655,-2.1655,-2.1807,-2.1987,-2.2221,-2.2527,-2.2783,-2.3024,-2.3058,-2.2672,-2.24,-2.2151,-2.1934,-2.1918,-2.1932,-2.187,-2.1847,-2.1887,-2.1895,-2.1961,-2.2116,-2.2135,-2.2135,-2.2123,-2.2154,-2.2173,-2.2223,-2.2285,-2.2396,-2.2573,-2.281,-2.2828,-2.301,-2.3271,-2.3497,-2.3731,-2.4004,-2.4241,-2.4573,-2.4735,-2.4374,-2.4028,-2.3583,-2.3018,-2.2603,-2.227,-2.2309,-2.1999,-2.1774,-2.1744,-2.1829,-2.1866,-2.1885,-2.1969,-2.6891,-2.6509,-2.6313,-2.6146,-2.5937,-2.5895,-2.5895,-2.5895,-2.5906,-2.5895,-2.5884,-2.5937,-2.6021,-2.601,-2.6021,-2.5997,-2.5926,-2.5972,-2.6041,-2.6021,-2.6135,-2.6093,-2.6104,-2.6188,-2.6063,-2.6063,-2.6104,-2.6063,-2.6146,-2.6104,-2.6063,-2.6104,-2.603,-2.6008,-2.6005,-2.5837,-2.551,-2.5054,-2.4513,-2.3925,-2.3454,-2.3216,-2.2918,-2.2515,-2.2117,-2.1738,-2.1357,-2.1165,-2.1059,-2.0915,-2.0818,-2.0593,-2.0486,-2.0458,-2.0458,-2.0458,-2.0488,-2.0702,-2.0799,-2.0867,-2.0915,-2.0915,-2.0992,-2.1146,-2.1339,-2.153,-2.1786,-2.2039,-2.2274,-2.248,-2.2233,-2.2102,-2.1849,-2.1675,-2.1571,-2.1677,-2.1685,-2.1755,-2.1858,-2.1769,-2.1717,-2.1777,-2.1792,-2.1749,-2.1675,-2.1663,-2.1588,-2.1608,-2.1651,-2.1808,-2.1963,-2.2139,-2.2341,-2.2767,-2.3051,-2.3258,-2.3473,-2.3758,-2.4002,-2.4207,-2.4466,-2.4758,-2.4409,-2.3927,-2.378,-2.3534,-2.3224,-2.2548,-2.2542,-2.2345,-2.2125,-2.209,-2.2117,-2.2152,-2.2214]},{"header":{"parameterUnit":"m.s-1","parameterCategory":1,"la1":31.0,"la2":29.5877,"lo1":-88.7671,"lo2":-86.6584,"dy":0.0162,"dx":0.0185,"nx":115,"ny":88,"refTime":"2023-06-04T06:00:00:Z","depth":0,"parameterNumber":3,"parameterNumberName":"V-component_of_WINDS"},"data":[0.0,0.0,0.0,0.0,0.0,0.0,0.0,0.0,0.0,0.0,0.0,0.0,0.0,0.0,0.0,0.0,0.0,0.0,0.0,0.0,0.0,0.0,0.0,0.0,0.0,0.0,0.0,0.0,0.0,0.0,0.0,0.0,0.0,0.0,0.0,0.0,0.0,0.0,0.0,0.0,0.0,0.0,0.0,0.0,0.0,0.0,0.0,0.0,0.0,0.0,0.0,0.0,0.0,0.0,0.0,0.0,0.0,0.0,0.0,0.0,0.0,0.0,0.0,0.0,0.0,0.0,0.0,0.0,0.0,0.0,0.0,0.0,0.0,0.0,0.0,0.0,0.0,0.0,0.0,0.0,0.0,0.0,0.0,0.0,0.0,0.0,0.0,0.0,0.0,0.0,0.0,0.0,0.0,0.0,0.0,0.0,0.0,0.0,0.0,0.0,0.0,0.0,0.0,0.0,0.0,0.0,0.0,0.0,0.0,0.0,0.0,0.0,0.0,0.0,0.0,0.0,0.0,0.0,0.0,0.0,0.0,0.0,0.0,0.0,0.0,0.0,0.0,0.0,0.0,0.0,0.0,0.0,0.0,0.0,0.0,0.0,0.0,0.0,0.0,0.0,0.0,0.0,0.0,0.0,0.0,0.0,0.0,0.0,0.0,0.0,0.0,0.0,0.0,0.0,0.0,0.0,0.0,0.0,0.0,0.0,0.0,0.0,0.0,0.0,0.0,0.0,0.0,0.0,0.0,0.0,0.0,0.0,0.0,0.0,0.0,0.0,0.0,0.0,0.0,0.0,0.0,0.0,0.0,0.0,0.0,0.0,0.0,0.0,0.0,0.0,0.0,0.0,0.0,0.0,0.0,0.0,0.0,0.0,0.0,0.0,0.0,0.0,0.0,0.0,0.0,0.0,0.0,0.0,0.0,0.0,0.0,0.0,0.0,0.0,0.0,0.0,0.0,0.0,0.0,0.0,0.0,0.0,0.0,0.0,0.0,0.0,0.0,0.0,0.0,0.0,0.0,0.0,0.0,0.0,0.0,0.0,0.0,0.0,0.0,0.0,0.0,0.0,0.0,0.0,0.0,0.0,0.0,0.0,0.0,0.0,0.0,0.0,0.0,0.0,0.0,0.0,0.0,0.0,0.0,0.0,0.0,0.0,0.0,0.0,0.0,0.0,0.0,0.0,0.0,0.0,0.0,0.0,0.0,0.0,0.0,0.0,0.0,0.0,0.0,0.0,0.0,0.0,0.0,0.0,0.0,0.0,0.0,0.0,0.0,0.0,0.0,0.0,0.0,0.0,0.0,0.0,0.0,0.0,0.0,0.0,0.0,0.0,0.0,0.0,0.0,0.0,0.0,0.0,0.0,0.0,0.0,0.0,0.0,0.0,0.0,0.0,0.0,0.0,0.0,0.0,0.0,0.0,0.0,0.0,0.0,0.0,0.0,0.0,0.0,0.0,0.0,0.0,0.0,0.0,0.0,0.0,0.0,0.0,0.0,0.0,0.0,0.0,0.0,0.0,0.0,0.0,0.0,0.0,0.0,0.0,0.0,0.0,0.0,0.0,0.0,0.0,0.0,0.0,0.0,0.0,0.0,0.0,0.0,0.0,0.0,0.0,0.0,0.0,0.0,0.0,0.0,0.0,0.0,0.0,0.0,0.0,0.0,0.0,0.0,0.0,0.0,0.0,0.0,0.0,0.0,0.0,0.0,0.0,0.0,0.0,0.0,0.0,0.0,0.0,0.0,0.0,0.0,0.0,0.0,0.0,0.0,0.0,0.0,0.0,0.0,0.0,0.0,0.0,0.0,0.0,0.0,0.0,0.0,0.0,0.0,0.0,0.0,0.0,0.0,0.0,0.0,0.0,0.0,0.0,0.0,0.0,0.0,0.0,0.0,0.0,0.0,0.0,0.0,0.0,0.0,0.0,0.0,0.0,0.0,0.0,0.0,0.0,0.0,0.0,0.0,0.0,0.0,0.0,0.0,0.0,0.0,0.0,0.0,0.0,0.0,0.0,0.0,0.0,0.0,0.0,0.0,0.0,0.0,0.0,0.0,0.0,0.0,0.0,0.0,0.0,0.0,0.0,0.0,0.0,0.0,0.0,0.0,0.0,0.0,0.0,0.0,0.0,0.0,0.0,0.0,0.0,0.0,0.0,0.0,0.0,0.0,0.0,0.0,0.0,0.0,0.0,0.0,0.0,0.0,0.0,0.0,0.0,0.0,0.0,0.0,0.0,0.0,0.0,0.0,0.0,0.0,0.0,0.0,0.0,0.0,0.0,0.0,0.0,0.0,0.0,0.0,0.0,0.0,0.0,0.0,0.0,0.0,0.0,0.0,0.0,0.0,0.0,0.0,0.0,0.0,0.0,0.0,0.0,0.0,0.0,0.0,0.0,0.0,0.0,0.0,0.0,0.0,0.0,0.0,0.0,0.0,0.0,0.0,0.0,0.0,0.0,0.0,0.0,0.0,0.0,0.0,0.0,0.0,0.0,0.0,0.0,0.0,0.0,0.0,0.0,0.0,0.0,0.0,0.0,0.0,0.0,0.0,0.0,0.0,0.0,0.0,0.0,0.0,0.0,0.0,0.0,0.0,0.0,0.0,0.0,0.0,0.0,0.0,0.0,0.0,0.0,0.0,0.0,0.0,0.0,0.0,0.0,0.0,0.0,0.0,0.0,0.0,0.0,0.0,0.0,0.0,0.0,0.0,0.0,0.0,0.0,0.0,0.0,0.0,0.0,0.0,0.0,0.0,0.0,0.0,0.0,0.0,0.0,0.0,0.0,0.0,0.0,0.0,0.0,0.0,0.0,0.0,0.0,0.0,0.0,0.0,0.0,0.0,0.0,0.0,0.0,0.0,0.0,0.0,0.0,0.0,0.0,0.0,0.0,0.0,0.0,0.0,0.0,0.0,0.0,0.0,0.0,0.0,0.0,0.0,0.0,0.0,0.0,0.0,0.0,0.0,0.0,0.0,0.0,0.0,0.0,0.0,0.0,0.0,0.0,0.0,0.0,0.0,0.0,0.0,0.0,0.0,0.0,0.0,0.0,0.0,0.0,0.0,0.0,0.0,0.0,0.0,0.0,0.0,0.0,0.0,0.0,0.0,0.0,0.0,0.0,0.0,0.0,0.0,0.0,0.0,0.0,0.0,0.0,0.0,0.0,0.0,0.0,0.0,0.0,0.0,0.0,0.0,0.0,0.0,0.0,0.0,0.0,0.0,0.0,0.0,0.0,0.0,0.0,0.0,0.0,0.0,0.0,0.0,0.0,0.0,0.0,0.0,0.0,0.0,0.0,0.0,0.0,0.0,0.0,0.0,0.0,0.0,0.0,0.0,0.0,0.0,0.0,0.0,0.0,0.0,0.0,0.0,0.0,0.0,0.0,0.0,0.0,0.0,0.0,0.0,0.0,0.0,0.0,0.0,0.0,0.0,0.0,0.0,0.0,0.0,0.0,0.0,0.0,0.0,0.0,0.0,0.0,0.0,0.0,0.0,0.0,0.0,0.0,0.0,0.0,0.0,0.0,0.0,0.0,0.0,0.0,0.0,0.0,0.0,0.0,0.0,0.0,0.0,0.0,0.0,0.0,0.0,0.0,0.0,0.0,0.0,0.0,0.0,0.0,0.0,0.0,0.0,0.0,0.0,0.0,0.0,0.0,0.0,0.0,0.0,0.0,0.0,0.0,0.0,0.0,0.0,0.0,0.0,0.0,0.0,0.0,0.0,0.0,0.0,0.0,0.0,0.0,0.0,0.0,0.0,0.0,0.0,0.0,0.0,0.0,0.0,0.0,0.0,0.0,0.0,0.0,0.0,0.0,0.0,0.0,0.0,0.0,0.0,0.0,0.0,0.0,0.0,0.0,0.0,0.0,0.0,0.0,0.0,0.0,0.0,0.0,0.0,0.0,0.0,0.0,0.0,0.0,0.0,0.0,0.0,0.0,0.0,0.0,0.0,0.0,0.0,0.0,0.0,0.0,0.0,0.0,0.0,0.0,0.0,0.0,0.0,0.0,0.0,0.0,0.0,0.0,0.0,0.0,0.0,0.0,0.0,0.0,0.0,0.0,0.0,0.0,0.0,0.0,0.0,0.0,0.0,0.0,0.0,0.0,0.0,0.0,0.0,0.0,0.0,0.0,0.0,0.0,0.0,0.0,0.0,0.0,0.0,0.0,0.0,0.0,0.0,0.0,0.0,0.0,0.0,0.0,0.0,0.0,0.0,0.0,0.0,0.0,0.0,0.0,0.0,0.0,-0.5695,0.0,0.0,0.0,-0.8584,0.0,0.0,0.0,0.0,0.0,0.0,0.0,0.0,0.0,0.0,0.0,0.0,0.0,0.0,0.0,0.0,0.0,0.0,0.0,0.0,0.0,0.0,0.0,0.0,0.0,0.0,0.0,0.0,0.0,0.0,0.0,0.0,0.0,0.0,0.0,0.0,0.0,0.0,0.0,0.0,0.0,0.0,0.0,0.0,0.0,0.0,0.0,0.0,0.0,0.0,0.0,0.0,0.0,0.0,0.0,0.0,0.0,0.0,0.0,0.0,0.0,0.0,0.0,0.0,0.0,0.0,0.0,0.0,0.0,0.0,0.0,0.0,0.0,0.0,0.0,0.0,0.0,0.0,0.0,0.0,0.0,0.0,0.0,0.0,0.0,0.0,0.0,0.0,0.0,0.0,0.0,0.0,0.0,0.0,0.0,0.0,0.0,0.0,0.0,0.0,0.0,0.0,0.0,0.0,0.0,0.0,0.0,0.0,0.0,0.0,-0.6424,-0.7254,-0.8637,-0.9508,-0.9797,0.0,0.0,0.0,0.0,0.0,0.0,0.0,0.0,0.0,0.0,0.0,0.0,0.0,0.0,0.0,0.0,0.0,0.0,0.0,0.0,0.0,0.0,0.0,0.0,0.0,0.0,0.0,0.0,0.0,0.0,0.0,0.0,0.0,0.0,0.0,0.0,0.0,0.0,0.0,0.0,0.0,0.0,0.0,0.0,0.0,0.0,0.0,0.0,0.0,0.0,0.0,0.0,0.0,0.0,0.0,0.0,0.0,0.0,0.0,0.0,0.0,0.0,0.0,0.0,0.0,0.0,0.0,0.0,0.0,0.0,0.0,0.0,0.0,0.0,0.0,0.0,0.0,0.0,0.0,0.0,0.0,0.0,0.0,0.0,0.0,0.0,0.0,0.0,0.0,0.0,0.0,0.0,0.0,0.0,0.0,0.0,0.0,0.0,0.0,0.0,0.0,0.0,0.0,0.0,0.0,0.0,0.0,0.0,0.0,0.0,0.0,0.0,-0.9579,-1.0644,-1.0969,0.0,0.0,0.0,0.0,0.0,0.0,0.0,0.0,0.0,0.0,0.0,0.0,0.0,0.0,0.0,0.0,0.0,0.0,0.0,0.0,0.0,0.0,0.0,0.0,0.0,0.0,0.0,0.0,0.0,0.0,0.0,0.0,0.0,0.0,0.0,0.0,0.0,0.0,0.0,0.0,0.0,0.0,0.0,0.0,0.0,0.0,0.0,0.0,0.0,0.0,0.0,0.0,0.0,0.0,0.0,0.0,0.0,0.0,0.0,0.0,0.0,0.0,0.0,0.0,0.0,0.0,0.0,0.0,0.0,0.0,0.0,0.0,0.0,0.0,0.0,0.0,0.0,0.0,0.0,0.0,0.0,0.0,0.0,0.0,0.0,0.0,0.0,0.0,0.0,0.0,0.0,0.0,0.0,0.0,0.0,0.0,0.0,0.0,0.0,0.0,0.0,0.0,0.0,0.0,0.0,0.0,0.0,0.0,0.0,0.0,-0.7109,-0.8567,-1.0117,0.0,-1.2148,0.0,0.0,0.0,0.0,0.0,0.0,0.0,0.0,0.0,0.0,0.0,0.0,0.0,0.0,0.0,0.0,0.0,0.0,0.0,0.0,0.0,0.0,0.0,0.0,0.0,0.0,0.0,0.0,0.0,0.0,0.0,0.0,0.0,0.0,0.0,0.0,0.0,0.0,0.0,0.0,0.0,0.0,0.0,0.0,0.0,0.0,0.0,0.0,0.0,0.0,0.0,0.0,0.0,0.0,0.0,0.0,0.0,0.0,0.0,0.0,0.0,0.0,0.0,0.0,0.0,0.0,0.0,0.0,0.0,0.0,0.0,0.0,0.0,0.0,0.0,0.0,0.0,0.0,0.0,0.0,0.0,0.0,0.0,0.0,0.0,0.0,0.0,0.0,0.0,0.0,0.0,0.0,0.0,0.0,0.0,0.0,0.0,0.0,0.0,0.0,0.0,0.0,0.0,0.0,0.0,0.0,0.0,0.0,0.0,0.0,-0.742,-0.9099,-1.1308,-1.2779,0.0,0.0,0.0,0.0,0.0,0.0,0.0,0.0,0.0,0.0,0.0,0.0,0.0,0.0,0.0,0.0,0.0,0.0,0.0,0.0,0.0,0.0,0.0,0.0,0.0,0.0,0.0,0.0,0.0,0.0,0.0,0.0,0.0,0.0,0.0,0.0,0.0,0.0,0.0,0.0,0.0,0.0,0.0,0.0,0.0,0.0,0.0,0.0,0.0,0.0,0.0,0.0,0.0,0.0,0.0,0.0,0.0,0.0,0.0,0.0,0.0,0.0,0.0,0.0,0.0,0.0,0.0,0.0,0.0,0.0,0.0,0.0,0.0,0.0,0.0,0.0,0.0,0.0,0.0,0.0,0.0,0.0,0.0,0.0,0.0,0.0,0.0,0.0,0.0,0.0,0.0,0.0,0.0,0.0,0.0,0.0,0.0,0.0,0.0,0.0,0.0,0.0,0.0,0.0,0.0,0.0,0.0,0.0,0.0,0.0,-0.5382,-0.762,-0.9872,-1.2108,-1.3527,-1.3982,0.0,0.0,0.0,0.0,0.0,0.0,0.0,0.0,0.0,0.0,0.0,0.0,0.0,0.0,0.0,0.0,0.0,0.0,0.0,0.0,0.0,0.0,0.0,0.0,0.0,0.0,0.0,0.0,0.0,0.0,0.0,0.0,0.0,0.0,0.0,0.0,0.0,0.0,0.0,0.0,0.0,0.0,0.0,0.0,0.0,0.0,0.0,0.0,0.0,0.0,0.0,0.0,0.0,0.0,0.0,0.0,0.0,0.0,0.0,0.0,0.0,0.0,0.0,0.0,0.0,0.0,0.0,0.0,0.0,0.0,0.0,0.0,0.0,0.0,0.0,0.0,0.0,0.0,0.0,0.0,0.0,0.0,0.0,0.0,0.0,0.0,0.0,0.0,0.0,0.0,0.0,0.0,0.0,0.0,0.0,0.0,0.0,0.0,0.0,0.0,0.0,0.0,0.0,0.0,0.0,0.0,0.0,0.0,-0.2923,-0.4879,-0.7555,-1.1028,-1.218,-1.2987,0.0,0.0,0.0,0.0,0.0,0.0,0.0,0.0,0.0,0.0,0.0,0.0,0.0,0.0,0.0,0.0,0.0,0.0,0.0,0.0,0.0,0.0,0.0,0.0,0.0,0.0,0.0,0.0,0.0,0.0,0.0,0.0,0.0,0.0,0.0,0.0,0.0,0.0,0.0,0.0,0.0,0.0,0.0,0.0,0.0,0.0,0.0,0.0,0.0,0.0,0.0,0.0,0.0,0.0,0.0,0.0,0.0,0.0,0.0,0.0,0.0,0.0,0.0,0.0,0.0,0.0,0.0,0.0,0.0,0.0,0.0,0.0,0.0,0.0,0.0,0.0,0.0,0.0,0.0,0.0,0.0,0.0,0.0,0.0,0.0,0.0,0.0,0.0,0.0,0.0,0.0,0.0,0.0,0.0,0.0,0.0,0.0,0.0,0.0,0.0,0.0,0.0,0.0,0.0,0.0,0.0,0.0,0.0,0.0,-0.2509,-0.5654,-0.8518,-1.0997,-1.2175,-1.3015,0.0,0.0,0.0,0.0,0.0,0.0,0.0,0.0,0.0,0.0,0.0,0.0,0.0,0.0,0.0,0.0,0.0,0.0,0.0,0.0,0.0,0.0,0.0,0.0,0.0,0.0,0.0,0.0,0.0,0.0,0.0,0.0,0.0,0.0,0.0,0.0,0.0,0.0,0.0,0.0,0.0,0.0,0.0,0.0,0.0,0.0,0.0,0.0,0.0,0.0,0.0,0.0,0.0,0.0,0.0,0.0,0.0,0.0,0.0,0.0,0.0,0.0,0.0,0.0,0.0,0.0,0.0,0.0,0.0,0.0,0.0,0.0,0.0,0.0,0.0,0.0,0.0,0.0,0.0,0.0,0.0,0.0,0.0,0.0,0.0,0.0,0.0,0.0,0.0,0.0,0.0,0.0,0.0,0.0,0.0,0.0,0.0,0.0,0.0,0.0,0.0,0.0,0.0,0.0,0.0,0.0,0.0,0.0,0.0,-0.3031,0.0,-0.8868,-1.0534,-1.1766,-1.258,0.0,0.0,0.0,0.0,0.0,0.0,0.0,0.0,0.0,0.0,0.0,0.0,0.0,0.0,0.0,0.0,0.0,0.0,0.0,0.0,0.0,0.0,0.0,0.0,0.0,0.0,0.0,0.0,0.0,0.0,0.0,0.0,0.0,0.0,0.0,0.0,0.0,0.0,0.0,0.0,0.0,0.0,0.0,0.0,0.0,0.0,0.0,0.0,0.0,0.0,0.0,0.0,0.0,0.0,0.0,0.0,0.0,0.0,0.0,0.0,0.0,0.0,0.0,0.0,0.0,0.0,0.0,0.0,0.0,0.0,0.0,0.0,0.0,0.0,0.0,0.0,0.0,0.0,0.0,0.0,0.0,0.0,0.0,0.0,0.0,0.0,0.0,0.0,0.0,0.0,0.0,0.0,0.0,0.0,0.0,0.0,0.0,0.0,0.0,0.0,0.0,0.0,0.0,0.0,0.0,0.0,0.0,0.0,-0.1434,-0.467,-0.667,-0.8378,-0.9773,-1.0954,-1.1615,0.0,0.0,0.0,0.0,0.0,0.0,0.0,0.0,0.0,0.0,0.0,0.0,0.0,0.0,0.0,0.0,0.0,0.0,0.0,0.0,0.0,0.0,0.0,0.0,0.0,0.0,0.0,0.0,0.0,0.0,0.0,0.0,0.0,0.0,0.0,0.0,0.0,0.0,0.0,0.0,0.0,0.0,0.0,0.0,0.0,0.0,0.0,0.0,0.0,0.0,0.0,0.0,0.0,0.0,0.0,0.0,0.0,0.0,0.0,0.0,0.0,0.0,0.0,0.0,0.0,0.0,0.0,0.0,0.0,0.0,0.0,0.0,0.0,0.0,0.0,0.0,0.0,0.0,0.0,0.0,0.0,0.0,0.0,0.0,0.0,0.0,0.0,0.0,0.0,0.0,0.0,0.0,0.0,0.0,0.0,0.0,0.0,0.0,0.0,0.0,0.0,0.0,0.0,0.0,0.0,0.0,0.0,0.0,0.0,-0.4469,-0.636,-0.7966,-0.9221,-1.0345,-1.1003,0.0,0.0,0.0,0.0,0.0,0.0,0.0,0.0,0.0,0.0,0.0,0.0,0.0,0.0,0.0,0.0,0.0,0.0,0.0,0.0,0.0,0.0,0.0,0.0,0.0,0.0,0.0,0.0,0.0,0.0,0.0,0.0,0.0,0.0,0.0,0.0,0.0,0.0,0.0,0.0,0.0,0.0,0.0,0.0,0.0,0.0,0.0,0.0,0.0,0.0,0.0,0.0,0.0,0.0,0.0,0.0,0.0,0.0,0.0,0.0,0.0,0.0,0.0,0.0,0.0,0.0,0.0,0.0,0.0,0.0,0.0,0.0,0.0,0.0,0.0,0.0,0.0,0.0,0.0,0.0,0.0,0.0,0.0,0.0,0.0,0.0,0.0,0.0,0.0,0.0,0.0,0.0,0.0,0.0,0.0,0.0,0.0,0.0,0.0,0.0,0.0,0.0,0.0,0.0,0.0,0.0,0.0,0.0,0.0,-0.4452,-0.6196,-0.774,-0.8985,-0.9901,-1.0421,-1.0578,0.0,0.0,0.0,0.0,0.0,0.0,0.0,0.0,0.0,0.0,0.0,0.0,0.0,0.0,0.0,0.0,0.0,0.0,0.0,0.0,0.0,0.0,0.0,0.0,0.0,0.0,0.0,0.0,0.0,0.0,0.0,0.0,0.0,0.0,0.0,0.0,0.0,0.0,0.0,0.0,0.0,0.0,0.0,0.0,0.0,0.0,0.0,0.0,0.0,0.0,0.0,0.0,0.0,0.0,0.0,0.0,0.0,0.0,0.0,0.0,0.0,0.0,0.0,0.0,0.0,0.0,0.0,0.0,0.0,0.0,0.0,0.0,0.0,0.0,0.0,0.0,0.0,0.0,0.0,0.0,0.0,0.0,0.0,0.0,0.0,0.0,0.0,0.0,0.0,0.0,0.0,0.0,0.0,0.0,0.0,0.0,0.0,0.0,0.0,0.0,0.0,0.0,0.0,0.0,0.0,0.0,0.0,0.0,-0.4566,-0.6075,-0.7532,-0.9008,-0.9628,-0.9928,0.0,0.0,0.0,0.0,0.0,0.0,0.0,0.0,0.0,0.0,0.0,0.0,0.0,0.0,0.0,0.0,0.0,0.0,0.0,0.0,0.0,0.0,0.0,0.0,0.0,0.0,0.0,0.0,0.0,0.0,0.0,0.0,0.0,0.0,0.0,0.0,0.0,0.0,0.0,0.0,0.0,0.0,0.0,0.0,0.0,0.0,0.0,0.0,0.0,0.0,0.0,0.0,0.0,0.0,0.0,0.0,0.0,0.0,0.0,0.0,0.0,0.0,0.0,0.0,0.0,0.0,0.0,0.0,0.0,0.0,0.0,0.0,0.0,0.0,0.0,0.0,0.0,0.0,0.0,0.0,0.0,0.0,0.0,0.0,0.0,0.0,0.0,0.0,0.0,0.0,0.0,0.0,0.0,0.0,0.0,0.0,0.0,0.0,0.0,0.0,0.0,0.0,0.0,0.0,0.0,0.0,0.0,0.0,0.0,-0.4514,-0.5604,-0.6956,-0.8678,-0.9188,-0.9505,0.0,0.0,0.0,0.0,0.0,0.0,0.0,0.0,0.0,0.0,0.0,0.0,0.0,0.0,0.0,0.0,0.0,0.0,0.0,0.0,0.0,0.0,0.0,0.0,0.0,0.0,0.0,0.0,0.0,0.0,0.0,0.0,0.0,0.0,0.0,0.0,0.0,0.0,0.0,0.0,0.0,0.0,0.0,0.0,0.0,0.0,0.0,0.0,0.0,0.0,0.0,0.0,0.0,0.0,0.0,0.0,0.0,0.0,0.0,0.0,0.0,0.0,0.0,0.0,0.0,0.0,0.0,0.0,0.0,0.0,0.0,0.0,0.0,0.0,0.0,0.0,0.0,0.0,0.0,0.0,0.0,0.0,0.0,0.0,0.0,0.0,0.0,0.0,0.0,0.0,0.0,0.0,0.0,0.0,0.0,0.0,0.0,0.0,0.0,0.0,0.0,0.0,0.0,0.0,0.0,0.0,0.0,0.0,-0.2807,-0.4345,-0.5356,-0.6532,-0.7865,-0.8511,-0.8965,0.0,0.0,0.0,0.0,0.0,0.0,0.0,0.0,0.0,0.0,0.0,0.0,0.0,0.0,0.0,0.0,0.0,0.0,0.0,0.0,0.0,0.0,0.0,0.0,0.0,0.0,0.0,0.0,0.0,0.0,0.0,0.0,0.0,0.0,0.0,0.0,0.0,0.0,0.0,0.0,0.0,0.0,0.0,0.0,0.0,0.0,0.0,0.0,0.0,0.0,0.0,0.0,0.0,0.0,0.0,0.0,0.0,0.0,0.0,0.0,0.0,0.0,0.0,0.0,0.0,0.0,0.0,0.0,0.0,0.0,0.0,0.0,0.0,0.0,0.0,0.0,0.0,0.0,0.0,0.0,0.0,0.0,0.0,0.0,0.0,0.0,0.0,0.0,0.0,0.0,0.0,0.0,0.0,0.0,0.0,0.0,0.0,0.0,0.0,0.0,0.0,0.0,0.0,0.0,0.0,0.0,0.0,0.0,-0.2516,-0.4014,-0.5103,-0.6041,-0.6864,-0.7667,-0.8286,0.0,0.0,0.0,0.0,0.0,0.0,0.0,0.0,0.0,0.0,0.0,0.0,0.0,0.0,0.0,0.0,0.0,0.0,0.0,0.0,0.0,0.0,0.0,0.0,0.0,0.0,0.0,0.0,0.0,0.0,0.0,0.0,0.0,0.0,0.0,0.0,0.0,0.0,0.0,0.0,0.0,0.0,0.0,0.0,0.0,0.0,0.0,0.0,0.0,0.0,0.0,0.0,0.0,0.0,0.0,0.0,0.0,0.0,0.0,0.0,0.0,0.0,0.0,0.0,0.0,0.0,0.0,0.0,0.0,0.0,0.0,0.0,0.0,0.0,0.0,0.0,0.0,0.0,0.0,0.0,0.0,0.0,0.0,0.0,0.0,0.0,0.0,0.0,0.0,0.0,0.0,0.0,0.0,0.0,0.0,0.0,0.0,0.0,0.0,0.0,0.0,0.0,0.0,0.0,0.0,0.0,0.0,0.0,-0.166,-0.3157,-0.4199,-0.5084,-0.5879,-0.7062,-0.7657,0.0,0.0,0.0,0.0,0.0,0.0,0.0,0.0,0.0,0.0,0.0,0.0,0.0,0.0,0.0,0.0,0.0,0.0,0.0,0.0,0.0,0.0,0.0,0.0,0.0,0.0,0.0,0.0,0.0,0.0,0.0,0.0,0.0,0.0,0.0,0.0,0.0,0.0,0.0,0.0,0.0,0.0,0.0,0.0,0.0,0.0,0.0,0.0,-0.8341,0.0,0.0,0.0,0.0,0.0,0.0,0.0,0.0,0.0,0.0,0.0,0.0,0.0,0.0,0.0,0.0,0.0,0.0,0.0,0.0,0.0,0.0,0.0,0.0,0.0,0.0,0.0,0.0,0.0,0.0,0.0,0.0,0.0,0.0,0.0,0.0,0.0,0.0,0.0,0.0,0.0,0.0,0.0,0.0,0.0,0.0,0.0,0.0,0.0,0.0,0.0,0.0,0.0,0.0,0.0,0.0,0.0,0.0,0.0,-0.0996,-0.2441,-0.3453,-0.4326,-0.512,-0.6012,-0.6583,0.0,0.0,0.0,0.0,0.0,0.0,0.0,0.0,0.0,0.0,0.0,0.0,0.0,0.0,0.0,0.0,0.0,0.0,0.0,0.0,0.0,0.0,0.0,0.0,0.0,0.0,0.0,0.0,0.0,0.0,0.0,0.0,0.0,0.0,0.0,0.0,0.0,0.0,0.0,0.0,0.0,0.0,0.0,0.0,0.0,0.0,0.0,0.0,0.0,0.0,0.0,0.0,0.0,0.0,0.0,0.0,0.0,0.0,0.0,0.0,0.0,0.0,0.0,0.0,0.0,0.0,0.0,0.0,0.0,0.0,0.0,0.0,0.0,0.0,0.0,0.0,0.0,0.0,0.0,0.0,0.0,0.0,0.0,0.0,0.0,0.0,0.0,0.0,0.0,0.0,0.0,0.0,0.0,0.0,0.0,0.0,0.0,0.0,0.0,0.0,0.0,0.0,0.0,0.0,0.0,0.0,0.0,0.1001,-0.022,-0.1681,-0.2756,-0.3613,-0.4367,-0.4905,-0.5407,-0.5897,0.0,0.0,0.0,0.0,0.0,0.0,0.0,0.0,0.0,0.0,0.0,0.0,0.0,0.0,0.0,0.0,0.0,0.0,0.0,0.0,0.0,0.0,0.0,0.0,0.0,0.0,0.0,0.0,0.0,0.0,0.0,0.0,0.0,0.0,0.0,0.0,0.0,0.0,0.462,0.2242,0.0,0.0,0.0,0.0,0.0,0.0,0.0,0.0,-0.9972,0.0,0.0,0.0,0.0,0.0,0.0,0.0,0.0,0.0,0.0,0.0,0.0,0.0,0.0,0.0,0.0,0.0,0.0,0.0,0.0,0.0,0.0,0.0,0.0,0.0,0.0,0.0,0.0,0.0,0.0,0.0,0.0,0.0,0.0,0.0,0.0,0.0,0.0,0.0,0.0,0.0,0.0,0.0,0.0,0.0,0.0,0.0,0.0,0.0,0.0,0.0,0.0,0.0,0.0,0.0,0.0,0.3083,0.2159,0.0991,-0.0448,-0.1625,-0.2635,-0.3389,-0.4125,-0.4432,-0.4388,0.0,0.0,0.0,0.0,0.0,0.0,0.0,0.0,0.0,0.0,0.0,0.0,0.0,0.0,0.0,0.0,0.0,0.0,0.0,0.0,0.0,0.0,0.0,0.0,0.0,0.0,0.0,0.0,0.0,0.0,0.0,0.0,0.0,0.0,0.0,0.0,0.0,0.0,0.0,0.1322,-0.0388,0.0,0.0,0.0,0.0,0.0,0.0,0.0,0.0,-1.0218,0.0,0.0,0.0,0.0,0.0,0.0,0.0,0.0,0.0,0.0,0.0,0.0,0.0,0.0,0.0,0.0,0.0,0.0,0.0,0.0,0.0,0.0,0.0,0.0,0.0,0.0,0.0,0.0,0.0,0.0,0.0,0.0,0.0,0.0,0.0,0.0,0.0,0.0,0.0,0.0,0.0,0.0,0.0,0.0,0.0,0.0,0.0,0.0,0.0,0.0,0.0,0.0,0.0,0.0,0.0,0.3524,0.2677,0.1655,0.0539,-0.0668,-0.163,-0.2434,-0.3098,-0.3524,0.0,0.0,0.0,0.0,0.0,0.0,0.0,0.0,0.0,0.0,0.0,0.0,0.0,0.0,0.0,0.0,0.0,0.0,0.0,0.0,0.0,0.0,0.0,0.0,0.0,0.0,0.0,0.0,0.0,0.0,0.0,0.0,0.0,0.0,0.0,0.0,0.0,0.0,0.0,0.0,0.0886,-0.0756,-0.2571,0.0,0.0,0.0,0.0,0.0,0.0,-0.9486,-1.0336,0.0,0.0,0.0,0.0,0.0,0.0,0.0,0.0,0.0,0.0,0.0,0.0,0.0,0.0,0.0,0.0,0.0,0.0,0.0,0.0,0.0,0.0,0.0,0.0,0.0,0.0,0.0,0.0,0.0,0.0,0.0,0.0,0.0,0.0,0.0,0.0,0.0,0.0,0.0,0.0,0.0,0.0,0.0,0.0,0.0,0.0,0.0,0.0,0.0,0.0,0.0,0.0,0.0,0.0,0.0,0.3949,0.3124,0.2333,0.1453,0.0374,-0.0648,-0.1492,-0.2063,-0.2629,0.0,0.0,0.0,0.0,0.0,0.0,0.0,0.0,0.0,0.0,0.0,0.0,0.0,0.0,0.0,0.0,0.0,0.0,0.0,0.0,0.0,0.0,0.0,0.0,0.0,0.0,0.0,0.0,0.0,0.0,0.0,0.0,0.0,0.0,0.0,0.0,0.0,0.0,0.0,0.0,0.0,-0.1304,-0.289,-0.4352,0.0,0.0,0.0,0.0,-0.822,-0.9408,0.0,0.0,0.0,0.0,0.0,0.0,0.0,0.0,0.0,0.0,0.0,0.0,0.0,0.0,0.0,0.0,0.0,0.0,0.0,0.0,0.0,0.0,0.0,0.0,0.0,0.0,0.0,0.0,0.0,0.0,0.0,0.0,0.0,0.0,0.0,0.0,0.0,0.0,0.0,0.0,0.0,0.0,0.0,0.0,0.0,0.0,0.0,0.0,0.0,0.0,0.0,0.0,0.0,0.0,0.0,0.0,0.4757,0.4182,0.3371,0.2284,0.1427,0.048,-0.0639,-0.1342,-0.1759,0.0,0.0,0.0,0.0,0.0,0.0,0.0,0.0,0.0,0.0,0.0,0.0,0.0,0.0,0.0,0.0,0.0,0.0,0.0,0.0,0.0,0.0,0.0,0.0,0.0,0.0,0.0,0.0,0.0,0.0,0.0,0.0,0.0,0.0,0.0,0.0,0.0,0.0,0.0,0.0,0.0,-0.2089,-0.3646,-0.4865,-0.5889,0.0,0.0,-0.731,-0.7942,-0.8697,0.0,0.0,0.0,0.0,0.0,0.0,0.0,0.0,0.0,0.0,0.0,0.0,0.0,0.0,0.0,0.0,0.0,0.0,0.0,0.0,0.0,0.0,0.0,0.0,0.0,0.0,0.0,0.0,0.0,0.0,0.0,0.0,0.0,0.0,0.0,0.0,0.0,0.0,0.0,0.0,0.0,0.0,0.0,0.0,0.0,0.0,0.0,0.0,0.0,0.0,0.0,0.0,0.0,0.0,0.0,0.5905,0.5317,0.4585,0.3939,0.3315,0.2366,0.1497,0.0723,0.0101,-0.0441,0.0,0.0,0.0,0.0,0.0,0.0,0.0,0.0,0.0,0.0,0.0,0.0,0.0,0.0,0.0,0.0,0.0,0.0,0.0,0.0,0.0,0.0,0.0,0.0,0.0,0.0,0.0,0.0,0.0,0.0,0.0,0.0,0.0,0.0,0.0,0.0,0.0,0.0,0.0,0.0,0.0,0.0,-0.4167,-0.5271,0.0,0.0,0.0,-0.7375,-0.7852,0.0,0.0,0.0,0.0,0.0,0.0,0.0,0.0,0.0,0.0,0.0,0.0,0.0,0.0,0.0,0.0,0.0,0.0,0.0,0.0,0.0,0.0,0.0,0.0,0.0,0.0,0.0,0.0,0.0,0.0,0.0,0.0,0.0,0.0,0.0,0.0,0.0,0.0,0.0,0.0,0.0,0.0,0.0,0.0,0.0,0.0,0.0,0.0,0.0,0.0,0.0,0.0,0.0,0.0,0.0,0.0,0.0,0.5787,0.5043,0.45,0.418,0.3377,0.2615,0.2001,0.1524,0.0,0.0,0.0,0.0,0.0,0.0,0.0,0.0,0.0,0.0,0.0,0.0,0.0,0.0,0.0,0.0,0.0,0.0,0.0,0.0,0.0,0.0,0.0,0.0,0.0,0.0,0.0,0.3608,0.0,0.0,0.0,0.0,0.0,0.0,0.0,0.0,0.0,0.0,0.0,0.0,0.0,0.0,-0.3181,-0.4689,-0.5656,-0.6496,0.0,0.0,-0.7445,-0.7738,-0.8096,-0.8412,0.0,0.0,0.0,0.0,0.0,0.0,0.0,0.0,0.0,0.0,0.0,0.0,0.0,0.0,0.0,0.0,0.0,0.0,0.0,0.0,0.0,0.0,0.0,0.0,0.0,0.0,0.0,0.0,0.0,0.0,0.0,0.0,0.0,0.0,0.0,0.0,0.0,0.0,0.0,0.0,0.0,0.0,0.0,0.0,0.0,0.0,0.0,0.0,0.0,0.0,0.0,0.0,0.0,0.0,0.6779,0.6349,0.5909,0.5382,0.478,0.4431,0.3844,0.3042,0.2743,0.2246,0.0,0.0,0.0,0.0,0.0,0.0,0.0,0.0,0.0,0.0,0.0,0.0,0.0,0.0,0.0,0.0,0.0,0.0,0.0,0.0,0.0,0.0,0.0,0.0,0.0,0.0,0.0,0.0,0.0,0.0,0.0,0.0,0.0,0.0,0.0,0.0,0.0,0.0,0.0,0.0,0.0,-0.3962,-0.5174,-0.6179,-0.6863,0.0,-0.722,-0.7271,-0.7428,-0.7354,-0.7352,-0.7462,0.0,0.0,0.0,0.0,0.0,0.0,0.0,0.0,0.0,0.0,0.0,0.0,0.0,0.0,0.0,0.0,0.0,0.0,0.0,0.0,0.0,0.0,0.0,0.0,0.0,0.0,0.0,0.0,0.0,0.0,0.0,0.0,0.0,0.0,0.0,0.0,0.0,0.0,0.0,0.0,0.0,0.0,0.0,0.0,0.0,0.0,0.0,0.0,0.0,0.0,0.0,0.0,0.0,0.6912,0.6931,0.6419,0.6158,0.6124,0.565,0.5185,0.4789,0.4173,0.357,0.0,0.0,0.0,0.0,0.0,0.0,0.0,0.0,0.0,0.0,0.0,0.0,0.0,0.0,0.0,0.0,0.0,0.0,0.0,0.0,0.0,0.0,0.0,0.0,0.0,0.0,0.0,0.0,0.2198,0.1962,0.169,0.0,0.0,0.0,0.0,0.0,0.0,0.0,0.0,0.0,0.0,-0.4067,-0.5501,-0.619,0.0,0.0,-0.7111,-0.7056,-0.7354,-0.724,-0.7106,-0.7186,-0.6974,0.0,0.0,0.0,0.0,0.0,0.0,0.0,0.0,0.0,0.0,0.0,0.0,0.0,0.0,0.0,0.0,0.0,0.0,0.0,0.0,0.0,0.0,0.0,0.0,0.0,0.0,0.0,0.0,0.0,0.0,0.0,0.0,0.0,0.0,0.0,0.0,0.0,0.0,0.0,0.0,0.0,0.0,0.0,0.0,0.0,0.0,0.0,0.0,0.0,0.0,0.0,0.0,0.7129,0.7431,0.703,0.6954,0.7221,0.67,0.6388,0.6198,0.5608,0.5,0.0,0.0,0.0,0.0,0.0,0.0,0.0,0.0,0.0,0.0,0.0,0.0,0.0,0.0,0.0,0.0,0.0,0.0,0.0,0.0,0.0,0.0,0.0,0.0,0.0,0.0,0.0,0.0,0.2118,0.2003,0.1807,0.0,0.0,0.0,0.0,0.0,0.0,0.0,0.0,0.0,0.0,-0.4122,-0.555,-0.6143,-0.6655,-0.7093,-0.6964,-0.6873,-0.713,-0.6991,-0.6884,-0.6834,0.0,0.0,0.0,0.0,0.0,0.0,0.0,0.0,0.0,0.0,0.0,0.0,0.0,0.0,0.0,0.0,0.0,0.0,0.0,0.0,0.0,0.0,0.0,0.0,0.0,0.0,0.0,1.5149,0.0,0.0,1.4569,0.0,0.0,0.0,0.0,0.0,0.0,0.0,0.0,0.0,0.0,0.0,0.0,0.0,0.0,0.0,0.0,0.0,0.0,0.0,0.0,0.0,0.0,0.7728,0.7812,0.7708,0.7698,0.779,0.7583,0.7372,0.7167,0.703,0.6505,0.5588,0.0,0.0,0.0,0.0,0.0,0.0,0.0,0.0,0.0,0.0,0.0,0.0,0.0,0.0,0.0,0.0,0.0,0.0,0.0,0.0,0.0,0.0,0.0,0.0,0.0,0.0,0.2273,0.2042,0.1847,0.0,0.0,0.0,0.0,0.0,0.0,0.0,0.0,0.0,0.0,-0.3052,-0.4165,-0.5229,-0.5993,-0.6479,-0.6764,-0.6804,-0.6757,-0.6649,-0.6622,-0.6499,0.0,0.0,0.0,0.0,0.0,0.0,0.0,0.0,0.0,0.0,0.0,0.0,0.0,0.0,0.0,0.0,0.0,0.0,0.0,0.0,0.0,0.0,0.0,0.0,0.0,0.0,0.0,1.6016,1.571,0.0,0.0,0.0,0.0,0.0,0.0,0.0,0.0,0.0,0.0,0.0,1.4391,1.3815,0.0,0.0,0.0,0.0,0.0,0.0,0.0,0.0,0.0,0.0,0.0,0.0,0.7911,0.8313,0.8106,0.8063,0.8258,0.8128,0.8056,0.8092,0.7664,0.7087,0.6325,0.0,0.0,0.0,0.0,0.0,0.0,0.0,0.0,0.0,0.0,0.0,0.0,0.0,0.0,0.0,0.0,0.0,0.0,0.0,0.0,0.0,0.0,0.0,0.0,0.0,0.3295,0.0,0.0,0.0,0.0,0.0,0.0,0.0,0.0,0.0,0.0,0.0,-0.0951,-0.1629,-0.2755,-0.3772,-0.4642,-0.522,-0.579,0.0,0.0,0.0,0.0,0.0,0.0,0.0,0.0,0.0,0.0,0.0,0.0,0.0,0.0,-0.9678,-1.0123,-1.0217,-1.042,-1.0754,0.0,0.0,0.0,0.0,0.0,0.0,0.0,0.0,0.0,0.0,0.0,0.0,0.0,0.0,1.6868,0.0,1.6112,0.0,0.0,0.0,0.0,0.0,0.0,0.0,0.0,1.5571,1.5577,1.5658,1.5275,1.4955,0.0,1.3994,1.2836,0.0,0.0,0.0,0.0,0.0,0.0,0.0,0.0,0.8345,0.87,0.8613,0.8583,0.8733,0.8603,0.8512,0.8597,0.8129,0.7613,0.7058,0.6437,0.584,0.0,0.0,0.0,0.0,0.0,0.0,0.0,0.0,0.0,0.0,0.0,0.0,0.0,0.0,0.0,0.0,0.0,0.0,0.0,0.0,0.0,0.0,0.0,0.3608,0.0,0.0,0.0,0.0,0.0,0.0,0.0,0.0,0.0,0.0305,-0.0312,-0.0956,-0.1386,-0.2331,-0.3203,-0.3981,0.0,0.0,0.0,0.0,0.0,0.0,0.0,-0.6189,-0.6196,-0.6075,-0.6197,-0.671,-0.7566,-0.8415,-0.9049,0.0,0.0,-1.0705,-1.0884,-1.1046,-1.1299,-1.1705,-1.1987,-1.1987,-1.2116,-1.2198,0.0,0.0,0.0,0.0,0.0,0.0,0.0,0.0,1.838,1.783,0.0,1.7047,0.0,0.0,0.0,0.0,0.0,1.607,0.0,0.0,1.6672,1.6916,1.692,1.6832,1.6658,1.6307,1.5401,1.4621,1.3954,1.2076,0.0,0.0,0.0,0.0,0.0,0.0,0.905,0.9046,0.9249,0.9261,0.9201,0.9049,0.8907,0.8841,0.8464,0.8123,0.7792,0.7339,0.6738,0.6018,0.5956,0.0,0.0,0.0,0.0,0.0,0.0,0.0,0.0,0.0,0.0,0.0,0.0,0.0,0.0,0.0,0.0,0.0,0.0,0.0,0.0,0.4194,0.0,0.0,0.0,0.0,0.0,0.0,0.0,0.0,0.0,0.0,0.0305,-0.0316,-0.0878,-0.1108,0.0,0.0,0.0,0.0,-0.4131,-0.4849,-0.518,-0.5419,-0.5661,-0.5892,-0.6043,-0.5934,0.0,0.0,-0.6703,-0.745,-0.8249,-0.9092,-0.9547,-1.0119,-1.0801,-1.1439,-1.1892,-1.1972,-1.2334,-1.265,-1.2693,-1.2644,-1.2662,2.4723,0.0,0.0,0.0,0.0,2.1752,2.146,2.1151,2.069,2.0036,1.925,1.8664,0.0,0.0,0.0,0.0,0.0,0.0,1.6605,1.6969,1.7141,1.7439,1.7897,1.7624,1.7515,1.7463,1.6576,1.5856,1.5339,1.4193,1.2856,1.1404,0.0,0.0,0.0,0.0,0.996,1.0136,0.9933,0.9809,0.9772,0.9722,0.9678,0.964,0.9542,0.9444,0.9338,0.8773,0.8273,0.7925,0.7197,0.0,0.0,0.0,0.0,0.0,0.0,0.0,0.0,0.0,0.0,0.0,0.0,0.0,0.0,0.0,0.0,0.0,0.0,0.0,0.5157,0.4737,0.4309,0.0,0.0,0.0,0.0,0.0,0.0,0.0,0.0,0.0,0.04,-0.0135,-0.0543,0.0,0.0,-0.1642,-0.2192,-0.2646,-0.3206,-0.4042,0.0,0.0,0.0,-0.5642,-0.5838,-0.6024,-0.6219,-0.6392,-0.6542,-0.7113,-0.7674,-0.8277,-0.8768,-0.9358,-1.0064,-1.0919,-1.1645,-1.2155,-1.2406,-1.2528,-1.2662,-1.2705,-1.2705,2.676,2.5451,2.4916,2.4281,2.3681,2.3401,2.3021,2.2513,2.2257,2.1658,2.0866,2.0238,1.9482,1.8593,1.7644,0.0,0.0,0.0,1.7072,1.7286,1.7564,1.7906,1.8279,1.8216,1.8134,1.8055,1.7339,1.6748,1.6262,1.5471,1.4503,1.3352,0.0,0.0,1.1782,1.1263,1.1015,1.1054,1.0811,1.0603,1.0424,1.0294,1.0207,1.025,1.0255,1.0212,1.012,0.9742,0.9341,0.8963,0.8217,0.7709,0.0,0.0,0.0,0.0,0.0,0.0,0.0,0.0,0.0,0.0,0.0,0.6135,0.6022,0.0,0.0,0.0,0.5774,0.5692,0.547,0.5207,0.0,0.0,0.0,0.0,0.0,0.0,0.0,0.1348,0.1019,0.0807,0.0673,0.0314,-0.009,-0.0359,-0.0718,-0.1076,-0.148,0.0,-0.234,-0.3188,-0.3788,-0.4356,-0.5009,-0.5336,-0.5636,-0.5888,-0.6083,-0.6219,-0.6357,-0.6633,-0.7001,-0.7453,-0.7974,-0.8483,-0.9242,-1.0066,-1.0982,-1.1929,-1.2277,-1.2491,-1.2662,-1.2705,-1.2705,2.8318,2.7978,2.7194,2.6288,2.5434,2.5147,2.4514,2.3673,2.3277,2.2839,2.241,2.1768,2.0997,2.0061,1.8832,0.0,1.7531,1.7679,1.7623,1.7424,1.8053,1.8364,1.8359,1.8631,1.8607,1.8335,1.7793,1.7325,1.6904,1.6122,1.565,1.5428,1.42,1.3189,1.2508,1.2425,1.2224,1.1892,1.1864,1.1628,1.1198,1.0939,1.0809,1.0804,1.0804,1.0722,1.0511,1.0467,1.0201,0.962,0.9119,0.8639,0.829,0.0,0.0,0.0,0.0,0.0,0.0,0.0,0.0,0.0,0.0,0.0,0.0,0.0,0.0,0.6282,0.6044,0.0,0.5676,0.5637,0.0,0.0,0.0,0.4267,0.3528,0.2879,0.2308,0.1825,0.0,0.0,0.116,0.0892,0.0491,-0.0224,-0.0493,-0.0718,-0.0987,-0.1256,-0.1614,-0.2332,-0.305,-0.3767,-0.4454,-0.5072,-0.5476,-0.5665,-0.5688,-0.5791,-0.6011,-0.6097,-0.6269,-0.6678,-0.7098,-0.7625,-0.8281,-0.9034,-0.9937,-1.1252,-1.1955,-1.2406,-1.2613,-1.2662,-1.2693,2.8806,2.8582,2.8381,2.7726,2.678,2.6217,2.5851,2.5562,2.4935,2.4325,2.3753,2.3443,2.2442,2.0989,2.0592,1.9829,1.8765,1.8811,1.8687,1.839,1.8515,1.8643,1.87,1.8788,1.8742,1.8615,1.8021,1.7609,1.7333,1.6614,1.6147,1.5906,1.5411,1.4752,1.3924,1.3482,1.3268,1.3254,1.3063,1.2918,1.2839,1.2753,1.2619,1.2443,1.2443,1.2357,1.2149,1.18,1.1515,1.1358,1.0429,0.9867,0.9767,0.9193,0.0,0.0,0.0,0.0,0.0,0.0,0.0,0.0,0.0,0.6911,0.6641,0.0,0.6084,0.0,0.6006,0.6018,0.6135,0.5944,0.0,0.0,0.5104,0.4576,0.3783,0.3471,0.3098,0.2525,0.2226,0.1958,0.154,0.1281,0.0988,0.0481,0.0267,-0.0045,-0.0493,-0.0942,-0.1301,-0.1659,-0.2464,-0.327,-0.3853,-0.4748,-0.5458,-0.5688,-0.5686,-0.5733,-0.5774,-0.5774,-0.5911,-0.6216,-0.6476,-0.6915,-0.761,-0.8281,-0.9048,-0.9961,-1.1022,-1.1972,-1.2363,-1.2571,-1.2644,2.8914,2.8803,2.8803,2.8486,2.7927,2.7324,2.6801,2.639,2.5991,2.5433,2.4807,2.4252,2.3279,2.2,2.1678,2.0906,1.9826,1.9659,1.9303,1.882,1.8929,1.8873,1.8781,1.8781,1.8748,1.8573,1.8033,1.7664,1.7368,1.6742,1.6353,1.6196,1.5997,1.5575,1.4977,1.4524,1.4192,1.4026,1.3808,1.373,1.3695,1.3688,1.3646,1.3519,1.347,1.3343,1.3003,1.2632,1.2313,1.2133,1.1201,1.0693,1.0688,1.0143,0.9739,0.0,0.0,0.0,0.0,0.0,0.0,0.0,0.0,0.0,0.0,0.0,0.6356,0.628,0.6242,0.628,0.6293,0.6177,0.6002,0.5783,0.5528,0.5082,0.4391,0.4151,0.3772,0.3173,0.2911,0.26,0.2106,0.1766,0.1435,0.1027,0.078,0.0483,0.0045,-0.0359,-0.0762,-0.1211,-0.1928,-0.2723,-0.3544,-0.4418,-0.5102,-0.5364,-0.5437,-0.544,-0.5529,-0.5572,-0.5613,-0.5783,-0.5956,-0.6254,-0.681,-0.7411,-0.8098,-0.8837,-0.9876,-1.092,-1.1737,-1.2064,-1.2182,2.8858,2.8803,2.8803,2.8803,2.876,2.8244,2.7489,2.6671,2.6606,2.6226,2.558,2.4775,2.3959,2.3124,2.252,2.1765,2.089,2.0522,1.9955,1.9243,1.9323,1.9188,1.892,1.888,1.8696,1.8377,1.7986,1.7599,1.7313,1.6739,1.6435,1.6435,1.6245,1.6038,1.5775,1.5416,1.4999,1.4524,1.4356,1.4272,1.4257,1.4279,1.4237,1.4208,1.4203,1.3959,1.3545,1.3144,1.2798,1.2451,1.1742,1.1349,1.1349,1.0916,1.055,0.0,1.0368,0.0,0.0,0.0,0.0,0.0,0.0,0.0,0.0,0.7173,0.6865,0.6679,0.6679,0.6563,0.6377,0.6338,0.6276,0.6098,0.5953,0.5638,0.5139,0.4866,0.4485,0.3849,0.3553,0.326,0.2748,0.2333,0.1917,0.1505,0.1216,0.0937,0.0572,0.0222,-0.0222,-0.089,-0.1424,-0.2289,-0.3299,-0.4019,-0.4509,-0.4848,-0.5006,-0.5074,-0.534,-0.5382,-0.5377,-0.5421,-0.5558,-0.5761,-0.5996,-0.6584,-0.7146,-0.7823,-0.8616,-0.9595,-1.0851,-1.1451,-1.1594,2.9164,2.8814,2.8803,2.8803,2.8771,2.8244,2.7674,2.7162,2.6748,2.6311,2.5822,2.5672,2.5202,2.4506,2.4168,2.34,2.2373,2.1901,2.1212,2.0307,2.0167,1.9882,1.9425,1.913,1.895,1.8807,1.8048,1.7615,1.7542,1.6946,1.6648,1.6607,1.6443,1.6319,1.627,0.0,0.0,0.0,1.5173,1.5124,1.5131,1.5131,1.509,1.4915,1.4626,0.0,1.4111,1.3621,1.3253,1.316,1.2544,0.0,0.0,0.0,0.0,0.0,0.0,0.0,0.0,0.0,0.0,0.0,0.9652,0.8899,0.8063,0.7488,0.7142,0.7103,0.6945,0.6749,0.656,0.6563,0.6432,0.6138,0.6077,0.5888,0.5521,0.5452,0.517,0.4668,0.4245,0.3849,0.3306,0.2742,0.2323,0.2033,0.1719,0.1408,0.1185,0.0639,0.0128,-0.0213,-0.1026,-0.1916,-0.2625,-0.3214,-0.3752,-0.4153,-0.4448,-0.4694,-0.502,-0.5147,-0.5235,-0.5355,-0.5455,-0.5527,-0.5735,-0.6037,-0.6463,-0.6936,-0.7482,-0.8413,-1.0174,-1.0985,-1.1341,2.9022,0.0,2.8803,2.8803,0.0,2.8244,2.7718,2.7282,2.6791,2.6354,2.5906,2.5895,2.5639,2.5256,2.4967,2.4342,2.3488,2.3018,2.229,2.1329,2.0882,2.0366,1.9785,1.9396,1.9038,1.881,1.8313,1.7954,1.7648,1.7352,1.7139,1.7017,1.6935,1.6853,1.6722,1.6443,1.5989,1.5541,1.5465,1.5389,1.5389,1.5389,1.534,1.5249,0.0,0.0,0.0,0.0,0.0,0.0,0.0,0.0,0.0,0.0,0.0,1.1892,1.1855,1.1706,1.1409,1.1298,1.1117,1.0818,1.0255,0.9463,0.8479,0.8025,0.7757,0.7646,0.7369,0.7096,0.6911,0.6714,0.6553,0.6356,0.6251,0.6086,0.5824,0.5758,0.5545,0.5037,0.4662,0.4271,0.3638,0.3138,0.2699,0.2422,0.2046,0.1747,0.1615,0.1065,0.0547,0.0168,-0.0631,-0.1339,-0.174,-0.2273,-0.2835,-0.3219,-0.3572,-0.3934,-0.4382,-0.4544,-0.4693,-0.4883,-0.4944,-0.501,-0.5185,-0.5407,-0.5654,-0.6003,-0.6491,-0.7261,-0.8632,-0.9625,-1.0434,2.8943,2.8932,2.8943,2.8885,2.8806,2.8202,2.7588,2.7031,0.0,0.0,0.0,2.5895,2.5822,2.5644,2.538,2.4904,2.4257,2.3786,2.3036,2.2133,2.1491,2.0868,2.021,1.9778,1.93,1.8878,1.8726,1.8413,1.7951,1.7861,1.77,1.7554,1.7514,1.7424,1.7212,1.6804,1.6394,1.5982,1.5707,1.5506,1.5465,1.5465,1.5431,1.5389,1.5017,1.4732,1.4604,1.4007,1.3542,1.3346,1.3107,1.2936,1.2973,1.2936,1.2753,1.2452,1.2415,1.2268,1.1929,1.1855,1.1607,1.1119,1.0636,0.9943,0.8927,0.867,0.8479,0.8293,0.7868,0.7587,0.7333,0.6942,0.6663,0.6599,0.6409,0.6176,0.5943,0.5905,0.567,0.5225,0.4992,0.4617,0.3985,0.354,0.3132,0.2771,0.2421,0.2079,0.1952,0.1406,0.0855,0.0448,-0.0162,-0.069,-0.0842,-0.1351,-0.1859,-0.2176,-0.2593,-0.3016,-0.3444,-0.3754,-0.3993,-0.427,-0.435,-0.4511,-0.4647,-0.4834,-0.5017,-0.5195,-0.5669,-0.6253,-0.7037,-0.81,-0.9195,2.9393,2.9393,2.9393,2.9255,2.8969,2.8132,2.7107,2.6114,2.6037,2.5961,2.5906,2.5895,2.5895,2.5853,2.5644,2.5155,2.4428,2.3971,2.3265,0.0,2.186,2.1467,2.1165,2.0439,2.0044,1.9929,1.9286,1.8896,1.8803,1.8425,1.8175,1.8144,1.7991,1.7919,1.7838,1.7473,1.7229,1.7147,1.6409,1.5914,1.5658,1.565,1.5582,1.5401,1.4853,1.4538,1.4477,1.3871,1.3528,1.3484,1.3258,1.3156,1.3163,1.301,1.2856,1.282,1.2826,1.279,1.2746,1.2415,1.1862,1.1129,1.0918,1.0468,0.9561,0.9284,0.9089,0.8894,0.8504,0.8098,0.7766,0.7335,0.6982,0.6634,0.6313,0.6092,0.607,0.5957,0.5725,0.5482,0.5258,0.4999,0.4493,0.4097,0.3731,0.3344,0.2926,0.2543,0.2073,0.1475,0.1042,0.0782,0.0372,0.0074,-0.0075,-0.0482,-0.0966,-0.118,-0.1663,-0.2149,-0.2629,-0.2925,-0.3285,-0.3659,-0.3949,-0.4193,-0.4385,-0.4617,-0.4778,-0.4982,-0.5268,-0.5682,-0.6371,-0.7123,-0.8028,2.9743,2.9542,2.9531,2.9283,2.8788,2.7734,2.6797,2.6085,2.5937,2.5895,2.5895,2.5895,2.5895,2.5895,2.5822,2.5373,2.4652,2.4446,2.3834,2.295,2.2493,2.21,2.1738,2.1174,2.078,2.0554,2.0224,1.9893,1.9657,1.9411,1.9213,1.9015,1.8816,1.8674,1.8523,1.8264,1.8023,1.7919,1.6943,1.6368,1.6237,1.6147,1.6023,1.5906,1.5232,1.4808,1.4801,1.4171,1.3811,1.3848,1.3739,1.3695,1.3695,1.3492,1.3339,1.3229,1.2963,1.2756,1.2612,1.2196,1.1728,1.1252,1.1099,1.0804,1.0138,0.9994,0.9793,0.9373,0.8986,0.8559,0.811,0.7617,0.7222,0.7036,0.6634,0.6384,0.6344,0.6197,0.5987,0.5701,0.5508,0.5234,0.4743,0.4492,0.4181,0.3767,0.342,0.3002,0.2445,0.2131,0.1765,0.1267,0.0911,0.0692,0.0583,0.0146,-0.0218,-0.0328,-0.0838,-0.1348,-0.1784,-0.2112,-0.2533,-0.3074,-0.3386,-0.3681,-0.399,-0.4213,-0.4391,-0.4596,-0.4768,-0.5159,-0.575,-0.6631,-0.7817,3.0154,2.9669,2.9669,2.9274,2.8522,2.7476,2.6703,2.6293,2.6063,2.5979,2.5979,2.5937,2.5895,2.5895,2.5895,2.5485,2.4811,2.4757,2.4221,2.3319,2.296,2.2607,2.2206,2.1809,2.1454,2.1213,2.1136,2.0905,2.0595,2.0527,2.0284,1.9923,1.9726,1.9539,1.928,1.9063,1.8865,1.8634,1.7749,1.718,1.6935,1.6763,1.6601,1.6368,1.5701,1.5235,1.5096,1.4525,1.4201,1.4209,1.4209,1.4201,1.4201,1.4072,1.3861,1.3548,1.3176,1.279,1.2424,1.1936,1.1594,1.1431,1.1289,1.1051,1.0713,1.0694,1.0414,0.9777,0.9377,0.8959,0.8483,0.7948,0.7574,0.7469,0.701,0.6674,0.6655,0.6479,0.622,0.5926,0.5771,0.5555,0.5125,0.4891,0.467,0.4241,0.3894,0.3493,0.3056,0.2954,0.2604,0.1903,0.1432,0.1142,0.1003,0.0608,0.0357,0.0323,-0.0107,-0.0571,-0.0963,-0.1287,-0.1743,-0.2298,-0.2707,-0.3069,-0.3511,-0.3835,-0.4043,-0.4255,-0.4481,-0.4803,-0.5435,-0.6391,-0.7664,3.0617,3.0159,3.0125,2.9486,2.8402,2.7568,2.6956,2.6554,2.6271,2.6146,2.6157,2.5979,2.5895,2.5895,2.5895,2.5415,2.4556,2.4512,2.3983,2.308,2.2826,2.2692,2.2601,2.2235,2.2025,2.1949,2.1797,2.1683,2.1606,2.1464,2.1185,2.0818,2.075,2.0566,2.0177,1.9942,1.9706,1.9478,1.9222,1.8576,1.7659,1.7578,1.7218,1.6508,1.6121,1.5653,1.517,1.4775,1.4569,1.4569,1.4561,1.4569,1.4561,1.4533,1.4312,1.3832,1.3727,1.3355,1.2577,1.203,1.172,1.1523,1.149,1.1359,1.1141,1.1208,1.0915,1.0142,0.977,0.9384,0.8926,0.8443,0.8068,0.7764,0.7267,0.6867,0.6892,0.6602,0.6328,0.6176,0.6158,0.5995,0.5624,0.5451,0.5256,0.4794,0.4425,0.409,0.3758,0.3658,0.3424,0.2676,0.2035,0.1563,0.1294,0.0951,0.0752,0.0717,0.0442,0.0102,-0.0206,-0.0478,-0.0812,-0.1468,-0.1931,-0.2433,-0.2967,-0.346,-0.3828,-0.4061,-0.4359,-0.4791,-0.5422,-0.6083,-0.7053,3.0962,3.0227,3.0216,2.9586,2.8505,2.7496,2.696,2.6768,2.652,2.6437,2.6437,2.6354,2.6188,2.5895,2.5895,2.5393,2.4508,2.4526,2.3951,2.3056,2.2927,2.2879,2.2852,2.2703,2.2553,2.244,2.2365,2.2241,2.2138,2.1949,2.1759,2.1596,2.1377,2.1108,2.0848,2.0605,2.0246,1.9774,1.9678,1.9286,1.8632,1.8243,1.7896,1.7501,1.6779,1.6257,1.5961,1.5546,1.5303,1.5311,1.5303,1.5211,1.4969,1.4751,1.438,1.395,1.3475,1.2985,1.2421,1.2118,1.186,1.1599,1.156,1.144,1.1177,1.1205,1.1007,1.0568,1.0169,0.9787,0.9315,0.8936,0.8636,0.8425,0.7982,0.7624,0.7563,0.7335,0.704,0.6712,0.6613,0.6445,0.6046,0.5749,0.5517,0.5256,0.4987,0.4688,0.4425,0.4328,0.4025,0.3456,0.2952,0.245,0.1814,0.1345,0.1144,0.1044,0.0808,0.0539,0.0303,0.0135,-0.0202,-0.0739,-0.1244,-0.1782,-0.2389,-0.2958,-0.3426,-0.3792,-0.4259,-0.4725,-0.506,-0.5554,-0.6329,3.1332,3.0432,3.0075,2.9489,2.8717,2.7478,2.7015,2.7003,2.6809,2.6715,2.6745,2.6633,2.6396,2.6104,2.6021,2.5489,2.4738,2.4672,2.4224,2.346,2.3405,2.334,2.3209,2.3198,2.3046,2.2836,2.2777,2.2703,2.2553,2.2402,2.2327,2.2214,2.1949,2.1693,2.1454,2.1161,2.0691,2.0205,2.0001,1.9701,1.9346,1.8834,1.8479,1.8245,1.7514,1.6982,1.6759,1.6369,1.6149,1.6114,1.5992,1.5808,1.5512,1.5053,1.4589,1.4081,1.3372,1.2822,1.2506,1.2367,1.2151,1.1903,1.1809,1.1685,1.1466,1.1341,1.1216,1.1024,1.0716,1.0283,0.9695,0.9402,0.9242,0.9145,0.8753,0.8463,0.8279,0.8117,0.7792,0.7302,0.7237,0.7007,0.6544,0.6145,0.5815,0.5815,0.5521,0.5256,0.5057,0.4924,0.4688,0.4159,0.3889,0.3355,0.2353,0.1817,0.158,0.1345,0.1111,0.0841,0.0639,0.0472,0.0303,-0.0202,-0.0639,-0.1109,-0.1747,-0.2319,-0.3058,-0.3625,-0.4125,-0.4492,-0.4761,-0.5123,-0.5563,3.1889,3.0845,2.9654,2.916,2.8955,2.7739,2.7301,2.7441,2.7085,2.7015,2.7103,2.6787,2.6603,2.6561,2.6354,2.5829,2.5204,2.515,2.4865,2.4355,2.4355,2.4148,2.3673,2.3651,2.3411,2.3051,2.304,2.304,2.2992,2.297,2.2852,2.2708,2.2676,2.2445,2.2111,2.1493,2.1007,2.0714,2.0145,1.9785,1.9679,1.9359,1.8862,1.8373,1.8225,1.7849,1.7269,1.7151,1.7028,1.6874,1.6483,1.6264,1.6209,1.5665,1.5012,1.4316,1.3636,1.3219,1.3019,1.2858,1.2683,1.2482,1.2336,1.2243,1.2182,1.1934,1.1709,1.1567,1.137,1.0929,1.0212,1.0009,0.9817,0.9588,0.9364,0.9177,0.8952,0.8829,0.8511,0.8084,0.7889,0.7661,0.7204,0.6679,0.6383,0.6284,0.6053,0.5756,0.5583,0.5514,0.5253,0.4894,0.4561,0.4125,0.2952,0.2386,0.2018,0.1715,0.148,0.1144,0.0943,0.0741,0.0539,0.0303,-0.0067,-0.0538,-0.1076,-0.1814,-0.2688,-0.3291,-0.3758,-0.4128,-0.4461,-0.4694,-0.5082,3.1595,3.089,2.9757,2.9281,2.9164,2.8099,2.7679,2.7748,2.7638,2.7586,2.7626,2.7505,2.7342,2.7156,2.6951,2.6311,2.544,2.5418,2.5055,2.4559,2.4526,2.4388,2.4213,2.3897,2.3618,2.3465,2.3433,2.3646,2.3929,2.3951,2.3913,2.3824,2.3708,2.3569,2.3296,2.2416,2.1749,2.1319,2.0435,1.9802,1.9521,1.9237,1.9009,1.8819,1.8478,1.8179,1.7906,1.7794,1.7666,1.7598,1.7197,1.6802,1.6487,1.566,1.4934,1.4457,1.4081,1.3799,1.364,1.3536,1.3307,1.3025,1.2858,1.2705,1.2582,1.239,1.2182,1.2058,1.1996,1.1677,1.1209,1.0769,1.0485,1.0358,1.0104,0.9856,0.9626,0.9402,0.9075,0.8662,0.8306,0.7922,0.7694,0.7237,0.6876,0.6716,0.6416,0.6181,0.6013,0.5885,0.5686,0.5422,0.5253,0.4954,0.4259,0.3224,0.2587,0.215,0.1813,0.1479,0.1211,0.1043,0.0841,0.0674,0.0336,-0.0067,-0.0639,-0.1479,-0.2318,-0.2956,-0.3391,-0.3725,-0.4161,-0.4328,-0.4628,3.1729,3.1276,3.0219,2.9725,2.9606,2.8549,2.8163,2.8283,2.8163,2.8163,2.8243,2.8163,2.799,2.7805,2.7603,2.7094,2.6271,2.6017,2.5606,2.5198,2.5176,2.5098,2.4871,2.4552,2.4299,2.4178,2.4156,2.4343,2.4629,2.4713,2.4713,2.4662,2.4561,2.4443,2.4211,2.3226,2.2419,2.1895,2.0765,1.992,1.9626,1.9381,1.9241,1.9142,1.8808,1.8654,1.8672,1.8556,1.8453,1.8306,1.7681,1.699,1.636,1.5663,1.5079,1.4834,1.4656,1.4517,1.4339,1.4219,1.404,1.3722,1.3459,1.3285,1.3172,1.2942,1.2728,1.2582,1.2521,1.2398,1.205,1.1615,1.1272,1.1021,1.0769,1.0516,1.0295,1.0034,0.969,0.928,0.8727,0.8409,0.8279,0.7792,0.7433,0.7171,0.6843,0.6613,0.6449,0.6284,0.6086,0.5885,0.5815,0.555,0.502,0.4256,0.3357,0.2854,0.2249,0.1848,0.1512,0.1344,0.1176,0.0976,0.0707,0.0303,-0.0303,-0.1143,-0.1848,-0.2487,-0.2889,-0.3155,-0.3558,-0.3961,-0.4261,3.24,3.224,3.0985,3.0426,3.028,2.9145,2.8776,2.9,2.8749,2.8816,2.9052,2.8749,2.859,2.8498,2.8287,2.8011,2.7631,2.6994,2.6614,2.6457,2.6479,2.6255,2.5833,2.5721,2.5452,2.5133,2.5122,2.5133,2.5245,2.5279,2.5268,2.5189,2.5217,2.5183,2.4892,2.3836,2.3067,2.2603,2.1306,2.0384,2.0264,1.9881,1.9559,1.9362,1.9306,1.9391,1.9465,1.9451,1.9347,1.9072,1.7953,1.6778,1.5989,1.5692,1.5575,1.541,1.5381,1.5254,1.5029,1.497,1.4823,1.4508,1.4181,1.401,1.395,1.37,1.3368,1.3103,1.3011,1.2889,1.2605,1.2451,1.2135,1.1459,1.1303,1.1146,1.0895,1.0681,1.0403,0.9862,0.9312,0.9049,0.8856,0.8468,0.8014,0.7764,0.7433,0.7134,0.6942,0.6778,0.6613,0.6449,0.628,0.6013,0.5683,0.5249,0.4356,0.3556,0.2852,0.2316,0.1949,0.1714,0.1479,0.1312,0.0976,0.0605,0.0101,-0.0672,-0.1143,-0.1714,-0.2115,-0.2586,-0.3054,-0.3458,-0.383,3.3313,3.3174,3.1978,3.1511,3.1332,3.022,2.9832,2.9909,2.9793,2.9819,2.9871,2.9651,2.9548,2.9431,2.9052,2.8776,2.8645,2.8139,2.7615,2.7115,2.7033,2.6953,2.6759,2.6422,2.6183,2.6086,2.6063,2.6246,2.6485,2.6542,2.6513,2.6554,2.6542,2.6513,2.6359,2.4995,2.4146,2.3903,2.2322,2.1257,2.0871,2.0641,2.0246,1.9811,1.9969,2.009,2.0068,1.9837,1.9809,1.995,1.8754,1.741,1.6283,1.598,1.5894,1.5749,1.5759,1.5672,1.5537,1.5469,1.5371,1.5128,1.4834,1.4704,1.4675,1.4389,1.4031,1.3739,1.3679,1.3549,1.3268,1.3094,1.2781,1.2197,1.1965,1.1809,1.1622,1.1247,1.0807,1.0403,0.9958,0.9728,0.9594,0.9177,0.8791,0.8479,0.8112,0.7819,0.7498,0.7269,0.7068,0.6942,0.6741,0.6511,0.6178,0.5848,0.5186,0.4389,0.3654,0.2919,0.2519,0.2151,0.1916,0.158,0.1279,0.0875,0.037,-0.0034,-0.0504,-0.0941,-0.1411,-0.1947,-0.2519,-0.2956,-0.3326,3.3979,3.3862,3.2959,3.2429,3.2158,3.1255,3.0789,3.0672,3.0608,3.0608,3.0608,3.0457,3.0355,3.0266,2.9819,2.9599,2.9548,2.9157,2.8673,2.8131,2.7753,2.7672,2.7649,2.7392,2.7256,2.7256,2.7336,2.7488,2.7661,2.7753,2.7742,2.7713,2.7684,2.762,2.7475,2.6182,2.535,2.4966,2.3468,2.2364,2.1981,2.1531,2.103,2.0556,2.05,2.0519,2.0468,2.0273,2.0194,2.0038,1.9079,1.7802,1.659,1.6437,1.6337,1.6146,1.6097,1.6029,1.5875,1.5846,1.5749,1.5575,1.5381,1.5274,1.5205,1.4981,1.4715,1.4428,1.4369,1.4249,1.3932,1.3722,1.3489,1.3177,1.2644,1.2313,1.2127,1.1747,1.1365,1.0996,1.0618,1.046,1.0301,0.9983,0.9562,0.921,0.8882,0.8528,0.8182,0.7884,0.7722,0.7493,0.7232,0.697,0.6745,0.635,0.5951,0.5219,0.4489,0.3787,0.3222,0.2788,0.2453,0.2017,0.1682,0.1278,0.084,0.0638,0.0269,-0.0202,-0.0706,-0.1209,-0.1746,-0.2353,-0.279,3.4481,3.4402,3.3906,3.3302,3.2752,3.2187,3.1685,3.1362,3.1174,3.1198,3.1272,3.1123,3.1024,3.0986,3.0596,3.0406,3.0355,2.9986,2.9755,2.9523,2.9067,2.8685,2.8542,2.8493,2.8469,2.8493,2.8652,2.87,2.8566,2.8712,2.8764,2.8578,2.8538,2.8459,2.8096,2.7186,2.6446,2.5899,2.4574,2.3769,2.3468,2.2625,2.1884,2.1474,2.1048,2.084,2.0797,2.0718,2.0482,1.9965,1.9064,1.8155,1.7274,1.7077,1.6931,1.662,1.6516,1.65,1.6323,1.6396,1.6328,1.6203,1.5996,1.577,1.583,1.5566,1.5274,1.502,1.5,1.4911,1.4597,1.4359,1.421,1.4091,1.3376,1.2744,1.2282,1.2182,1.1996,1.1677,1.1373,1.116,1.1122,1.0681,1.0263,0.9939,0.9684,0.9332,0.8985,0.8662,0.8398,0.8107,0.7814,0.7526,0.7297,0.6937,0.6511,0.6017,0.5319,0.4655,0.3923,0.3424,0.2958,0.2522,0.2118,0.1714,0.1378,0.1176,0.0874,0.0404,-0.0067,-0.047,-0.1008,-0.1647,-0.2151,3.5345,3.5278,3.4727,3.4136,3.3545,3.3019,3.2465,3.199,3.1877,3.1877,3.1913,3.178,3.1633,3.1582,3.1248,3.1086,3.096,3.0772,3.0672,3.0634,3.047,2.9922,2.9484,2.9367,2.9406,2.9406,2.9445,2.9445,2.9406,2.9433,2.9445,2.9367,2.9223,2.9157,2.8932,2.8149,2.7448,2.6875,2.6007,2.5063,2.4385,2.4075,2.3325,2.2288,2.2048,2.1657,2.1173,2.0955,2.0576,1.9985,1.9561,1.886,1.8004,1.7888,1.7804,1.7677,1.7666,1.7687,1.7647,1.7596,1.7597,1.7557,1.7035,1.6732,1.6692,1.6143,1.577,1.5556,1.5537,1.5459,1.5196,1.4931,1.4704,1.4389,1.392,1.3346,1.292,1.2767,1.2644,1.2297,1.1996,1.1872,1.1716,1.1373,1.0989,1.073,1.0446,1.0078,0.971,0.9434,0.9166,0.878,0.8463,0.8139,0.7819,0.7456,0.7101,0.6745,0.6148,0.5557,0.4758,0.4025,0.3525,0.3056,0.2755,0.2385,0.1983,0.1715,0.1312,0.0976,0.0538,0.0101,-0.0403,-0.0974,-0.1445,3.571,3.5642,3.5303,3.4816,3.4233,3.3688,3.3129,3.2599,3.2314,3.2205,3.2182,3.2109,3.2036,3.2013,3.1693,3.1545,3.1545,3.1336,3.1261,3.1261,3.1224,3.0861,3.0394,3.0266,3.0266,3.0266,3.033,3.033,3.0266,3.0216,3.0228,3.0088,2.9922,2.9819,2.9781,2.91,2.8487,2.8027,2.7409,2.6586,2.5685,2.5391,2.4662,2.3619,2.3081,2.2416,2.1725,2.1443,2.1035,2.0489,2.0085,1.9576,1.8791,1.8714,1.8608,1.8498,1.8455,1.8445,1.8455,1.8445,1.8445,1.8412,1.8014,1.7798,1.7634,1.7225,1.6922,1.6726,1.6454,1.6215,1.5959,1.5586,1.5215,1.4922,1.4567,1.41,1.3498,1.3428,1.3216,1.2911,1.2636,1.2428,1.2398,1.1996,1.1716,1.1498,1.1178,1.075,1.0325,1.0115,0.9812,0.9366,0.9096,0.8832,0.8458,0.8108,0.7739,0.7354,0.6876,0.6317,0.5554,0.4725,0.4259,0.3792,0.3422,0.3021,0.2688,0.2285,0.1849,0.1479,0.1041,0.0638,0.0168,-0.0336,-0.0773,3.5723,3.571,3.571,3.5331,3.4734,3.4219,3.3634,3.3047,3.2572,3.23,3.2232,3.2218,3.2169,3.2196,3.195,3.1927,3.1927,3.1757,3.1669,3.1669,3.1633,3.1447,3.1161,3.1011,3.0973,3.1011,3.1248,3.1174,3.1011,3.1011,3.0949,3.0761,3.0596,3.047,3.0342,2.9894,2.9563,2.9124,2.8644,2.7956,2.7149,2.6604,2.5906,2.5062,2.3961,2.3181,2.2587,2.2262,2.193,2.1306,2.0783,2.0252,1.9662,1.964,1.9497,1.9263,1.926,1.9196,1.9089,1.9207,1.9141,1.9174,1.9066,1.8846,1.8659,1.843,1.8182,1.792,1.7557,1.7159,1.6888,1.6316,1.5999,1.5743,1.5536,1.5016,1.4453,1.4156,1.3911,1.348,1.3224,1.3042,1.2858,1.2613,1.229,1.1989,1.1646,1.1176,1.0758,1.0495,1.011,0.9693,0.9562,0.9529,0.9136,0.8745,0.8393,0.8027,0.7521,0.6937,0.628,0.5583,0.509,0.4625,0.4223,0.3789,0.3389,0.2954,0.2485,0.2084,0.168,0.1277,0.0873,0.0302,-0.0202,3.5898,3.571,3.571,3.5331,3.4829,3.4639,3.4041,3.3115,3.2966,3.2612,3.2286,3.2205,3.2205,3.2205,3.2146,3.2132,3.2109,3.2073,3.2073,3.2073,3.2073,3.2036,3.184,3.1619,3.1485,3.1485,3.1522,3.1535,3.1485,3.1447,3.1447,3.1373,3.1136,3.1011,3.0822,3.0567,3.0108,2.9575,2.9321,2.8988,2.838,2.7809,2.7167,2.6257,2.5151,2.4266,2.376,2.3549,2.3213,2.2503,2.1765,2.1227,2.0951,2.0834,2.0703,2.0634,2.0611,2.0646,2.0668,2.06,2.0668,2.0566,2.0177,1.9842,1.9666,1.9243,1.8915,1.8648,1.8348,1.8071,1.7715,1.7512,1.7195,1.6941,1.6578,1.6168,1.5749,1.5051,1.4437,1.4091,1.3842,1.3731,1.3532,1.3058,1.2726,1.2449,1.2016,1.1552,1.1188,1.0828,1.0434,1.0005,0.9913,0.9851,0.955,0.9214,0.896,0.8677,0.8231,0.7754,0.7097,0.6507,0.6046,0.5517,0.5027,0.4592,0.4156,0.3656,0.3186,0.2753,0.2353,0.1916,0.1479,0.0907,0.0504,3.6112,3.5898,3.5884,3.5627,3.5235,3.491,3.4326,3.3539,3.3196,3.2762,3.23,3.2205,3.2205,3.2205,3.2205,3.2205,3.2205,3.2205,3.2182,3.2169,3.2169,3.2169,3.2169,3.2036,3.189,3.1904,3.189,3.189,3.1853,3.178,3.1757,3.1706,3.1559,3.1397,3.1286,3.1149,3.0917,3.0634,3.0455,3.0131,2.9414,2.908,2.8112,2.7041,2.6001,2.5224,2.4659,2.4595,2.426,2.3665,2.3028,2.2397,2.1968,2.1819,2.1737,2.1675,2.1675,2.1675,2.1675,2.1675,2.1639,2.1686,2.13,2.1063,2.0826,2.045,2.0205,1.9879,1.9507,1.9021,1.8468,1.8303,1.8181,1.7985,1.7634,1.7327,1.6941,1.5969,1.502,1.4649,1.4304,1.4046,1.3747,1.3385,1.2968,1.2592,1.2126,1.167,1.1382,1.1043,1.0726,1.0407,1.0286,1.011,0.9864,0.9637,0.9451,0.9251,0.9037,0.8624,0.8112,0.7554,0.7027,0.6441,0.5818,0.5388,0.4954,0.442,0.3923,0.3491,0.3056,0.2587,0.2084,0.1579,0.1276,3.6325,3.6166,3.6166,3.5978,3.5722,3.5139,3.4489,3.3853,3.3322,3.2775,3.23,3.2205,3.2205,3.2205,3.2205,3.2205,3.2205,3.2205,3.2205,3.2205,3.2205,3.2205,3.2169,3.2169,3.2132,3.2205,3.2132,3.2132,3.2109,3.2036,3.1977,3.1927,3.178,3.1669,3.1669,3.1646,3.1532,3.1392,3.1341,3.1109,3.0401,3.0155,2.9121,2.7712,2.6994,2.6291,2.5775,2.5511,2.5261,2.4746,2.4558,2.384,2.3065,2.2525,2.2451,2.2328,2.2328,2.2328,2.2328,2.2328,2.234,2.2352,2.2328,2.2149,2.1885,2.1701,2.151,2.1148,2.0659,2.002,1.9279,1.9181,1.9087,1.8857,1.8649,1.8379,1.8016,1.6958,1.6217,1.5516,1.5059,1.4647,1.4079,1.361,1.3184,1.2723,1.2248,1.1823,1.1559,1.122,1.0872,1.0604,1.0451,1.047,1.0242,1.0203,1.0023,0.9963,0.9805,0.9428,0.9049,0.8592,0.7999,0.7195,0.6609,0.6178,0.5752,0.5253,0.4722,0.4225,0.3792,0.3355,0.2854,0.2285,0.2017,3.6524,3.6351,3.6351,3.6232,3.595,3.5403,3.4671,3.3905,3.3359,3.2775,3.2259,3.2205,3.2205,3.2205,3.2205,3.2205,3.2205,3.2205,3.2205,3.2205,3.2205,3.2205,3.2205,3.2205,3.2205,3.2205,3.2205,3.2205,3.2205,3.2182,3.2109,3.2146,3.2073,3.2,3.189,3.1853,3.1793,3.1706,3.1669,3.1476,3.1243,3.0777,3.006,2.8688,2.8223,2.7591,2.6836,2.6491,2.6192,2.5652,2.5556,2.5063,2.431,2.3487,2.3092,2.2939,2.2896,2.2896,2.2896,2.2927,2.2927,2.2957,2.2927,2.2763,2.2549,2.2439,2.2285,2.1994,2.1624,2.1202,2.0834,2.0423,2.0281,2.0076,1.9684,1.9266,1.9064,1.8565,1.7837,1.7144,1.6257,1.5224,1.4638,1.3968,1.3363,1.2891,1.2431,1.2053,1.1783,1.1395,1.1009,1.0735,1.053,1.0616,1.0633,1.0711,1.0681,1.0764,1.0611,1.0256,0.9875,0.9556,0.8941,0.8199,0.7493,0.697,0.6511,0.605,0.562,0.519,0.4688,0.4156,0.3689,0.3188,0.2822,3.6747,3.6563,3.6563,3.6445,3.6175,3.5586,3.4904,3.4224,3.3622,3.3006,3.2604,3.2467,3.2444,3.248,3.2467,3.2408,3.23,3.2205,3.2205,3.2205,3.2205,3.2205,3.2205,3.2205,3.2205,3.2205,3.2205,3.2205,3.2205,3.2205,3.2205,3.2205,3.2205,3.2132,3.2073,3.2073,3.2,3.1927,3.1927,3.1927,3.1873,3.1335,3.0562,2.986,2.9187,2.8499,2.7833,2.751,2.707,2.6527,2.6351,2.5947,2.5265,2.4593,2.3876,2.3522,2.336,2.3348,2.3348,2.3348,2.3348,2.3348,2.3348,2.3258,2.3078,2.3,2.2818,2.25,2.2316,2.2037,2.1702,2.1454,2.1273,2.1112,2.0705,2.0403,2.0178,1.9916,1.9419,1.8679,1.7399,1.6247,1.5209,1.4464,1.3669,1.3084,1.2628,1.231,1.2045,1.1703,1.1293,1.1192,1.1044,1.1155,1.1254,1.1311,1.1368,1.1436,1.1358,1.1007,1.0665,1.0324,0.9882,0.9306,0.8598,0.7844,0.7335,0.6872,0.6478,0.6083,0.5517,0.4984,0.4556,0.4123,0.3756,3.6954,3.6733,3.6621,3.6448,3.6166,3.5435,3.4803,3.4347,3.3675,3.3123,3.2745,3.269,3.2654,3.269,3.2668,3.2596,3.2453,3.2372,3.2336,3.235,3.2336,3.23,3.2314,3.2241,3.2264,3.2277,3.2264,3.2205,3.2205,3.2205,3.2205,3.2205,3.2205,3.2205,3.2241,3.2228,3.2241,3.2314,3.235,3.2372,3.2272,3.1952,3.1335,3.0624,2.9896,2.924,2.849,2.8214,2.7864,2.7415,2.7165,2.6871,2.6222,2.5686,2.504,2.4279,2.3888,2.3743,2.3688,2.3717,2.3688,2.3717,2.3688,2.3599,2.3492,2.3373,2.3228,2.2854,2.2744,2.2653,2.2389,2.2173,2.2006,2.187,2.1671,2.1451,2.1184,2.0946,2.0785,1.98,1.8431,1.7359,1.6409,1.4922,1.4074,1.3551,1.3084,1.2687,1.2421,1.2126,1.1838,1.178,1.173,1.1847,1.1931,1.2001,1.2045,1.2097,1.1965,1.1664,1.1358,1.106,1.0577,1.0019,0.9486,0.8756,0.8233,0.7722,0.7326,0.6863,0.6305,0.5811,0.5348,0.4954,0.4589,3.7148,3.6897,3.6402,3.6039,3.5694,3.4636,3.3997,3.3712,3.3182,3.2786,3.2753,3.269,3.2725,3.2725,3.2725,3.2704,3.2668,3.2632,3.2596,3.2574,3.2596,3.2596,3.2596,3.2453,3.2467,3.2467,3.2417,3.2286,3.2314,3.2277,3.2205,3.2241,3.2277,3.2277,3.2431,3.2467,3.2453,3.2632,3.281,3.2988,3.3115,3.3038,3.2394,3.1509,3.0849,3.011,2.9155,2.878,2.846,2.84,2.8185,2.7865,2.7377,2.7103,2.6609,2.5792,2.4928,2.4067,2.4119,2.408,2.4054,2.4054,2.4054,2.3966,2.3878,2.373,2.3569,2.336,2.33,2.318,2.2969,2.2714,2.2561,2.2408,2.2254,2.2111,2.1925,2.1694,2.1557,2.1132,1.9819,1.8721,1.773,1.6042,1.4556,1.4033,1.3564,1.3228,1.2832,1.2558,1.2468,1.2433,1.2457,1.2577,1.278,1.2814,1.2758,1.2795,1.254,1.2287,1.1897,1.1488,1.1061,1.0558,1.0086,0.9631,0.9089,0.8585,0.814,0.7674,0.7186,0.6634,0.6108,0.5749,0.5418,3.6931,3.6636,3.6254,3.5831,3.5363,3.4444,3.4044,3.381,3.3294,3.3051,3.3051,3.3051,3.3051,3.3016,3.2966,3.2881,3.2846,3.2775,3.2704,3.2725,3.2725,3.2775,3.281,3.2704,3.2668,3.2881,3.281,3.2846,3.2717,3.261,3.2467,3.2503,3.2574,3.2682,3.2775,3.2846,3.3023,3.3234,3.3465,3.3673,3.3756,3.3788,3.3321,3.2072,3.1707,3.0823,2.9897,2.9338,2.9085,2.9008,2.8899,2.8739,2.8374,2.8025,2.7598,2.7363,2.6514,2.5665,2.4961,2.4614,2.4469,2.4374,2.4403,2.4361,2.4287,2.4128,2.394,2.3819,2.3713,2.3582,2.342,2.318,2.309,2.2969,2.2818,2.2604,2.2482,2.2377,2.2132,2.1733,2.1241,2.0145,1.9004,1.7476,1.595,1.5035,1.4526,1.4089,1.3589,1.3072,1.3062,1.3159,1.3229,1.3323,1.3568,1.3726,1.356,1.3451,1.3055,1.2751,1.2274,1.186,1.142,1.1061,1.0682,1.0246,0.9847,0.9397,0.8884,0.8468,0.8069,0.7549,0.7027,0.6564,0.6142,3.6622,3.6063,3.5803,3.546,3.4959,3.4267,3.3964,3.3894,3.3487,3.3276,3.3276,3.3276,3.3276,3.3276,3.3157,3.3072,3.3072,3.2917,3.2846,3.2846,3.2917,3.3058,3.3164,3.3094,3.3185,3.35,3.3395,3.336,3.3395,3.3325,3.3185,3.2952,3.3058,3.3199,3.3325,3.3514,3.3722,3.4051,3.4201,3.4322,3.4404,3.4467,3.3729,3.2922,3.2257,3.1591,3.045,3.0021,2.9761,2.9685,2.9591,2.947,2.9324,2.9013,2.8773,2.8563,2.7975,2.7367,2.6474,2.579,2.5172,2.4938,2.4733,2.4664,2.4677,2.4536,2.4421,2.4274,2.4229,2.4041,2.3793,2.3658,2.3552,2.345,2.33,2.3078,2.2896,2.2866,2.2781,2.2474,2.2047,2.1508,2.0299,1.8905,1.7558,1.6243,1.5531,1.5021,1.4443,1.3834,1.3745,1.3869,1.3871,1.3927,1.4025,1.4227,1.4182,1.3992,1.3578,1.3066,1.249,1.2094,1.1714,1.1404,1.1132,1.0966,1.0622,1.0113,0.9661,0.9265,0.8882,0.8431,0.7939,0.7432,0.6734,3.6302,3.5173,3.4775,3.4618,3.4469,3.367,3.341,3.3501,3.3354,3.3347,3.3361,3.3312,3.3361,3.3312,3.3312,3.3276,3.329,3.329,3.3206,3.3276,3.3452,3.3577,3.3667,3.3756,3.3811,3.4036,3.4036,3.4036,3.4104,3.4341,3.4002,3.3652,3.3791,3.3845,3.4051,3.4322,3.4624,3.4905,3.4971,3.4986,3.5019,3.4898,3.4271,3.3282,3.2744,3.2121,3.0864,3.0598,3.0493,3.0448,3.0328,3.0267,3.0178,3.0017,2.9886,2.9757,2.9443,2.8968,2.8464,2.7067,2.6165,2.5873,2.5501,2.5033,2.5061,2.4977,2.4863,2.4791,2.4706,2.4549,2.4319,2.4115,2.4024,2.3907,2.3776,2.3645,2.3497,2.3407,2.3322,2.3187,2.2816,2.2305,2.1799,2.0461,1.9032,1.7732,1.6439,1.5905,1.5369,1.4824,1.4624,1.4596,1.4549,1.4493,1.4363,1.443,1.4495,1.4137,1.3681,1.3113,1.2502,1.2183,1.1928,1.1609,1.1293,1.1347,1.1324,1.0842,1.0424,1.0058,0.9684,0.9244,0.8525,0.7796,0.7078,3.6295,3.5739,3.4694,3.419,3.41,3.3788,3.3675,3.3675,3.3689,3.3675,3.364,3.3689,3.3675,3.364,3.3536,3.3501,3.3466,3.3375,3.3396,3.3486,3.366,3.3957,3.4162,3.4404,3.4461,3.4776,3.4843,3.4924,3.5106,3.5204,3.5302,3.5088,3.4758,3.4758,3.4942,3.5204,3.5591,3.5688,3.572,3.572,3.5735,3.561,3.4958,3.3741,3.3454,3.2661,3.1559,3.1234,3.1175,3.1117,3.1043,3.1014,3.0984,3.0925,3.0896,3.0896,3.0602,3.0529,3.0046,2.8369,2.6764,2.6134,2.5758,2.5564,2.5522,2.5481,2.5425,2.5314,2.5174,2.502,2.4778,2.4607,2.4463,2.4361,2.4245,2.4157,2.4086,2.3998,2.3927,2.3803,2.3554,2.316,2.2661,2.2075,2.0628,1.9215,1.7909,1.6763,1.6302,1.5833,1.5642,1.5442,1.541,1.5201,1.5099,1.4974,1.4901,1.4368,1.385,1.3285,1.2739,1.2372,1.2121,1.1772,1.1533,1.1556,1.1509,1.1406,1.1115,1.0722,1.036,0.9989,0.9189,0.8245,0.7547,3.6199,3.5894,3.4712,3.4108,3.3951,3.3931,3.3896,3.3896,3.3896,3.3896,3.3896,3.3896,3.3896,3.3848,3.3744,3.3689,3.3675,3.357,3.364,3.3764,3.4025,3.4399,3.4754,3.507,3.527,3.5608,3.5672,3.572,3.5863,3.5975,3.6038,3.6038,3.599,3.5816,3.5784,3.6101,3.6367,3.6414,3.6367,3.6183,3.606,3.5782,3.5048,3.3893,3.3486,3.2869,3.204,3.1653,3.161,3.161,3.161,3.1638,3.1638,3.1638,3.1638,3.1638,3.1638,3.1638,3.0974,2.9525,2.7601,2.6963,2.6385,2.6233,2.6123,2.6056,2.6015,2.5934,2.5715,2.5495,2.5314,2.5174,2.4977,2.4835,2.4791,2.4692,2.4664,2.4565,2.4536,2.4452,2.4173,2.3935,2.3584,2.2985,2.1564,2.0195,1.8989,1.7998,1.7474,1.7019,1.6643,1.6457,1.634,1.6101,1.585,1.5663,1.5392,1.4767,1.4231,1.3594,1.3092,1.2742,1.2406,1.2134,1.1964,1.1823,1.1816,1.1889,1.1637,1.1305,1.0932,1.0528,0.9812,0.8907,0.8242,3.5938,3.5348,3.469,3.4264,3.4094,3.3965,3.3931,3.3965,3.3951,3.3965,3.3965,3.3965,3.3951,3.3917,3.3917,3.3896,3.3931,3.3896,3.3951,3.4162,3.4486,3.492,3.5379,3.572,3.6006,3.6352,3.6383,3.6352,3.6492,3.6554,3.6646,3.6754,3.6723,3.6631,3.6523,3.6631,3.6785,3.6923,3.6754,3.6383,3.5919,3.5599,3.4742,3.3749,3.3385,3.29,3.2307,3.2038,3.201,3.1994,3.1966,3.1966,3.1981,3.1981,3.1981,3.1996,3.1981,3.1981,3.1819,3.0178,2.8954,2.7918,2.7287,2.6945,2.6765,2.6683,2.6657,2.6563,2.6472,2.6258,2.6015,2.5757,2.5522,2.5356,2.53,2.53,2.5272,2.5188,2.516,2.5076,2.4907,2.4696,2.438,2.3781,2.2397,2.1098,1.9959,1.9186,1.8603,1.8151,1.7722,1.7473,1.73,1.6873,1.6579,1.6278,1.5919,1.5248,1.464,1.4057,1.354,1.3173,1.2861,1.2569,1.241,1.232,1.2372,1.2466,1.2136,1.1823,1.1364,1.0873,1.0214,0.9579,0.892,3.5595,3.5348,3.4675,3.4346,3.4312,3.4259,3.421,3.421,3.421,3.4225,3.4225,3.421,3.421,3.4225,3.4142,3.4157,3.421,3.4074,3.4162,3.4654,3.5004,3.5462,3.5911,3.6274,3.6616,3.6785,3.6847,3.6877,3.6952,3.7013,3.7119,3.7225,3.7225,3.718,3.7089,3.7119,3.7285,3.7285,3.7087,3.6731,3.6091,3.5713,3.5005,3.372,3.3558,3.3175,3.2588,3.2416,3.2373,3.2345,3.2318,3.2274,3.229,3.2274,3.2274,3.2274,3.2274,3.2274,3.2063,3.1134,3.0034,2.9027,2.8207,2.7773,2.7409,2.7321,2.728,2.7188,2.7115,2.6893,2.6628,2.6457,2.6244,2.6028,2.5974,2.5974,2.5947,2.5852,2.5784,2.5702,2.5564,2.5286,2.4967,2.4569,2.3359,2.2463,2.1414,2.0199,1.9433,1.9113,1.876,1.8498,1.8233,1.7736,1.7334,1.7028,1.6457,1.576,1.516,1.4612,1.4142,1.3727,1.3382,1.3118,1.2983,1.2852,1.2783,1.273,1.2636,1.236,1.1945,1.1435,1.0848,1.0241,0.9604,3.5392,3.5319,3.4743,3.4549,3.4582,3.4515,3.4515,3.4568,3.4568,3.4568,3.4582,3.4568,3.4568,3.4534,3.4534,3.4501,3.4668,3.4721,3.482,3.5282,3.5608,3.6038,3.643,3.6754,3.6984,3.7121,3.7181,3.7225,3.727,3.73,3.7375,3.745,3.751,3.7405,3.7345,3.7405,3.748,3.7435,3.7252,3.6939,3.6344,3.5757,3.5091,3.4173,3.3646,3.3263,3.2952,3.2773,3.2691,3.2676,3.2621,3.2594,3.2566,3.2566,3.2566,3.2566,3.2496,3.2468,3.2244,3.2062,3.0983,2.997,2.9262,2.8509,2.7931,2.773,2.7715,2.765,2.764,2.7473,2.7214,2.7074,2.6904,2.6695,2.6657,2.6657,2.663,2.6539,2.6459,2.6379,2.6123,2.5852,2.5564,2.5067,2.4395,2.3662,2.2924,2.168,2.0422,1.9998,1.9703,1.9431,1.9093,1.8627,1.818,1.7783,1.7122,1.63,1.5789,1.5363,1.4838,1.4439,1.4047,1.3681,1.3549,1.3381,1.309,1.2966,1.3004,1.2887,1.2629,1.2075,1.1475,1.088,1.028,3.5363,3.531,3.4879,3.4783,3.4902,3.485,3.485,3.4935,3.4935,3.4935,3.492,3.492,3.492,3.4968,3.5115,3.5213,3.5264,3.5494,3.572,3.6005,3.6258,3.6647,3.6877,3.7119,3.7255,3.7421,3.745,3.7391,3.748,3.7435,3.748,3.7526,3.751,3.748,3.748,3.748,3.751,3.748,3.7433,3.6916,3.6224,3.5616,3.4867,3.4042,3.3439,3.315,3.2951,3.2908,3.2897,3.287,3.287,3.287,3.2885,3.2885,3.2912,3.2843,3.2691,3.2594,3.248,3.2357,3.1987,3.1012,3.0109,2.9093,2.8404,2.8217,2.8196,2.8065,2.7955,2.7905,2.779,2.765,2.7509,2.7423,2.7361,2.7335,2.7335,2.7258,2.7181,2.7011,2.6709,2.6404,2.6192,2.5751,2.5297,2.4857,2.4161,2.3365,2.2101,2.0823,2.0502,2.0206,1.9871,1.9511,1.907,1.8632,1.809,1.7352,1.678,1.6296,1.5723,1.5273,1.4915,1.458,1.4204,1.3905,1.3644,1.3502,1.348,1.3325,1.3116,1.2627,1.1989,1.1541,1.1003,3.4758,3.4879,3.4857,3.5019,3.5285,3.5638,3.5591,3.5285,3.5252,3.5252,3.5252,3.5252,3.5365,3.5462,3.5542,3.5703,3.5863,3.6053,3.6242,3.6507,3.6739,3.6953,3.7165,3.73,3.7435,3.748,3.751,3.751,3.751,3.751,3.751,3.751,3.751,3.751,3.751,3.751,3.751,3.751,3.751,3.6832,3.6105,3.5496,3.4664,3.3864,3.3381,3.3165,3.3123,3.3069,3.3058,3.3058,3.2951,3.2912,3.2912,3.2912,3.2912,3.2912,3.2843,3.2816,3.2746,3.2746,3.2493,3.198,3.1275,3.0346,2.9525,2.898,2.8826,2.8572,2.8379,2.8305,2.8149,2.7989,2.7875,2.784,2.7806,2.7781,2.7755,2.769,2.76,2.7448,2.7178,2.6971,2.6777,2.6496,2.6083,2.582,2.538,2.4654,2.3667,2.2347,2.1377,2.1068,2.0682,2.0296,1.9937,1.9531,1.9017,1.8458,1.7992,1.7554,1.7096,1.6596,1.6009,1.5428,1.491,1.4518,1.4213,1.4094,1.3982,1.375,1.3495,1.3016,1.2549,1.2116,1.1713,3.4702,3.4916,3.5133,3.5512,3.6039,3.6492,3.6446,3.6181,3.5928,3.5832,3.5832,3.5847,3.5911,3.6022,3.6085,3.6211,3.6399,3.6585,3.6739,3.6877,3.7121,3.7225,3.7359,3.7435,3.748,3.751,3.751,3.751,3.751,3.751,3.751,3.751,3.751,3.751,3.751,3.751,3.751,3.751,3.7352,3.6753,3.6121,3.5489,3.4652,3.3862,3.3482,3.3309,3.3319,3.3256,3.3282,3.3282,3.3192,3.3229,3.3256,3.3282,3.3203,3.3229,3.3229,3.315,3.3096,3.3043,3.2792,3.2583,3.2395,3.1717,3.0835,3.018,2.9604,2.9107,2.8904,2.8701,2.8477,2.8275,2.8226,2.8152,2.8152,2.8152,2.8079,2.8014,2.794,2.784,2.7665,2.7514,2.7295,2.7049,2.6878,2.6683,2.6451,2.604,2.4998,2.3701,2.2643,2.1958,2.1518,2.1106,2.0797,2.063,2.0347,2.0039,1.977,1.928,1.8645,1.7934,1.7291,1.6421,1.5533,1.5245,1.5049,1.466,1.4449,1.4312,1.4202,1.3845,1.3367,1.2761,1.2364,3.5052,3.5311,3.5655,3.6259,3.6952,3.7282,3.7387,3.7387,3.6831,3.66,3.6569,3.6538,3.6569,3.6662,3.6754,3.6816,3.6952,3.7134,3.7224,3.727,3.7435,3.7524,3.7524,3.7524,3.7628,3.7553,3.7553,3.7628,3.7569,3.7599,3.7583,3.7539,3.7553,3.7583,3.7612,3.7569,3.7569,3.7553,3.7273,3.6801,3.6184,3.56,3.4995,3.4205,3.3683,3.3361,3.3398,3.345,3.3545,3.3581,3.3633,3.371,3.3787,3.3813,3.3736,3.371,3.3668,3.3591,3.3477,3.3424,3.3398,3.3335,3.334,3.2861,3.2126,3.1222,3.0503,2.9884,2.9648,2.9314,2.9058,2.8863,2.8777,2.8543,2.8396,2.8372,2.8323,2.8235,2.8152,2.8054,2.794,2.779,2.7725,2.7509,2.7397,2.7372,2.724,2.6972,2.6341,2.5069,2.4119,2.316,2.2571,2.2248,2.2068,2.1915,2.1865,2.1627,2.1364,2.1064,2.0487,1.9586,1.8585,1.7786,1.6976,1.631,1.5948,1.5718,1.5568,1.5394,1.5219,1.4783,1.4273,1.3714,1.3118,3.5638,3.5878,3.6538,3.7118,3.7508,3.7714,3.7772,3.7772,3.7626,3.7403,3.7208,3.7178,3.7254,3.7329,3.7375,3.7435,3.7567,3.7567,3.7714,3.7685,3.7759,3.7746,3.7788,3.7759,3.7788,3.7817,3.7817,3.7788,3.7759,3.7759,3.7772,3.7788,3.7788,3.7759,3.7759,3.77,3.7626,3.7515,3.692,3.64,3.5719,3.4964,3.4252,3.3884,3.3492,3.3607,3.3684,3.3771,3.3873,3.3949,3.3975,3.405,3.4151,3.4201,3.4176,3.4142,3.4151,3.4075,3.3975,3.3899,3.3899,3.3899,3.3882,3.3742,3.3227,3.2293,3.1502,3.0879,3.0367,2.9999,2.9688,2.9517,2.9299,2.8971,2.8659,2.8635,2.8596,2.8444,2.8363,2.8275,2.8177,2.8113,2.8063,2.7989,2.793,2.7831,2.7715,2.756,2.7378,2.6539,2.5758,2.481,2.3881,2.3474,2.3319,2.3219,2.3162,2.2991,2.2698,2.2485,2.2272,2.1316,2.0294,1.9403,1.8601,1.7861,1.7353,1.7229,1.7039,1.6645,1.6327,1.5951,1.5567,1.5051,1.4277,3.6258,3.6507,3.7193,3.7669,3.7905,3.8049,3.8119,3.8135,3.8135,3.8004,3.7815,3.7727,3.7669,3.7788,3.7804,3.7833,3.7905,3.7905,3.7876,3.7876,3.7934,3.7876,3.7905,3.7934,3.7876,3.7905,3.7905,3.7876,3.7934,3.7905,3.7876,3.7905,3.7905,3.7905,3.7889,3.7786,3.7597,3.7294,3.6556,3.5856,3.5252,3.4652,3.4155,3.3814,3.3787,3.3915,3.405,3.4159,3.43,3.4374,3.4423,3.4497,3.457,3.4659,3.4618,3.4594,3.4594,3.4594,3.4497,3.4431,3.4431,3.4448,3.4448,3.4333,3.421,3.3328,3.2688,3.2078,3.1587,3.1206,3.0663,3.0396,3.005,2.9712,2.9421,2.9255,2.8926,2.8565,2.8517,2.8468,2.8372,2.8275,2.825,2.825,2.8152,2.8128,2.8054,2.7989,2.7875,2.7775,2.7039,2.6404,2.5398,2.4807,2.4612,2.4528,2.4459,2.4264,2.4079,2.3824,2.3528,2.2816,2.2004,2.1061,2.018,1.9337,1.8929,1.8677,1.8148,1.767,1.7394,1.7121,1.674,1.6374,1.5832,3.6922,3.7147,3.7711,3.8062,3.8221,3.8351,3.8363,3.8379,3.8391,3.8363,3.8307,3.8062,3.7992,3.7963,3.7963,3.7963,3.7992,3.8049,3.802,3.7992,3.802,3.8049,3.8049,3.802,3.802,3.802,3.802,3.802,3.8049,3.802,3.802,3.7963,3.7947,3.7947,3.7931,3.7771,3.7514,3.6966,3.6277,3.5546,3.5043,3.4654,3.4294,3.4111,3.4109,3.4275,3.4456,3.4602,3.4787,3.4859,3.4897,3.4851,3.4915,3.5001,3.4928,3.4912,3.5052,3.5062,3.5001,3.4961,3.4977,3.4994,3.4994,3.4899,3.4763,3.4382,3.3713,3.3304,3.2805,3.2326,3.1785,3.1404,3.1054,3.0609,3.0307,2.9911,2.9422,2.8927,2.8848,2.8793,2.862,2.8499,2.846,2.846,2.8444,2.842,2.8381,2.8317,2.8268,2.8155,2.7813,2.7365,2.6788,2.6295,2.5959,2.5755,2.5673,2.5685,2.5489,2.517,2.4789,2.4267,2.3561,2.2674,2.1795,2.1124,2.0362,1.9911,1.9378,1.8803,1.8448,1.8195,1.7905,1.7603,1.7436,3.77,3.7947,3.8107,3.8221,3.8363,3.8391,3.8391,3.8391,3.8408,3.8391,3.8375,3.8363,3.8307,3.829,3.8307,3.8181,3.7899,3.8056,3.8246,3.8307,3.8205,3.8234,3.825,3.8193,3.8278,3.8278,3.825,3.8278,3.8221,3.825,3.8278,3.825,3.823,3.8197,3.8104,3.777,3.7118,3.6625,3.6002,3.5221,3.5184,3.4827,3.4462,3.4423,3.4634,3.4873,3.5108,3.5224,3.531,3.5418,3.543,3.5223,3.5217,3.5346,3.5346,3.5256,3.5397,3.5498,3.5487,3.5424,3.5418,3.5418,3.5373,3.5281,3.5165,3.5048,3.4613,3.4429,3.3974,3.3486,3.304,3.2846,3.2545,3.1909,3.1459,3.0886,3.0331,2.9943,2.9674,2.9352,2.8951,2.8833,2.8723,2.8732,2.8763,2.8748,2.8779,2.874,2.8732,2.8614,2.8494,2.8209,2.7899,2.768,2.729,2.6933,2.6825,2.6912,2.6774,2.6244,2.5895,2.5806,2.5111,2.4189,2.3728,2.3228,2.2427,2.1211,2.0701,2.0164,1.9618,1.9245,1.8974,1.8753,1.8557]}]]